<?xml version="1.0" encoding="UTF-8" standalone="no" ?>
<gpx xmlns="http://www.topografix.com/GPX/1/1" xmlns:xsi="http://www.w3.org/2001/XMLSchema-instance" xsi:schemaLocation="http://www.topografix.com/GPX/1/1 http://www.topografix.com/GPX/1/1/gpx.xsd" version="1.1" creator="VisuGPX - https://www.visugpx.com">
  <metadata>
    <name>La randonnée des 3 châteaux à Naussannes</name>
    <desc><![CDATA[Un parcours superbes dans des décors qui le sont tout autant.]]></desc>
  </metadata>
  <trk>
    <name><![CDATA[La randonnée des 3 châteaux à Naussannes_1]]></name>
    <trkseg>
      <trkpt lat="44.75786" lon="0.72219">
        <ele>134</ele>
        <time>2012-05-13T05:58:55Z</time>
      </trkpt>
      <trkpt lat="44.75777" lon="0.72257">
        <ele>138</ele>
        <time>2012-05-13T06:00:38Z</time>
      </trkpt>
      <trkpt lat="44.75772" lon="0.72275">
        <ele>138</ele>
        <time>2012-05-13T06:00:43Z</time>
      </trkpt>
      <trkpt lat="44.75767" lon="0.72291">
        <ele>138</ele>
        <time>2012-05-13T06:00:48Z</time>
      </trkpt>
      <trkpt lat="44.75766" lon="0.72299">
        <ele>138</ele>
        <time>2012-05-13T06:00:54Z</time>
      </trkpt>
      <trkpt lat="44.75764" lon="0.72308">
        <ele>138</ele>
        <time>2012-05-13T06:00:59Z</time>
      </trkpt>
      <trkpt lat="44.75761" lon="0.72315">
        <ele>138</ele>
        <time>2012-05-13T06:01:05Z</time>
      </trkpt>
      <trkpt lat="44.75758" lon="0.72322">
        <ele>138</ele>
        <time>2012-05-13T06:01:10Z</time>
      </trkpt>
      <trkpt lat="44.75757" lon="0.72339">
        <ele>139</ele>
        <time>2012-05-13T06:01:15Z</time>
      </trkpt>
      <trkpt lat="44.75753" lon="0.72359">
        <ele>139</ele>
        <time>2012-05-13T06:01:20Z</time>
      </trkpt>
      <trkpt lat="44.75748" lon="0.72385">
        <ele>139</ele>
        <time>2012-05-13T06:01:25Z</time>
      </trkpt>
      <trkpt lat="44.75742" lon="0.72415">
        <ele>139</ele>
        <time>2012-05-13T06:01:30Z</time>
      </trkpt>
      <trkpt lat="44.75738" lon="0.72442">
        <ele>139</ele>
        <time>2012-05-13T06:01:35Z</time>
      </trkpt>
      <trkpt lat="44.75739" lon="0.72467">
        <ele>139</ele>
        <time>2012-05-13T06:01:40Z</time>
      </trkpt>
      <trkpt lat="44.75749" lon="0.72488">
        <ele>139</ele>
        <time>2012-05-13T06:01:45Z</time>
      </trkpt>
      <trkpt lat="44.75761" lon="0.72518">
        <ele>139</ele>
        <time>2012-05-13T06:01:50Z</time>
      </trkpt>
      <trkpt lat="44.75774" lon="0.72553">
        <ele>139</ele>
        <time>2012-05-13T06:01:55Z</time>
      </trkpt>
      <trkpt lat="44.75791" lon="0.72591">
        <ele>139</ele>
        <time>2012-05-13T06:02:00Z</time>
      </trkpt>
      <trkpt lat="44.75809" lon="0.72629">
        <ele>136</ele>
        <time>2012-05-13T06:02:05Z</time>
      </trkpt>
      <trkpt lat="44.75824" lon="0.72665">
        <ele>133</ele>
        <time>2012-05-13T06:02:10Z</time>
      </trkpt>
      <trkpt lat="44.75832" lon="0.72697">
        <ele>129</ele>
        <time>2012-05-13T06:02:15Z</time>
      </trkpt>
      <trkpt lat="44.75822" lon="0.72739">
        <ele>126</ele>
        <time>2012-05-13T06:02:20Z</time>
      </trkpt>
      <trkpt lat="44.75805" lon="0.72787">
        <ele>124</ele>
        <time>2012-05-13T06:02:25Z</time>
      </trkpt>
      <trkpt lat="44.75786" lon="0.72841">
        <ele>123</ele>
        <time>2012-05-13T06:02:30Z</time>
      </trkpt>
      <trkpt lat="44.75776" lon="0.72902">
        <ele>119</ele>
        <time>2012-05-13T06:02:35Z</time>
      </trkpt>
      <trkpt lat="44.75761" lon="0.72938">
        <ele>114</ele>
        <time>2012-05-13T06:02:40Z</time>
      </trkpt>
      <trkpt lat="44.75737" lon="0.72969">
        <ele>112</ele>
        <time>2012-05-13T06:02:45Z</time>
      </trkpt>
      <trkpt lat="44.75717" lon="0.73003">
        <ele>110</ele>
        <time>2012-05-13T06:02:50Z</time>
      </trkpt>
      <trkpt lat="44.75724" lon="0.73039">
        <ele>109</ele>
        <time>2012-05-13T06:02:55Z</time>
      </trkpt>
      <trkpt lat="44.75744" lon="0.73063">
        <ele>107</ele>
        <time>2012-05-13T06:03:00Z</time>
      </trkpt>
      <trkpt lat="44.75769" lon="0.73081">
        <ele>106</ele>
        <time>2012-05-13T06:03:05Z</time>
      </trkpt>
      <trkpt lat="44.75796" lon="0.73105">
        <ele>104</ele>
        <time>2012-05-13T06:03:10Z</time>
      </trkpt>
      <trkpt lat="44.75816" lon="0.73123">
        <ele>103</ele>
        <time>2012-05-13T06:03:15Z</time>
      </trkpt>
      <trkpt lat="44.7584" lon="0.7314">
        <ele>102</ele>
        <time>2012-05-13T06:03:20Z</time>
      </trkpt>
      <trkpt lat="44.75866" lon="0.73155">
        <ele>102</ele>
        <time>2012-05-13T06:03:25Z</time>
      </trkpt>
      <trkpt lat="44.7589" lon="0.73167">
        <ele>102</ele>
        <time>2012-05-13T06:03:30Z</time>
      </trkpt>
      <trkpt lat="44.75913" lon="0.73177">
        <ele>102</ele>
        <time>2012-05-13T06:03:35Z</time>
      </trkpt>
      <trkpt lat="44.75937" lon="0.73192">
        <ele>102</ele>
        <time>2012-05-13T06:03:40Z</time>
      </trkpt>
      <trkpt lat="44.75968" lon="0.73211">
        <ele>102</ele>
        <time>2012-05-13T06:03:45Z</time>
      </trkpt>
      <trkpt lat="44.76" lon="0.73236">
        <ele>100</ele>
        <time>2012-05-13T06:03:50Z</time>
      </trkpt>
      <trkpt lat="44.76031" lon="0.7326">
        <ele>99</ele>
        <time>2012-05-13T06:03:55Z</time>
      </trkpt>
      <trkpt lat="44.76061" lon="0.73284">
        <ele>99</ele>
        <time>2012-05-13T06:04:00Z</time>
      </trkpt>
      <trkpt lat="44.76086" lon="0.73317">
        <ele>99</ele>
        <time>2012-05-13T06:04:05Z</time>
      </trkpt>
      <trkpt lat="44.76109" lon="0.73354">
        <ele>99</ele>
        <time>2012-05-13T06:04:10Z</time>
      </trkpt>
      <trkpt lat="44.76135" lon="0.73393">
        <ele>97</ele>
        <time>2012-05-13T06:04:15Z</time>
      </trkpt>
      <trkpt lat="44.76163" lon="0.73425">
        <ele>95</ele>
        <time>2012-05-13T06:04:20Z</time>
      </trkpt>
      <trkpt lat="44.76188" lon="0.73452">
        <ele>94</ele>
        <time>2012-05-13T06:04:25Z</time>
      </trkpt>
      <trkpt lat="44.76208" lon="0.73475">
        <ele>93</ele>
        <time>2012-05-13T06:04:30Z</time>
      </trkpt>
      <trkpt lat="44.7622" lon="0.73499">
        <ele>92</ele>
        <time>2012-05-13T06:04:35Z</time>
      </trkpt>
      <trkpt lat="44.76227" lon="0.73517">
        <ele>90</ele>
        <time>2012-05-13T06:04:40Z</time>
      </trkpt>
      <trkpt lat="44.76235" lon="0.73533">
        <ele>90</ele>
        <time>2012-05-13T06:04:45Z</time>
      </trkpt>
      <trkpt lat="44.7623" lon="0.73547">
        <ele>89</ele>
        <time>2012-05-13T06:04:50Z</time>
      </trkpt>
      <trkpt lat="44.76225" lon="0.73554">
        <ele>88</ele>
        <time>2012-05-13T06:04:55Z</time>
      </trkpt>
      <trkpt lat="44.76223" lon="0.73558">
        <ele>88</ele>
        <time>2012-05-13T06:05:00Z</time>
      </trkpt>
      <trkpt lat="44.7622" lon="0.73567">
        <ele>88</ele>
        <time>2012-05-13T06:05:05Z</time>
      </trkpt>
      <trkpt lat="44.76213" lon="0.7359">
        <ele>88</ele>
        <time>2012-05-13T06:05:10Z</time>
      </trkpt>
      <trkpt lat="44.76207" lon="0.73619">
        <ele>89</ele>
        <time>2012-05-13T06:05:15Z</time>
      </trkpt>
      <trkpt lat="44.76206" lon="0.7365">
        <ele>89</ele>
        <time>2012-05-13T06:05:20Z</time>
      </trkpt>
      <trkpt lat="44.76213" lon="0.73685">
        <ele>89</ele>
        <time>2012-05-13T06:05:25Z</time>
      </trkpt>
      <trkpt lat="44.76224" lon="0.73721">
        <ele>88</ele>
        <time>2012-05-13T06:05:30Z</time>
      </trkpt>
      <trkpt lat="44.7624" lon="0.73752">
        <ele>86</ele>
        <time>2012-05-13T06:05:35Z</time>
      </trkpt>
      <trkpt lat="44.76251" lon="0.73783">
        <ele>86</ele>
        <time>2012-05-13T06:05:40Z</time>
      </trkpt>
      <trkpt lat="44.76264" lon="0.73807">
        <ele>86</ele>
        <time>2012-05-13T06:05:45Z</time>
      </trkpt>
      <trkpt lat="44.76278" lon="0.73834">
        <ele>86</ele>
        <time>2012-05-13T06:05:50Z</time>
      </trkpt>
      <trkpt lat="44.76293" lon="0.7386">
        <ele>86</ele>
        <time>2012-05-13T06:05:55Z</time>
      </trkpt>
      <trkpt lat="44.76303" lon="0.73888">
        <ele>86</ele>
        <time>2012-05-13T06:06:00Z</time>
      </trkpt>
      <trkpt lat="44.76318" lon="0.73917">
        <ele>86</ele>
        <time>2012-05-13T06:06:05Z</time>
      </trkpt>
      <trkpt lat="44.76328" lon="0.73937">
        <ele>86</ele>
        <time>2012-05-13T06:06:10Z</time>
      </trkpt>
      <trkpt lat="44.76333" lon="0.73949">
        <ele>86</ele>
        <time>2012-05-13T06:06:15Z</time>
      </trkpt>
      <trkpt lat="44.7634" lon="0.73962">
        <ele>86</ele>
        <time>2012-05-13T06:06:20Z</time>
      </trkpt>
      <trkpt lat="44.76352" lon="0.73978">
        <ele>87</ele>
        <time>2012-05-13T06:06:25Z</time>
      </trkpt>
      <trkpt lat="44.76365" lon="0.73986">
        <ele>88</ele>
        <time>2012-05-13T06:06:30Z</time>
      </trkpt>
      <trkpt lat="44.76376" lon="0.73997">
        <ele>88</ele>
        <time>2012-05-13T06:06:35Z</time>
      </trkpt>
      <trkpt lat="44.76385" lon="0.74004">
        <ele>88</ele>
        <time>2012-05-13T06:06:40Z</time>
      </trkpt>
      <trkpt lat="44.76398" lon="0.74008">
        <ele>88</ele>
        <time>2012-05-13T06:06:45Z</time>
      </trkpt>
      <trkpt lat="44.76413" lon="0.74022">
        <ele>88</ele>
        <time>2012-05-13T06:06:50Z</time>
      </trkpt>
      <trkpt lat="44.76426" lon="0.74038">
        <ele>87</ele>
        <time>2012-05-13T06:06:55Z</time>
      </trkpt>
      <trkpt lat="44.76437" lon="0.74055">
        <ele>86</ele>
        <time>2012-05-13T06:07:00Z</time>
      </trkpt>
      <trkpt lat="44.76447" lon="0.74068">
        <ele>86</ele>
        <time>2012-05-13T06:07:05Z</time>
      </trkpt>
      <trkpt lat="44.76459" lon="0.74079">
        <ele>86</ele>
        <time>2012-05-13T06:07:10Z</time>
      </trkpt>
      <trkpt lat="44.76475" lon="0.74063">
        <ele>86</ele>
        <time>2012-05-13T06:07:15Z</time>
      </trkpt>
      <trkpt lat="44.76485" lon="0.74046">
        <ele>86</ele>
        <time>2012-05-13T06:07:20Z</time>
      </trkpt>
      <trkpt lat="44.76495" lon="0.74045">
        <ele>86</ele>
        <time>2012-05-13T06:07:25Z</time>
      </trkpt>
      <trkpt lat="44.76505" lon="0.74057">
        <ele>84</ele>
        <time>2012-05-13T06:07:30Z</time>
      </trkpt>
      <trkpt lat="44.76511" lon="0.74073">
        <ele>84</ele>
        <time>2012-05-13T06:07:35Z</time>
      </trkpt>
      <trkpt lat="44.76514" lon="0.74096">
        <ele>84</ele>
        <time>2012-05-13T06:07:40Z</time>
      </trkpt>
      <trkpt lat="44.76513" lon="0.74119">
        <ele>84</ele>
        <time>2012-05-13T06:07:45Z</time>
      </trkpt>
      <trkpt lat="44.76516" lon="0.7414">
        <ele>86</ele>
        <time>2012-05-13T06:07:50Z</time>
      </trkpt>
      <trkpt lat="44.76532" lon="0.74155">
        <ele>90</ele>
        <time>2012-05-13T06:07:55Z</time>
      </trkpt>
      <trkpt lat="44.76549" lon="0.74178">
        <ele>91</ele>
        <time>2012-05-13T06:08:00Z</time>
      </trkpt>
      <trkpt lat="44.76558" lon="0.74203">
        <ele>91</ele>
        <time>2012-05-13T06:08:05Z</time>
      </trkpt>
      <trkpt lat="44.76571" lon="0.74219">
        <ele>90</ele>
        <time>2012-05-13T06:08:10Z</time>
      </trkpt>
      <trkpt lat="44.76571" lon="0.74239">
        <ele>90</ele>
        <time>2012-05-13T06:08:15Z</time>
      </trkpt>
      <trkpt lat="44.76576" lon="0.74256">
        <ele>90</ele>
        <time>2012-05-13T06:08:20Z</time>
      </trkpt>
      <trkpt lat="44.76584" lon="0.7427">
        <ele>90</ele>
        <time>2012-05-13T06:08:25Z</time>
      </trkpt>
      <trkpt lat="44.76592" lon="0.74288">
        <ele>90</ele>
        <time>2012-05-13T06:08:30Z</time>
      </trkpt>
      <trkpt lat="44.76596" lon="0.74305">
        <ele>89</ele>
        <time>2012-05-13T06:08:35Z</time>
      </trkpt>
      <trkpt lat="44.76607" lon="0.74324">
        <ele>89</ele>
        <time>2012-05-13T06:08:40Z</time>
      </trkpt>
      <trkpt lat="44.76615" lon="0.74341">
        <ele>89</ele>
        <time>2012-05-13T06:08:45Z</time>
      </trkpt>
      <trkpt lat="44.76619" lon="0.74361">
        <ele>90</ele>
        <time>2012-05-13T06:08:50Z</time>
      </trkpt>
      <trkpt lat="44.76619" lon="0.7438">
        <ele>94</ele>
        <time>2012-05-13T06:08:55Z</time>
      </trkpt>
      <trkpt lat="44.76621" lon="0.74397">
        <ele>95</ele>
        <time>2012-05-13T06:09:00Z</time>
      </trkpt>
      <trkpt lat="44.76632" lon="0.74418">
        <ele>95</ele>
        <time>2012-05-13T06:09:05Z</time>
      </trkpt>
      <trkpt lat="44.76643" lon="0.7443">
        <ele>95</ele>
        <time>2012-05-13T06:09:10Z</time>
      </trkpt>
      <trkpt lat="44.76663" lon="0.74438">
        <ele>95</ele>
        <time>2012-05-13T06:09:15Z</time>
      </trkpt>
      <trkpt lat="44.76676" lon="0.74449">
        <ele>95</ele>
        <time>2012-05-13T06:09:20Z</time>
      </trkpt>
      <trkpt lat="44.76683" lon="0.74468">
        <ele>95</ele>
        <time>2012-05-13T06:09:25Z</time>
      </trkpt>
      <trkpt lat="44.7669" lon="0.74489">
        <ele>95</ele>
        <time>2012-05-13T06:09:30Z</time>
      </trkpt>
      <trkpt lat="44.76683" lon="0.7451">
        <ele>95</ele>
        <time>2012-05-13T06:09:35Z</time>
      </trkpt>
      <trkpt lat="44.76691" lon="0.74538">
        <ele>93</ele>
        <time>2012-05-13T06:09:40Z</time>
      </trkpt>
      <trkpt lat="44.7671" lon="0.74559">
        <ele>89</ele>
        <time>2012-05-13T06:09:45Z</time>
      </trkpt>
      <trkpt lat="44.76725" lon="0.74576">
        <ele>88</ele>
        <time>2012-05-13T06:09:50Z</time>
      </trkpt>
      <trkpt lat="44.76737" lon="0.74598">
        <ele>88</ele>
        <time>2012-05-13T06:09:55Z</time>
      </trkpt>
      <trkpt lat="44.76746" lon="0.74624">
        <ele>88</ele>
        <time>2012-05-13T06:10:00Z</time>
      </trkpt>
      <trkpt lat="44.76757" lon="0.74655">
        <ele>87</ele>
        <time>2012-05-13T06:10:05Z</time>
      </trkpt>
      <trkpt lat="44.76767" lon="0.74681">
        <ele>87</ele>
        <time>2012-05-13T06:10:10Z</time>
      </trkpt>
      <trkpt lat="44.76778" lon="0.74701">
        <ele>87</ele>
        <time>2012-05-13T06:10:15Z</time>
      </trkpt>
      <trkpt lat="44.7679" lon="0.74716">
        <ele>86</ele>
        <time>2012-05-13T06:10:20Z</time>
      </trkpt>
      <trkpt lat="44.76801" lon="0.74706">
        <ele>86</ele>
        <time>2012-05-13T06:10:25Z</time>
      </trkpt>
      <trkpt lat="44.76817" lon="0.74676">
        <ele>86</ele>
        <time>2012-05-13T06:10:30Z</time>
      </trkpt>
      <trkpt lat="44.76837" lon="0.74638">
        <ele>86</ele>
        <time>2012-05-13T06:10:35Z</time>
      </trkpt>
      <trkpt lat="44.76857" lon="0.74614">
        <ele>85</ele>
        <time>2012-05-13T06:10:40Z</time>
      </trkpt>
      <trkpt lat="44.7686" lon="0.74632">
        <ele>81</ele>
        <time>2012-05-13T06:10:45Z</time>
      </trkpt>
      <trkpt lat="44.76868" lon="0.74653">
        <ele>81</ele>
        <time>2012-05-13T06:10:50Z</time>
      </trkpt>
      <trkpt lat="44.76885" lon="0.74665">
        <ele>81</ele>
        <time>2012-05-13T06:10:55Z</time>
      </trkpt>
      <trkpt lat="44.76905" lon="0.74679">
        <ele>81</ele>
        <time>2012-05-13T06:11:00Z</time>
      </trkpt>
      <trkpt lat="44.76913" lon="0.74692">
        <ele>83</ele>
        <time>2012-05-13T06:11:05Z</time>
      </trkpt>
      <trkpt lat="44.76927" lon="0.74705">
        <ele>84</ele>
        <time>2012-05-13T06:11:10Z</time>
      </trkpt>
      <trkpt lat="44.76943" lon="0.74719">
        <ele>84</ele>
        <time>2012-05-13T06:11:15Z</time>
      </trkpt>
      <trkpt lat="44.76961" lon="0.74737">
        <ele>85</ele>
        <time>2012-05-13T06:11:20Z</time>
      </trkpt>
      <trkpt lat="44.76975" lon="0.74753">
        <ele>85</ele>
        <time>2012-05-13T06:11:25Z</time>
      </trkpt>
      <trkpt lat="44.76994" lon="0.74771">
        <ele>85</ele>
        <time>2012-05-13T06:11:30Z</time>
      </trkpt>
      <trkpt lat="44.77013" lon="0.74793">
        <ele>85</ele>
        <time>2012-05-13T06:11:35Z</time>
      </trkpt>
      <trkpt lat="44.77034" lon="0.74818">
        <ele>85</ele>
        <time>2012-05-13T06:11:40Z</time>
      </trkpt>
      <trkpt lat="44.77056" lon="0.74843">
        <ele>85</ele>
        <time>2012-05-13T06:11:45Z</time>
      </trkpt>
      <trkpt lat="44.77079" lon="0.74871">
        <ele>85</ele>
        <time>2012-05-13T06:11:50Z</time>
      </trkpt>
      <trkpt lat="44.77104" lon="0.74896">
        <ele>83</ele>
        <time>2012-05-13T06:11:55Z</time>
      </trkpt>
      <trkpt lat="44.77127" lon="0.7492">
        <ele>83</ele>
        <time>2012-05-13T06:12:00Z</time>
      </trkpt>
      <trkpt lat="44.7715" lon="0.74942">
        <ele>82</ele>
        <time>2012-05-13T06:12:05Z</time>
      </trkpt>
      <trkpt lat="44.7717" lon="0.74958">
        <ele>82</ele>
        <time>2012-05-13T06:12:10Z</time>
      </trkpt>
      <trkpt lat="44.77187" lon="0.74975">
        <ele>82</ele>
        <time>2012-05-13T06:12:15Z</time>
      </trkpt>
      <trkpt lat="44.772" lon="0.74997">
        <ele>82</ele>
        <time>2012-05-13T06:12:20Z</time>
      </trkpt>
      <trkpt lat="44.77208" lon="0.7502">
        <ele>82</ele>
        <time>2012-05-13T06:12:25Z</time>
      </trkpt>
      <trkpt lat="44.77217" lon="0.7504">
        <ele>82</ele>
        <time>2012-05-13T06:12:30Z</time>
      </trkpt>
      <trkpt lat="44.77227" lon="0.75062">
        <ele>83</ele>
        <time>2012-05-13T06:12:35Z</time>
      </trkpt>
      <trkpt lat="44.77238" lon="0.75081">
        <ele>85</ele>
        <time>2012-05-13T06:12:40Z</time>
      </trkpt>
      <trkpt lat="44.77256" lon="0.75102">
        <ele>86</ele>
        <time>2012-05-13T06:12:45Z</time>
      </trkpt>
      <trkpt lat="44.77278" lon="0.75127">
        <ele>86</ele>
        <time>2012-05-13T06:12:50Z</time>
      </trkpt>
      <trkpt lat="44.77302" lon="0.75147">
        <ele>86</ele>
        <time>2012-05-13T06:12:55Z</time>
      </trkpt>
      <trkpt lat="44.77321" lon="0.75154">
        <ele>86</ele>
        <time>2012-05-13T06:13:00Z</time>
      </trkpt>
      <trkpt lat="44.77326" lon="0.75185">
        <ele>86</ele>
        <time>2012-05-13T06:13:05Z</time>
      </trkpt>
      <trkpt lat="44.7733" lon="0.75211">
        <ele>88</ele>
        <time>2012-05-13T06:13:10Z</time>
      </trkpt>
      <trkpt lat="44.77331" lon="0.75234">
        <ele>90</ele>
        <time>2012-05-13T06:13:15Z</time>
      </trkpt>
      <trkpt lat="44.77332" lon="0.75259">
        <ele>91</ele>
        <time>2012-05-13T06:13:20Z</time>
      </trkpt>
      <trkpt lat="44.77332" lon="0.7528">
        <ele>94</ele>
        <time>2012-05-13T06:13:25Z</time>
      </trkpt>
      <trkpt lat="44.77335" lon="0.75306">
        <ele>99</ele>
        <time>2012-05-13T06:13:30Z</time>
      </trkpt>
      <trkpt lat="44.77336" lon="0.75328">
        <ele>99</ele>
        <time>2012-05-13T06:13:35Z</time>
      </trkpt>
      <trkpt lat="44.77338" lon="0.75355">
        <ele>99</ele>
        <time>2012-05-13T06:13:40Z</time>
      </trkpt>
      <trkpt lat="44.77343" lon="0.7538">
        <ele>99</ele>
        <time>2012-05-13T06:13:45Z</time>
      </trkpt>
      <trkpt lat="44.77347" lon="0.754">
        <ele>100</ele>
        <time>2012-05-13T06:13:50Z</time>
      </trkpt>
      <trkpt lat="44.77366" lon="0.75399">
        <ele>101</ele>
        <time>2012-05-13T06:13:55Z</time>
      </trkpt>
      <trkpt lat="44.77404" lon="0.75405">
        <ele>101</ele>
        <time>2012-05-13T06:14:00Z</time>
      </trkpt>
      <trkpt lat="44.77443" lon="0.75397">
        <ele>98</ele>
        <time>2012-05-13T06:14:05Z</time>
      </trkpt>
      <trkpt lat="44.77473" lon="0.75384">
        <ele>93</ele>
        <time>2012-05-13T06:14:10Z</time>
      </trkpt>
      <trkpt lat="44.77466" lon="0.75354">
        <ele>88</ele>
        <time>2012-05-13T06:14:15Z</time>
      </trkpt>
      <trkpt lat="44.77441" lon="0.7532">
        <ele>83</ele>
        <time>2012-05-13T06:14:20Z</time>
      </trkpt>
      <trkpt lat="44.7742" lon="0.7529">
        <ele>80</ele>
        <time>2012-05-13T06:14:25Z</time>
      </trkpt>
      <trkpt lat="44.77407" lon="0.75262">
        <ele>80</ele>
        <time>2012-05-13T06:14:30Z</time>
      </trkpt>
      <trkpt lat="44.77402" lon="0.75216">
        <ele>83</ele>
        <time>2012-05-13T06:14:35Z</time>
      </trkpt>
      <trkpt lat="44.77384" lon="0.75179">
        <ele>86</ele>
        <time>2012-05-13T06:14:40Z</time>
      </trkpt>
      <trkpt lat="44.77366" lon="0.75144">
        <ele>87</ele>
        <time>2012-05-13T06:14:45Z</time>
      </trkpt>
      <trkpt lat="44.77346" lon="0.75107">
        <ele>88</ele>
        <time>2012-05-13T06:14:50Z</time>
      </trkpt>
      <trkpt lat="44.77342" lon="0.75083">
        <ele>84</ele>
        <time>2012-05-13T06:14:55Z</time>
      </trkpt>
      <trkpt lat="44.77372" lon="0.75047">
        <ele>79</ele>
        <time>2012-05-13T06:15:00Z</time>
      </trkpt>
      <trkpt lat="44.77393" lon="0.75012">
        <ele>75</ele>
        <time>2012-05-13T06:15:05Z</time>
      </trkpt>
      <trkpt lat="44.77404" lon="0.74985">
        <ele>72</ele>
        <time>2012-05-13T06:15:10Z</time>
      </trkpt>
      <trkpt lat="44.7741" lon="0.7497">
        <ele>72</ele>
        <time>2012-05-13T06:15:15Z</time>
      </trkpt>
      <trkpt lat="44.77416" lon="0.74959">
        <ele>72</ele>
        <time>2012-05-13T06:15:20Z</time>
      </trkpt>
      <trkpt lat="44.7742" lon="0.74949">
        <ele>74</ele>
        <time>2012-05-13T06:15:25Z</time>
      </trkpt>
      <trkpt lat="44.77425" lon="0.7494">
        <ele>77</ele>
        <time>2012-05-13T06:15:31Z</time>
      </trkpt>
      <trkpt lat="44.77429" lon="0.74928">
        <ele>78</ele>
        <time>2012-05-13T06:15:36Z</time>
      </trkpt>
      <trkpt lat="44.77433" lon="0.74918">
        <ele>80</ele>
        <time>2012-05-13T06:15:41Z</time>
      </trkpt>
      <trkpt lat="44.77438" lon="0.7491">
        <ele>81</ele>
        <time>2012-05-13T06:15:46Z</time>
      </trkpt>
      <trkpt lat="44.77442" lon="0.74903">
        <ele>81</ele>
        <time>2012-05-13T06:15:51Z</time>
      </trkpt>
      <trkpt lat="44.7744" lon="0.74896">
        <ele>81</ele>
        <time>2012-05-13T06:15:56Z</time>
      </trkpt>
      <trkpt lat="44.77434" lon="0.74885">
        <ele>84</ele>
        <time>2012-05-13T06:16:01Z</time>
      </trkpt>
      <trkpt lat="44.77429" lon="0.74877">
        <ele>85</ele>
        <time>2012-05-13T06:16:06Z</time>
      </trkpt>
      <trkpt lat="44.77423" lon="0.74871">
        <ele>86</ele>
        <time>2012-05-13T06:16:12Z</time>
      </trkpt>
      <trkpt lat="44.77414" lon="0.74863">
        <ele>87</ele>
        <time>2012-05-13T06:16:18Z</time>
      </trkpt>
      <trkpt lat="44.77403" lon="0.74859">
        <ele>87</ele>
        <time>2012-05-13T06:16:23Z</time>
      </trkpt>
      <trkpt lat="44.77396" lon="0.74866">
        <ele>87</ele>
        <time>2012-05-13T06:16:29Z</time>
      </trkpt>
      <trkpt lat="44.77388" lon="0.74865">
        <ele>87</ele>
        <time>2012-05-13T06:16:35Z</time>
      </trkpt>
      <trkpt lat="44.77379" lon="0.7486">
        <ele>87</ele>
        <time>2012-05-13T06:16:40Z</time>
      </trkpt>
      <trkpt lat="44.7737" lon="0.74856">
        <ele>89</ele>
        <time>2012-05-13T06:16:45Z</time>
      </trkpt>
      <trkpt lat="44.77363" lon="0.74844">
        <ele>91</ele>
        <time>2012-05-13T06:16:50Z</time>
      </trkpt>
      <trkpt lat="44.77352" lon="0.74831">
        <ele>92</ele>
        <time>2012-05-13T06:16:55Z</time>
      </trkpt>
      <trkpt lat="44.77345" lon="0.74817">
        <ele>92</ele>
        <time>2012-05-13T06:17:00Z</time>
      </trkpt>
      <trkpt lat="44.77331" lon="0.74809">
        <ele>92</ele>
        <time>2012-05-13T06:17:05Z</time>
      </trkpt>
      <trkpt lat="44.77319" lon="0.74789">
        <ele>92</ele>
        <time>2012-05-13T06:17:10Z</time>
      </trkpt>
      <trkpt lat="44.77317" lon="0.74766">
        <ele>90</ele>
        <time>2012-05-13T06:17:15Z</time>
      </trkpt>
      <trkpt lat="44.77313" lon="0.74742">
        <ele>85</ele>
        <time>2012-05-13T06:17:20Z</time>
      </trkpt>
      <trkpt lat="44.77316" lon="0.74718">
        <ele>84</ele>
        <time>2012-05-13T06:17:25Z</time>
      </trkpt>
      <trkpt lat="44.7732" lon="0.747">
        <ele>84</ele>
        <time>2012-05-13T06:17:30Z</time>
      </trkpt>
      <trkpt lat="44.77317" lon="0.74682">
        <ele>87</ele>
        <time>2012-05-13T06:17:35Z</time>
      </trkpt>
      <trkpt lat="44.77316" lon="0.74667">
        <ele>89</ele>
        <time>2012-05-13T06:17:40Z</time>
      </trkpt>
      <trkpt lat="44.77321" lon="0.74655">
        <ele>91</ele>
        <time>2012-05-13T06:17:45Z</time>
      </trkpt>
      <trkpt lat="44.77323" lon="0.74642">
        <ele>95</ele>
        <time>2012-05-13T06:17:50Z</time>
      </trkpt>
      <trkpt lat="44.7733" lon="0.74637">
        <ele>99</ele>
        <time>2012-05-13T06:17:55Z</time>
      </trkpt>
      <trkpt lat="44.77337" lon="0.74631">
        <ele>100</ele>
        <time>2012-05-13T06:18:00Z</time>
      </trkpt>
      <trkpt lat="44.77345" lon="0.7462">
        <ele>100</ele>
        <time>2012-05-13T06:18:05Z</time>
      </trkpt>
      <trkpt lat="44.77357" lon="0.74609">
        <ele>100</ele>
        <time>2012-05-13T06:18:10Z</time>
      </trkpt>
      <trkpt lat="44.77369" lon="0.74597">
        <ele>100</ele>
        <time>2012-05-13T06:18:15Z</time>
      </trkpt>
      <trkpt lat="44.77381" lon="0.74583">
        <ele>97</ele>
        <time>2012-05-13T06:18:20Z</time>
      </trkpt>
      <trkpt lat="44.77392" lon="0.74571">
        <ele>96</ele>
        <time>2012-05-13T06:18:25Z</time>
      </trkpt>
      <trkpt lat="44.77399" lon="0.74554">
        <ele>96</ele>
        <time>2012-05-13T06:18:32Z</time>
      </trkpt>
      <trkpt lat="44.77393" lon="0.74536">
        <ele>96</ele>
        <time>2012-05-13T06:18:37Z</time>
      </trkpt>
      <trkpt lat="44.77379" lon="0.74516">
        <ele>96</ele>
        <time>2012-05-13T06:18:43Z</time>
      </trkpt>
      <trkpt lat="44.77362" lon="0.745">
        <ele>96</ele>
        <time>2012-05-13T06:18:48Z</time>
      </trkpt>
      <trkpt lat="44.7735" lon="0.74484">
        <ele>96</ele>
        <time>2012-05-13T06:18:53Z</time>
      </trkpt>
      <trkpt lat="44.77345" lon="0.74463">
        <ele>96</ele>
        <time>2012-05-13T06:18:58Z</time>
      </trkpt>
      <trkpt lat="44.77337" lon="0.74426">
        <ele>96</ele>
        <time>2012-05-13T06:19:03Z</time>
      </trkpt>
      <trkpt lat="44.77322" lon="0.74408">
        <ele>96</ele>
        <time>2012-05-13T06:19:09Z</time>
      </trkpt>
      <trkpt lat="44.77296" lon="0.74401">
        <ele>96</ele>
        <time>2012-05-13T06:19:14Z</time>
      </trkpt>
      <trkpt lat="44.77277" lon="0.74403">
        <ele>96</ele>
        <time>2012-05-13T06:19:19Z</time>
      </trkpt>
      <trkpt lat="44.77262" lon="0.74405">
        <ele>96</ele>
        <time>2012-05-13T06:19:24Z</time>
      </trkpt>
      <trkpt lat="44.7724" lon="0.74402">
        <ele>98</ele>
        <time>2012-05-13T06:19:29Z</time>
      </trkpt>
      <trkpt lat="44.77219" lon="0.74397">
        <ele>98</ele>
        <time>2012-05-13T06:19:34Z</time>
      </trkpt>
      <trkpt lat="44.77203" lon="0.74393">
        <ele>98</ele>
        <time>2012-05-13T06:19:39Z</time>
      </trkpt>
      <trkpt lat="44.77186" lon="0.74393">
        <ele>101</ele>
        <time>2012-05-13T06:19:44Z</time>
      </trkpt>
      <trkpt lat="44.77171" lon="0.74397">
        <ele>101</ele>
        <time>2012-05-13T06:19:49Z</time>
      </trkpt>
      <trkpt lat="44.77153" lon="0.74396">
        <ele>102</ele>
        <time>2012-05-13T06:19:54Z</time>
      </trkpt>
      <trkpt lat="44.7714" lon="0.74393">
        <ele>102</ele>
        <time>2012-05-13T06:19:59Z</time>
      </trkpt>
      <trkpt lat="44.77125" lon="0.74391">
        <ele>102</ele>
        <time>2012-05-13T06:20:04Z</time>
      </trkpt>
      <trkpt lat="44.77111" lon="0.74393">
        <ele>102</ele>
        <time>2012-05-13T06:20:09Z</time>
      </trkpt>
      <trkpt lat="44.77092" lon="0.74395">
        <ele>104</ele>
        <time>2012-05-13T06:20:14Z</time>
      </trkpt>
      <trkpt lat="44.77069" lon="0.744">
        <ele>105</ele>
        <time>2012-05-13T06:20:19Z</time>
      </trkpt>
      <trkpt lat="44.77048" lon="0.74402">
        <ele>106</ele>
        <time>2012-05-13T06:20:24Z</time>
      </trkpt>
      <trkpt lat="44.77025" lon="0.74406">
        <ele>106</ele>
        <time>2012-05-13T06:20:30Z</time>
      </trkpt>
      <trkpt lat="44.76994" lon="0.7444">
        <ele>106</ele>
        <time>2012-05-13T06:20:35Z</time>
      </trkpt>
      <trkpt lat="44.76982" lon="0.74474">
        <ele>103</ele>
        <time>2012-05-13T06:20:40Z</time>
      </trkpt>
      <trkpt lat="44.76981" lon="0.74487">
        <ele>101</ele>
        <time>2012-05-13T06:20:45Z</time>
      </trkpt>
      <trkpt lat="44.76972" lon="0.74476">
        <ele>97</ele>
        <time>2012-05-13T06:20:50Z</time>
      </trkpt>
      <trkpt lat="44.76959" lon="0.74461">
        <ele>96</ele>
        <time>2012-05-13T06:20:56Z</time>
      </trkpt>
      <trkpt lat="44.76947" lon="0.74447">
        <ele>96</ele>
        <time>2012-05-13T06:21:02Z</time>
      </trkpt>
      <trkpt lat="44.76938" lon="0.74435">
        <ele>96</ele>
        <time>2012-05-13T06:21:07Z</time>
      </trkpt>
      <trkpt lat="44.76931" lon="0.7442">
        <ele>96</ele>
        <time>2012-05-13T06:21:13Z</time>
      </trkpt>
      <trkpt lat="44.76934" lon="0.7441">
        <ele>97</ele>
        <time>2012-05-13T06:21:18Z</time>
      </trkpt>
      <trkpt lat="44.76943" lon="0.74407">
        <ele>100</ele>
        <time>2012-05-13T06:21:23Z</time>
      </trkpt>
      <trkpt lat="44.76955" lon="0.744">
        <ele>104</ele>
        <time>2012-05-13T06:21:29Z</time>
      </trkpt>
      <trkpt lat="44.76966" lon="0.74392">
        <ele>105</ele>
        <time>2012-05-13T06:21:34Z</time>
      </trkpt>
      <trkpt lat="44.76978" lon="0.74384">
        <ele>106</ele>
        <time>2012-05-13T06:21:40Z</time>
      </trkpt>
      <trkpt lat="44.7699" lon="0.7438">
        <ele>106</ele>
        <time>2012-05-13T06:21:45Z</time>
      </trkpt>
      <trkpt lat="44.77002" lon="0.74378">
        <ele>105</ele>
        <time>2012-05-13T06:21:50Z</time>
      </trkpt>
      <trkpt lat="44.7702" lon="0.74377">
        <ele>102</ele>
        <time>2012-05-13T06:21:56Z</time>
      </trkpt>
      <trkpt lat="44.77034" lon="0.74378">
        <ele>102</ele>
        <time>2012-05-13T06:22:01Z</time>
      </trkpt>
      <trkpt lat="44.77045" lon="0.74379">
        <ele>102</ele>
        <time>2012-05-13T06:22:06Z</time>
      </trkpt>
      <trkpt lat="44.77049" lon="0.74369">
        <ele>106</ele>
        <time>2012-05-13T06:22:11Z</time>
      </trkpt>
      <trkpt lat="44.7704" lon="0.74363">
        <ele>107</ele>
        <time>2012-05-13T06:22:16Z</time>
      </trkpt>
      <trkpt lat="44.7703" lon="0.74359">
        <ele>108</ele>
        <time>2012-05-13T06:22:21Z</time>
      </trkpt>
      <trkpt lat="44.77019" lon="0.74354">
        <ele>109</ele>
        <time>2012-05-13T06:22:26Z</time>
      </trkpt>
      <trkpt lat="44.77007" lon="0.74349">
        <ele>109</ele>
        <time>2012-05-13T06:22:32Z</time>
      </trkpt>
      <trkpt lat="44.76996" lon="0.74344">
        <ele>109</ele>
        <time>2012-05-13T06:22:37Z</time>
      </trkpt>
      <trkpt lat="44.76984" lon="0.74337">
        <ele>114</ele>
        <time>2012-05-13T06:22:42Z</time>
      </trkpt>
      <trkpt lat="44.76972" lon="0.74332">
        <ele>118</ele>
        <time>2012-05-13T06:22:47Z</time>
      </trkpt>
      <trkpt lat="44.76959" lon="0.74327">
        <ele>118</ele>
        <time>2012-05-13T06:22:52Z</time>
      </trkpt>
      <trkpt lat="44.76946" lon="0.74321">
        <ele>118</ele>
        <time>2012-05-13T06:22:57Z</time>
      </trkpt>
      <trkpt lat="44.76938" lon="0.74317">
        <ele>120</ele>
        <time>2012-05-13T06:23:02Z</time>
      </trkpt>
      <trkpt lat="44.76929" lon="0.74311">
        <ele>122</ele>
        <time>2012-05-13T06:23:08Z</time>
      </trkpt>
      <trkpt lat="44.76924" lon="0.74298">
        <ele>123</ele>
        <time>2012-05-13T06:23:17Z</time>
      </trkpt>
      <trkpt lat="44.76921" lon="0.74295">
        <ele>123</ele>
        <time>2012-05-13T06:23:24Z</time>
      </trkpt>
      <trkpt lat="44.76921" lon="0.74293">
        <ele>120</ele>
        <time>2012-05-13T06:23:29Z</time>
      </trkpt>
      <trkpt lat="44.7692" lon="0.7429">
        <ele>117</ele>
        <time>2012-05-13T06:23:35Z</time>
      </trkpt>
      <trkpt lat="44.76918" lon="0.7429">
        <ele>117</ele>
        <time>2012-05-13T06:23:41Z</time>
      </trkpt>
      <trkpt lat="44.76919" lon="0.74291">
        <ele>121</ele>
        <time>2012-05-13T06:23:56Z</time>
      </trkpt>
      <trkpt lat="44.7692" lon="0.74293">
        <ele>121</ele>
        <time>2012-05-13T06:24:05Z</time>
      </trkpt>
      <trkpt lat="44.76921" lon="0.74296">
        <ele>122</ele>
        <time>2012-05-13T06:24:15Z</time>
      </trkpt>
      <trkpt lat="44.76921" lon="0.74298">
        <ele>123</ele>
        <time>2012-05-13T06:24:29Z</time>
      </trkpt>
      <trkpt lat="44.76922" lon="0.74299">
        <ele>124</ele>
        <time>2012-05-13T06:24:38Z</time>
      </trkpt>
      <trkpt lat="44.76922" lon="0.74301">
        <ele>127</ele>
        <time>2012-05-13T06:24:46Z</time>
      </trkpt>
      <trkpt lat="44.76921" lon="0.74301">
        <ele>128</ele>
        <time>2012-05-13T06:24:53Z</time>
      </trkpt>
      <trkpt lat="44.7692" lon="0.74301">
        <ele>128</ele>
        <time>2012-05-13T06:25:00Z</time>
      </trkpt>
      <trkpt lat="44.76912" lon="0.74296">
        <ele>126</ele>
        <time>2012-05-13T06:25:05Z</time>
      </trkpt>
      <trkpt lat="44.76899" lon="0.74286">
        <ele>123</ele>
        <time>2012-05-13T06:25:11Z</time>
      </trkpt>
      <trkpt lat="44.76893" lon="0.74266">
        <ele>121</ele>
        <time>2012-05-13T06:25:16Z</time>
      </trkpt>
      <trkpt lat="44.76888" lon="0.74239">
        <ele>118</ele>
        <time>2012-05-13T06:25:21Z</time>
      </trkpt>
      <trkpt lat="44.76886" lon="0.74217">
        <ele>115</ele>
        <time>2012-05-13T06:25:26Z</time>
      </trkpt>
      <trkpt lat="44.76892" lon="0.74191">
        <ele>114</ele>
        <time>2012-05-13T06:25:31Z</time>
      </trkpt>
      <trkpt lat="44.76898" lon="0.74169">
        <ele>113</ele>
        <time>2012-05-13T06:25:36Z</time>
      </trkpt>
      <trkpt lat="44.76915" lon="0.74152">
        <ele>112</ele>
        <time>2012-05-13T06:25:41Z</time>
      </trkpt>
      <trkpt lat="44.76931" lon="0.74141">
        <ele>111</ele>
        <time>2012-05-13T06:25:46Z</time>
      </trkpt>
      <trkpt lat="44.76949" lon="0.74128">
        <ele>111</ele>
        <time>2012-05-13T06:25:51Z</time>
      </trkpt>
      <trkpt lat="44.76962" lon="0.74114">
        <ele>111</ele>
        <time>2012-05-13T06:25:56Z</time>
      </trkpt>
      <trkpt lat="44.7697" lon="0.74096">
        <ele>111</ele>
        <time>2012-05-13T06:26:01Z</time>
      </trkpt>
      <trkpt lat="44.76975" lon="0.7408">
        <ele>111</ele>
        <time>2012-05-13T06:26:06Z</time>
      </trkpt>
      <trkpt lat="44.76982" lon="0.74066">
        <ele>111</ele>
        <time>2012-05-13T06:26:11Z</time>
      </trkpt>
      <trkpt lat="44.76989" lon="0.74057">
        <ele>114</ele>
        <time>2012-05-13T06:26:16Z</time>
      </trkpt>
      <trkpt lat="44.76994" lon="0.74046">
        <ele>118</ele>
        <time>2012-05-13T06:26:21Z</time>
      </trkpt>
      <trkpt lat="44.76997" lon="0.74037">
        <ele>119</ele>
        <time>2012-05-13T06:26:28Z</time>
      </trkpt>
      <trkpt lat="44.77001" lon="0.74029">
        <ele>120</ele>
        <time>2012-05-13T06:26:33Z</time>
      </trkpt>
      <trkpt lat="44.77004" lon="0.74022">
        <ele>121</ele>
        <time>2012-05-13T06:26:38Z</time>
      </trkpt>
      <trkpt lat="44.77003" lon="0.74012">
        <ele>122</ele>
        <time>2012-05-13T06:26:43Z</time>
      </trkpt>
      <trkpt lat="44.77002" lon="0.74002">
        <ele>123</ele>
        <time>2012-05-13T06:26:48Z</time>
      </trkpt>
      <trkpt lat="44.77004" lon="0.73993">
        <ele>124</ele>
        <time>2012-05-13T06:26:53Z</time>
      </trkpt>
      <trkpt lat="44.77005" lon="0.73985">
        <ele>125</ele>
        <time>2012-05-13T06:26:58Z</time>
      </trkpt>
      <trkpt lat="44.77005" lon="0.73976">
        <ele>128</ele>
        <time>2012-05-13T06:27:04Z</time>
      </trkpt>
      <trkpt lat="44.77005" lon="0.73967">
        <ele>132</ele>
        <time>2012-05-13T06:27:10Z</time>
      </trkpt>
      <trkpt lat="44.77005" lon="0.73956">
        <ele>137</ele>
        <time>2012-05-13T06:27:15Z</time>
      </trkpt>
      <trkpt lat="44.77007" lon="0.73946">
        <ele>140</ele>
        <time>2012-05-13T06:27:21Z</time>
      </trkpt>
      <trkpt lat="44.77009" lon="0.73936">
        <ele>141</ele>
        <time>2012-05-13T06:27:26Z</time>
      </trkpt>
      <trkpt lat="44.7701" lon="0.73927">
        <ele>142</ele>
        <time>2012-05-13T06:27:31Z</time>
      </trkpt>
      <trkpt lat="44.7701" lon="0.73917">
        <ele>142</ele>
        <time>2012-05-13T06:27:37Z</time>
      </trkpt>
      <trkpt lat="44.7701" lon="0.73908">
        <ele>142</ele>
        <time>2012-05-13T06:27:43Z</time>
      </trkpt>
      <trkpt lat="44.77014" lon="0.73903">
        <ele>142</ele>
        <time>2012-05-13T06:27:48Z</time>
      </trkpt>
      <trkpt lat="44.77022" lon="0.73907">
        <ele>143</ele>
        <time>2012-05-13T06:27:53Z</time>
      </trkpt>
      <trkpt lat="44.77038" lon="0.73913">
        <ele>143</ele>
        <time>2012-05-13T06:27:58Z</time>
      </trkpt>
      <trkpt lat="44.77053" lon="0.7392">
        <ele>144</ele>
        <time>2012-05-13T06:28:03Z</time>
      </trkpt>
      <trkpt lat="44.77068" lon="0.73929">
        <ele>146</ele>
        <time>2012-05-13T06:28:08Z</time>
      </trkpt>
      <trkpt lat="44.77084" lon="0.73934">
        <ele>148</ele>
        <time>2012-05-13T06:28:13Z</time>
      </trkpt>
      <trkpt lat="44.77099" lon="0.73936">
        <ele>150</ele>
        <time>2012-05-13T06:28:18Z</time>
      </trkpt>
      <trkpt lat="44.77114" lon="0.73946">
        <ele>150</ele>
        <time>2012-05-13T06:28:23Z</time>
      </trkpt>
      <trkpt lat="44.77133" lon="0.73949">
        <ele>153</ele>
        <time>2012-05-13T06:28:28Z</time>
      </trkpt>
      <trkpt lat="44.77153" lon="0.73954">
        <ele>155</ele>
        <time>2012-05-13T06:28:33Z</time>
      </trkpt>
      <trkpt lat="44.77176" lon="0.73964">
        <ele>156</ele>
        <time>2012-05-13T06:28:38Z</time>
      </trkpt>
      <trkpt lat="44.77208" lon="0.73967">
        <ele>156</ele>
        <time>2012-05-13T06:28:43Z</time>
      </trkpt>
      <trkpt lat="44.77236" lon="0.73975">
        <ele>156</ele>
        <time>2012-05-13T06:28:48Z</time>
      </trkpt>
      <trkpt lat="44.77253" lon="0.73983">
        <ele>151</ele>
        <time>2012-05-13T06:28:53Z</time>
      </trkpt>
      <trkpt lat="44.77263" lon="0.74013">
        <ele>146</ele>
        <time>2012-05-13T06:28:58Z</time>
      </trkpt>
      <trkpt lat="44.77279" lon="0.74049">
        <ele>143</ele>
        <time>2012-05-13T06:29:03Z</time>
      </trkpt>
      <trkpt lat="44.7729" lon="0.74082">
        <ele>143</ele>
        <time>2012-05-13T06:29:08Z</time>
      </trkpt>
      <trkpt lat="44.77302" lon="0.74111">
        <ele>141</ele>
        <time>2012-05-13T06:29:13Z</time>
      </trkpt>
      <trkpt lat="44.77312" lon="0.7413">
        <ele>137</ele>
        <time>2012-05-13T06:29:18Z</time>
      </trkpt>
      <trkpt lat="44.77325" lon="0.74151">
        <ele>132</ele>
        <time>2012-05-13T06:29:23Z</time>
      </trkpt>
      <trkpt lat="44.77348" lon="0.74168">
        <ele>127</ele>
        <time>2012-05-13T06:29:28Z</time>
      </trkpt>
      <trkpt lat="44.77373" lon="0.74172">
        <ele>120</ele>
        <time>2012-05-13T06:29:33Z</time>
      </trkpt>
      <trkpt lat="44.77396" lon="0.74169">
        <ele>115</ele>
        <time>2012-05-13T06:29:38Z</time>
      </trkpt>
      <trkpt lat="44.7742" lon="0.74167">
        <ele>110</ele>
        <time>2012-05-13T06:29:43Z</time>
      </trkpt>
      <trkpt lat="44.77438" lon="0.74166">
        <ele>110</ele>
        <time>2012-05-13T06:29:48Z</time>
      </trkpt>
      <trkpt lat="44.77446" lon="0.7418">
        <ele>110</ele>
        <time>2012-05-13T06:29:53Z</time>
      </trkpt>
      <trkpt lat="44.77442" lon="0.74205">
        <ele>110</ele>
        <time>2012-05-13T06:29:58Z</time>
      </trkpt>
      <trkpt lat="44.7744" lon="0.74234">
        <ele>110</ele>
        <time>2012-05-13T06:30:03Z</time>
      </trkpt>
      <trkpt lat="44.77439" lon="0.74264">
        <ele>113</ele>
        <time>2012-05-13T06:30:08Z</time>
      </trkpt>
      <trkpt lat="44.77437" lon="0.74291">
        <ele>116</ele>
        <time>2012-05-13T06:30:13Z</time>
      </trkpt>
      <trkpt lat="44.77434" lon="0.74316">
        <ele>117</ele>
        <time>2012-05-13T06:30:18Z</time>
      </trkpt>
      <trkpt lat="44.77434" lon="0.74344">
        <ele>119</ele>
        <time>2012-05-13T06:30:23Z</time>
      </trkpt>
      <trkpt lat="44.77432" lon="0.74374">
        <ele>121</ele>
        <time>2012-05-13T06:30:28Z</time>
      </trkpt>
      <trkpt lat="44.7743" lon="0.74403">
        <ele>122</ele>
        <time>2012-05-13T06:30:33Z</time>
      </trkpt>
      <trkpt lat="44.77429" lon="0.74433">
        <ele>122</ele>
        <time>2012-05-13T06:30:38Z</time>
      </trkpt>
      <trkpt lat="44.77428" lon="0.74465">
        <ele>123</ele>
        <time>2012-05-13T06:30:43Z</time>
      </trkpt>
      <trkpt lat="44.77439" lon="0.74496">
        <ele>123</ele>
        <time>2012-05-13T06:30:48Z</time>
      </trkpt>
      <trkpt lat="44.7745" lon="0.74524">
        <ele>122</ele>
        <time>2012-05-13T06:30:53Z</time>
      </trkpt>
      <trkpt lat="44.77457" lon="0.74556">
        <ele>119</ele>
        <time>2012-05-13T06:30:58Z</time>
      </trkpt>
      <trkpt lat="44.7746" lon="0.74583">
        <ele>116</ele>
        <time>2012-05-13T06:31:03Z</time>
      </trkpt>
      <trkpt lat="44.77462" lon="0.74616">
        <ele>113</ele>
        <time>2012-05-13T06:31:08Z</time>
      </trkpt>
      <trkpt lat="44.77463" lon="0.74669">
        <ele>108</ele>
        <time>2012-05-13T06:31:13Z</time>
      </trkpt>
      <trkpt lat="44.77466" lon="0.74727">
        <ele>103</ele>
        <time>2012-05-13T06:31:18Z</time>
      </trkpt>
      <trkpt lat="44.77485" lon="0.74769">
        <ele>98</ele>
        <time>2012-05-13T06:31:23Z</time>
      </trkpt>
      <trkpt lat="44.77513" lon="0.74794">
        <ele>97</ele>
        <time>2012-05-13T06:31:28Z</time>
      </trkpt>
      <trkpt lat="44.77537" lon="0.74815">
        <ele>97</ele>
        <time>2012-05-13T06:31:33Z</time>
      </trkpt>
      <trkpt lat="44.77558" lon="0.74841">
        <ele>99</ele>
        <time>2012-05-13T06:31:38Z</time>
      </trkpt>
      <trkpt lat="44.77576" lon="0.74873">
        <ele>99</ele>
        <time>2012-05-13T06:31:43Z</time>
      </trkpt>
      <trkpt lat="44.77594" lon="0.74911">
        <ele>100</ele>
        <time>2012-05-13T06:31:48Z</time>
      </trkpt>
      <trkpt lat="44.77616" lon="0.74957">
        <ele>100</ele>
        <time>2012-05-13T06:31:53Z</time>
      </trkpt>
      <trkpt lat="44.77631" lon="0.75012">
        <ele>100</ele>
        <time>2012-05-13T06:31:58Z</time>
      </trkpt>
      <trkpt lat="44.77636" lon="0.75061">
        <ele>97</ele>
        <time>2012-05-13T06:32:03Z</time>
      </trkpt>
      <trkpt lat="44.77656" lon="0.75067">
        <ele>93</ele>
        <time>2012-05-13T06:32:08Z</time>
      </trkpt>
      <trkpt lat="44.77674" lon="0.75058">
        <ele>93</ele>
        <time>2012-05-13T06:32:13Z</time>
      </trkpt>
      <trkpt lat="44.77686" lon="0.75036">
        <ele>93</ele>
        <time>2012-05-13T06:32:18Z</time>
      </trkpt>
      <trkpt lat="44.77697" lon="0.75011">
        <ele>93</ele>
        <time>2012-05-13T06:32:23Z</time>
      </trkpt>
      <trkpt lat="44.77709" lon="0.74983">
        <ele>93</ele>
        <time>2012-05-13T06:32:28Z</time>
      </trkpt>
      <trkpt lat="44.77723" lon="0.7495">
        <ele>93</ele>
        <time>2012-05-13T06:32:33Z</time>
      </trkpt>
      <trkpt lat="44.77734" lon="0.74921">
        <ele>93</ele>
        <time>2012-05-13T06:32:38Z</time>
      </trkpt>
      <trkpt lat="44.77746" lon="0.74898">
        <ele>93</ele>
        <time>2012-05-13T06:32:43Z</time>
      </trkpt>
      <trkpt lat="44.77759" lon="0.74886">
        <ele>97</ele>
        <time>2012-05-13T06:32:48Z</time>
      </trkpt>
      <trkpt lat="44.77765" lon="0.74884">
        <ele>98</ele>
        <time>2012-05-13T06:32:56Z</time>
      </trkpt>
      <trkpt lat="44.77764" lon="0.74884">
        <ele>98</ele>
        <time>2012-05-13T06:33:04Z</time>
      </trkpt>
      <trkpt lat="44.77763" lon="0.74884">
        <ele>99</ele>
        <time>2012-05-13T06:33:11Z</time>
      </trkpt>
      <trkpt lat="44.77761" lon="0.74884">
        <ele>101</ele>
        <time>2012-05-13T06:33:21Z</time>
      </trkpt>
      <trkpt lat="44.7776" lon="0.74884">
        <ele>104</ele>
        <time>2012-05-13T06:33:47Z</time>
      </trkpt>
      <trkpt lat="44.7776" lon="0.74886">
        <ele>105</ele>
        <time>2012-05-13T06:34:02Z</time>
      </trkpt>
      <trkpt lat="44.77769" lon="0.74892">
        <ele>105</ele>
        <time>2012-05-13T06:34:07Z</time>
      </trkpt>
      <trkpt lat="44.77786" lon="0.74889">
        <ele>105</ele>
        <time>2012-05-13T06:34:12Z</time>
      </trkpt>
      <trkpt lat="44.77803" lon="0.74884">
        <ele>105</ele>
        <time>2012-05-13T06:34:17Z</time>
      </trkpt>
      <trkpt lat="44.77818" lon="0.74869">
        <ele>102</ele>
        <time>2012-05-13T06:34:22Z</time>
      </trkpt>
      <trkpt lat="44.77836" lon="0.74857">
        <ele>99</ele>
        <time>2012-05-13T06:34:27Z</time>
      </trkpt>
      <trkpt lat="44.77856" lon="0.74846">
        <ele>95</ele>
        <time>2012-05-13T06:34:32Z</time>
      </trkpt>
      <trkpt lat="44.77877" lon="0.74836">
        <ele>93</ele>
        <time>2012-05-13T06:34:37Z</time>
      </trkpt>
      <trkpt lat="44.77897" lon="0.74826">
        <ele>93</ele>
        <time>2012-05-13T06:34:42Z</time>
      </trkpt>
      <trkpt lat="44.77916" lon="0.74813">
        <ele>91</ele>
        <time>2012-05-13T06:34:47Z</time>
      </trkpt>
      <trkpt lat="44.77923" lon="0.74792">
        <ele>91</ele>
        <time>2012-05-13T06:34:52Z</time>
      </trkpt>
      <trkpt lat="44.77925" lon="0.74765">
        <ele>91</ele>
        <time>2012-05-13T06:34:57Z</time>
      </trkpt>
      <trkpt lat="44.77928" lon="0.74734">
        <ele>91</ele>
        <time>2012-05-13T06:35:02Z</time>
      </trkpt>
      <trkpt lat="44.77932" lon="0.74696">
        <ele>91</ele>
        <time>2012-05-13T06:35:07Z</time>
      </trkpt>
      <trkpt lat="44.77942" lon="0.74655">
        <ele>91</ele>
        <time>2012-05-13T06:35:12Z</time>
      </trkpt>
      <trkpt lat="44.77965" lon="0.74617">
        <ele>91</ele>
        <time>2012-05-13T06:35:17Z</time>
      </trkpt>
      <trkpt lat="44.77997" lon="0.74573">
        <ele>91</ele>
        <time>2012-05-13T06:35:22Z</time>
      </trkpt>
      <trkpt lat="44.78035" lon="0.74522">
        <ele>87</ele>
        <time>2012-05-13T06:35:27Z</time>
      </trkpt>
      <trkpt lat="44.78082" lon="0.74479">
        <ele>82</ele>
        <time>2012-05-13T06:35:32Z</time>
      </trkpt>
      <trkpt lat="44.78096" lon="0.74433">
        <ele>77</ele>
        <time>2012-05-13T06:35:37Z</time>
      </trkpt>
      <trkpt lat="44.78086" lon="0.74391">
        <ele>77</ele>
        <time>2012-05-13T06:35:42Z</time>
      </trkpt>
      <trkpt lat="44.7808" lon="0.74354">
        <ele>77</ele>
        <time>2012-05-13T06:35:47Z</time>
      </trkpt>
      <trkpt lat="44.78078" lon="0.74322">
        <ele>77</ele>
        <time>2012-05-13T06:35:52Z</time>
      </trkpt>
      <trkpt lat="44.78082" lon="0.74296">
        <ele>78</ele>
        <time>2012-05-13T06:35:57Z</time>
      </trkpt>
      <trkpt lat="44.78089" lon="0.74275">
        <ele>81</ele>
        <time>2012-05-13T06:36:02Z</time>
      </trkpt>
      <trkpt lat="44.78096" lon="0.74257">
        <ele>84</ele>
        <time>2012-05-13T06:36:07Z</time>
      </trkpt>
      <trkpt lat="44.78106" lon="0.7424">
        <ele>85</ele>
        <time>2012-05-13T06:36:12Z</time>
      </trkpt>
      <trkpt lat="44.78114" lon="0.74226">
        <ele>87</ele>
        <time>2012-05-13T06:36:17Z</time>
      </trkpt>
      <trkpt lat="44.78123" lon="0.74212">
        <ele>90</ele>
        <time>2012-05-13T06:36:22Z</time>
      </trkpt>
      <trkpt lat="44.78131" lon="0.74198">
        <ele>91</ele>
        <time>2012-05-13T06:36:27Z</time>
      </trkpt>
      <trkpt lat="44.78139" lon="0.74186">
        <ele>94</ele>
        <time>2012-05-13T06:36:33Z</time>
      </trkpt>
      <trkpt lat="44.78148" lon="0.7417">
        <ele>96</ele>
        <time>2012-05-13T06:36:38Z</time>
      </trkpt>
      <trkpt lat="44.78157" lon="0.74156">
        <ele>97</ele>
        <time>2012-05-13T06:36:43Z</time>
      </trkpt>
      <trkpt lat="44.78165" lon="0.74142">
        <ele>98</ele>
        <time>2012-05-13T06:36:48Z</time>
      </trkpt>
      <trkpt lat="44.78172" lon="0.74129">
        <ele>99</ele>
        <time>2012-05-13T06:36:53Z</time>
      </trkpt>
      <trkpt lat="44.78181" lon="0.74116">
        <ele>100</ele>
        <time>2012-05-13T06:36:58Z</time>
      </trkpt>
      <trkpt lat="44.78188" lon="0.74103">
        <ele>101</ele>
        <time>2012-05-13T06:37:03Z</time>
      </trkpt>
      <trkpt lat="44.78195" lon="0.74091">
        <ele>103</ele>
        <time>2012-05-13T06:37:08Z</time>
      </trkpt>
      <trkpt lat="44.782" lon="0.74078">
        <ele>104</ele>
        <time>2012-05-13T06:37:13Z</time>
      </trkpt>
      <trkpt lat="44.78205" lon="0.74067">
        <ele>106</ele>
        <time>2012-05-13T06:37:18Z</time>
      </trkpt>
      <trkpt lat="44.7821" lon="0.74053">
        <ele>108</ele>
        <time>2012-05-13T06:37:23Z</time>
      </trkpt>
      <trkpt lat="44.78214" lon="0.74039">
        <ele>110</ele>
        <time>2012-05-13T06:37:28Z</time>
      </trkpt>
      <trkpt lat="44.78218" lon="0.74024">
        <ele>111</ele>
        <time>2012-05-13T06:37:33Z</time>
      </trkpt>
      <trkpt lat="44.78223" lon="0.74011">
        <ele>112</ele>
        <time>2012-05-13T06:37:38Z</time>
      </trkpt>
      <trkpt lat="44.78228" lon="0.73996">
        <ele>114</ele>
        <time>2012-05-13T06:37:43Z</time>
      </trkpt>
      <trkpt lat="44.78232" lon="0.73982">
        <ele>114</ele>
        <time>2012-05-13T06:37:48Z</time>
      </trkpt>
      <trkpt lat="44.78235" lon="0.73966">
        <ele>114</ele>
        <time>2012-05-13T06:37:53Z</time>
      </trkpt>
      <trkpt lat="44.78238" lon="0.7395">
        <ele>114</ele>
        <time>2012-05-13T06:37:58Z</time>
      </trkpt>
      <trkpt lat="44.78241" lon="0.73934">
        <ele>114</ele>
        <time>2012-05-13T06:38:03Z</time>
      </trkpt>
      <trkpt lat="44.78245" lon="0.73919">
        <ele>114</ele>
        <time>2012-05-13T06:38:08Z</time>
      </trkpt>
      <trkpt lat="44.78247" lon="0.73904">
        <ele>114</ele>
        <time>2012-05-13T06:38:13Z</time>
      </trkpt>
      <trkpt lat="44.78251" lon="0.7389">
        <ele>114</ele>
        <time>2012-05-13T06:38:18Z</time>
      </trkpt>
      <trkpt lat="44.78254" lon="0.73872">
        <ele>114</ele>
        <time>2012-05-13T06:38:23Z</time>
      </trkpt>
      <trkpt lat="44.78257" lon="0.73853">
        <ele>114</ele>
        <time>2012-05-13T06:38:28Z</time>
      </trkpt>
      <trkpt lat="44.78261" lon="0.73829">
        <ele>114</ele>
        <time>2012-05-13T06:38:33Z</time>
      </trkpt>
      <trkpt lat="44.78265" lon="0.73799">
        <ele>114</ele>
        <time>2012-05-13T06:38:38Z</time>
      </trkpt>
      <trkpt lat="44.78268" lon="0.73765">
        <ele>115</ele>
        <time>2012-05-13T06:38:43Z</time>
      </trkpt>
      <trkpt lat="44.78266" lon="0.73725">
        <ele>115</ele>
        <time>2012-05-13T06:38:48Z</time>
      </trkpt>
      <trkpt lat="44.78254" lon="0.7368">
        <ele>113</ele>
        <time>2012-05-13T06:38:53Z</time>
      </trkpt>
      <trkpt lat="44.78235" lon="0.73631">
        <ele>112</ele>
        <time>2012-05-13T06:38:58Z</time>
      </trkpt>
      <trkpt lat="44.78219" lon="0.73582">
        <ele>112</ele>
        <time>2012-05-13T06:39:03Z</time>
      </trkpt>
      <trkpt lat="44.78197" lon="0.73537">
        <ele>111</ele>
        <time>2012-05-13T06:39:08Z</time>
      </trkpt>
      <trkpt lat="44.78166" lon="0.73498">
        <ele>111</ele>
        <time>2012-05-13T06:39:13Z</time>
      </trkpt>
      <trkpt lat="44.78132" lon="0.73457">
        <ele>111</ele>
        <time>2012-05-13T06:39:18Z</time>
      </trkpt>
      <trkpt lat="44.78094" lon="0.73415">
        <ele>111</ele>
        <time>2012-05-13T06:39:23Z</time>
      </trkpt>
      <trkpt lat="44.78064" lon="0.73378">
        <ele>109</ele>
        <time>2012-05-13T06:39:28Z</time>
      </trkpt>
      <trkpt lat="44.78054" lon="0.7335">
        <ele>106</ele>
        <time>2012-05-13T06:39:33Z</time>
      </trkpt>
      <trkpt lat="44.78045" lon="0.7332">
        <ele>105</ele>
        <time>2012-05-13T06:39:38Z</time>
      </trkpt>
      <trkpt lat="44.78051" lon="0.73307">
        <ele>104</ele>
        <time>2012-05-13T06:39:43Z</time>
      </trkpt>
      <trkpt lat="44.78072" lon="0.73314">
        <ele>102</ele>
        <time>2012-05-13T06:39:48Z</time>
      </trkpt>
      <trkpt lat="44.78095" lon="0.73324">
        <ele>102</ele>
        <time>2012-05-13T06:39:53Z</time>
      </trkpt>
      <trkpt lat="44.78119" lon="0.73334">
        <ele>102</ele>
        <time>2012-05-13T06:39:58Z</time>
      </trkpt>
      <trkpt lat="44.78139" lon="0.73347">
        <ele>103</ele>
        <time>2012-05-13T06:40:03Z</time>
      </trkpt>
      <trkpt lat="44.78157" lon="0.73351">
        <ele>105</ele>
        <time>2012-05-13T06:40:08Z</time>
      </trkpt>
      <trkpt lat="44.78172" lon="0.73349">
        <ele>107</ele>
        <time>2012-05-13T06:40:13Z</time>
      </trkpt>
      <trkpt lat="44.78183" lon="0.73346">
        <ele>108</ele>
        <time>2012-05-13T06:40:18Z</time>
      </trkpt>
      <trkpt lat="44.78193" lon="0.73344">
        <ele>108</ele>
        <time>2012-05-13T06:40:23Z</time>
      </trkpt>
      <trkpt lat="44.78203" lon="0.73343">
        <ele>108</ele>
        <time>2012-05-13T06:40:28Z</time>
      </trkpt>
      <trkpt lat="44.78215" lon="0.73342">
        <ele>108</ele>
        <time>2012-05-13T06:40:33Z</time>
      </trkpt>
      <trkpt lat="44.78225" lon="0.73346">
        <ele>108</ele>
        <time>2012-05-13T06:40:38Z</time>
      </trkpt>
      <trkpt lat="44.78234" lon="0.7335">
        <ele>110</ele>
        <time>2012-05-13T06:40:43Z</time>
      </trkpt>
      <trkpt lat="44.78245" lon="0.73355">
        <ele>112</ele>
        <time>2012-05-13T06:40:48Z</time>
      </trkpt>
      <trkpt lat="44.78256" lon="0.73357">
        <ele>114</ele>
        <time>2012-05-13T06:40:53Z</time>
      </trkpt>
      <trkpt lat="44.78269" lon="0.73361">
        <ele>115</ele>
        <time>2012-05-13T06:40:58Z</time>
      </trkpt>
      <trkpt lat="44.78281" lon="0.73366">
        <ele>116</ele>
        <time>2012-05-13T06:41:03Z</time>
      </trkpt>
      <trkpt lat="44.7829" lon="0.73371">
        <ele>116</ele>
        <time>2012-05-13T06:41:08Z</time>
      </trkpt>
      <trkpt lat="44.78299" lon="0.73378">
        <ele>116</ele>
        <time>2012-05-13T06:41:13Z</time>
      </trkpt>
      <trkpt lat="44.78309" lon="0.73384">
        <ele>116</ele>
        <time>2012-05-13T06:41:18Z</time>
      </trkpt>
      <trkpt lat="44.78318" lon="0.73391">
        <ele>116</ele>
        <time>2012-05-13T06:41:23Z</time>
      </trkpt>
      <trkpt lat="44.78326" lon="0.73398">
        <ele>116</ele>
        <time>2012-05-13T06:41:28Z</time>
      </trkpt>
      <trkpt lat="44.78338" lon="0.73404">
        <ele>118</ele>
        <time>2012-05-13T06:41:33Z</time>
      </trkpt>
      <trkpt lat="44.78348" lon="0.7341">
        <ele>120</ele>
        <time>2012-05-13T06:41:38Z</time>
      </trkpt>
      <trkpt lat="44.78362" lon="0.73417">
        <ele>123</ele>
        <time>2012-05-13T06:41:43Z</time>
      </trkpt>
      <trkpt lat="44.78376" lon="0.73424">
        <ele>125</ele>
        <time>2012-05-13T06:41:48Z</time>
      </trkpt>
      <trkpt lat="44.78386" lon="0.73427">
        <ele>127</ele>
        <time>2012-05-13T06:41:53Z</time>
      </trkpt>
      <trkpt lat="44.78398" lon="0.73429">
        <ele>127</ele>
        <time>2012-05-13T06:41:58Z</time>
      </trkpt>
      <trkpt lat="44.7841" lon="0.73427">
        <ele>127</ele>
        <time>2012-05-13T06:42:03Z</time>
      </trkpt>
      <trkpt lat="44.78426" lon="0.73426">
        <ele>127</ele>
        <time>2012-05-13T06:42:08Z</time>
      </trkpt>
      <trkpt lat="44.7844" lon="0.73427">
        <ele>127</ele>
        <time>2012-05-13T06:42:13Z</time>
      </trkpt>
      <trkpt lat="44.78455" lon="0.73434">
        <ele>127</ele>
        <time>2012-05-13T06:42:18Z</time>
      </trkpt>
      <trkpt lat="44.78465" lon="0.7344">
        <ele>127</ele>
        <time>2012-05-13T06:42:23Z</time>
      </trkpt>
      <trkpt lat="44.78474" lon="0.73447">
        <ele>129</ele>
        <time>2012-05-13T06:42:28Z</time>
      </trkpt>
      <trkpt lat="44.78484" lon="0.7345">
        <ele>133</ele>
        <time>2012-05-13T06:42:33Z</time>
      </trkpt>
      <trkpt lat="44.78492" lon="0.73456">
        <ele>137</ele>
        <time>2012-05-13T06:42:38Z</time>
      </trkpt>
      <trkpt lat="44.78501" lon="0.73461">
        <ele>139</ele>
        <time>2012-05-13T06:42:43Z</time>
      </trkpt>
      <trkpt lat="44.7851" lon="0.73467">
        <ele>141</ele>
        <time>2012-05-13T06:42:48Z</time>
      </trkpt>
      <trkpt lat="44.7852" lon="0.73477">
        <ele>142</ele>
        <time>2012-05-13T06:42:53Z</time>
      </trkpt>
      <trkpt lat="44.78536" lon="0.73487">
        <ele>144</ele>
        <time>2012-05-13T06:42:58Z</time>
      </trkpt>
      <trkpt lat="44.78555" lon="0.73497">
        <ele>144</ele>
        <time>2012-05-13T06:43:03Z</time>
      </trkpt>
      <trkpt lat="44.78567" lon="0.73523">
        <ele>144</ele>
        <time>2012-05-13T06:43:08Z</time>
      </trkpt>
      <trkpt lat="44.78578" lon="0.73553">
        <ele>141</ele>
        <time>2012-05-13T06:43:13Z</time>
      </trkpt>
      <trkpt lat="44.78585" lon="0.73582">
        <ele>137</ele>
        <time>2012-05-13T06:43:18Z</time>
      </trkpt>
      <trkpt lat="44.78596" lon="0.73604">
        <ele>137</ele>
        <time>2012-05-13T06:43:23Z</time>
      </trkpt>
      <trkpt lat="44.78606" lon="0.73613">
        <ele>137</ele>
        <time>2012-05-13T06:43:28Z</time>
      </trkpt>
      <trkpt lat="44.78614" lon="0.73622">
        <ele>137</ele>
        <time>2012-05-13T06:43:33Z</time>
      </trkpt>
      <trkpt lat="44.78623" lon="0.73628">
        <ele>137</ele>
        <time>2012-05-13T06:43:38Z</time>
      </trkpt>
      <trkpt lat="44.78633" lon="0.73631">
        <ele>137</ele>
        <time>2012-05-13T06:43:43Z</time>
      </trkpt>
      <trkpt lat="44.78642" lon="0.73635">
        <ele>136</ele>
        <time>2012-05-13T06:43:48Z</time>
      </trkpt>
      <trkpt lat="44.78651" lon="0.73642">
        <ele>136</ele>
        <time>2012-05-13T06:43:53Z</time>
      </trkpt>
      <trkpt lat="44.7866" lon="0.73649">
        <ele>136</ele>
        <time>2012-05-13T06:43:58Z</time>
      </trkpt>
      <trkpt lat="44.78669" lon="0.73655">
        <ele>136</ele>
        <time>2012-05-13T06:44:03Z</time>
      </trkpt>
      <trkpt lat="44.78677" lon="0.73663">
        <ele>136</ele>
        <time>2012-05-13T06:44:08Z</time>
      </trkpt>
      <trkpt lat="44.78685" lon="0.7367">
        <ele>136</ele>
        <time>2012-05-13T06:44:13Z</time>
      </trkpt>
      <trkpt lat="44.78691" lon="0.73679">
        <ele>136</ele>
        <time>2012-05-13T06:44:18Z</time>
      </trkpt>
      <trkpt lat="44.78698" lon="0.73688">
        <ele>139</ele>
        <time>2012-05-13T06:44:23Z</time>
      </trkpt>
      <trkpt lat="44.78711" lon="0.73694">
        <ele>141</ele>
        <time>2012-05-13T06:44:28Z</time>
      </trkpt>
      <trkpt lat="44.78723" lon="0.73703">
        <ele>143</ele>
        <time>2012-05-13T06:44:33Z</time>
      </trkpt>
      <trkpt lat="44.78734" lon="0.73716">
        <ele>145</ele>
        <time>2012-05-13T06:44:38Z</time>
      </trkpt>
      <trkpt lat="44.78751" lon="0.73725">
        <ele>148</ele>
        <time>2012-05-13T06:44:43Z</time>
      </trkpt>
      <trkpt lat="44.7877" lon="0.73734">
        <ele>150</ele>
        <time>2012-05-13T06:44:48Z</time>
      </trkpt>
      <trkpt lat="44.78783" lon="0.73757">
        <ele>152</ele>
        <time>2012-05-13T06:44:53Z</time>
      </trkpt>
      <trkpt lat="44.78799" lon="0.73781">
        <ele>154</ele>
        <time>2012-05-13T06:44:58Z</time>
      </trkpt>
      <trkpt lat="44.78809" lon="0.73821">
        <ele>155</ele>
        <time>2012-05-13T06:45:03Z</time>
      </trkpt>
      <trkpt lat="44.78817" lon="0.73855">
        <ele>155</ele>
        <time>2012-05-13T06:45:08Z</time>
      </trkpt>
      <trkpt lat="44.78844" lon="0.73869">
        <ele>154</ele>
        <time>2012-05-13T06:45:13Z</time>
      </trkpt>
      <trkpt lat="44.78874" lon="0.73863">
        <ele>153</ele>
        <time>2012-05-13T06:45:18Z</time>
      </trkpt>
      <trkpt lat="44.78904" lon="0.73843">
        <ele>149</ele>
        <time>2012-05-13T06:45:23Z</time>
      </trkpt>
      <trkpt lat="44.78931" lon="0.73818">
        <ele>144</ele>
        <time>2012-05-13T06:45:28Z</time>
      </trkpt>
      <trkpt lat="44.78954" lon="0.7379">
        <ele>141</ele>
        <time>2012-05-13T06:45:33Z</time>
      </trkpt>
      <trkpt lat="44.78974" lon="0.73782">
        <ele>140</ele>
        <time>2012-05-13T06:45:38Z</time>
      </trkpt>
      <trkpt lat="44.79003" lon="0.73804">
        <ele>140</ele>
        <time>2012-05-13T06:45:43Z</time>
      </trkpt>
      <trkpt lat="44.79036" lon="0.73817">
        <ele>140</ele>
        <time>2012-05-13T06:45:48Z</time>
      </trkpt>
      <trkpt lat="44.79059" lon="0.73837">
        <ele>140</ele>
        <time>2012-05-13T06:45:53Z</time>
      </trkpt>
      <trkpt lat="44.79081" lon="0.73853">
        <ele>140</ele>
        <time>2012-05-13T06:45:58Z</time>
      </trkpt>
      <trkpt lat="44.79099" lon="0.73879">
        <ele>140</ele>
        <time>2012-05-13T06:46:03Z</time>
      </trkpt>
      <trkpt lat="44.7911" lon="0.73915">
        <ele>137</ele>
        <time>2012-05-13T06:46:08Z</time>
      </trkpt>
      <trkpt lat="44.79125" lon="0.73932">
        <ele>135</ele>
        <time>2012-05-13T06:46:13Z</time>
      </trkpt>
      <trkpt lat="44.79147" lon="0.73915">
        <ele>134</ele>
        <time>2012-05-13T06:46:18Z</time>
      </trkpt>
      <trkpt lat="44.79163" lon="0.73882">
        <ele>134</ele>
        <time>2012-05-13T06:46:23Z</time>
      </trkpt>
      <trkpt lat="44.79174" lon="0.73841">
        <ele>132</ele>
        <time>2012-05-13T06:46:28Z</time>
      </trkpt>
      <trkpt lat="44.79188" lon="0.73801">
        <ele>129</ele>
        <time>2012-05-13T06:46:33Z</time>
      </trkpt>
      <trkpt lat="44.79215" lon="0.73771">
        <ele>127</ele>
        <time>2012-05-13T06:46:38Z</time>
      </trkpt>
      <trkpt lat="44.79248" lon="0.73756">
        <ele>124</ele>
        <time>2012-05-13T06:46:43Z</time>
      </trkpt>
      <trkpt lat="44.79277" lon="0.73761">
        <ele>119</ele>
        <time>2012-05-13T06:46:48Z</time>
      </trkpt>
      <trkpt lat="44.79306" lon="0.73759">
        <ele>117</ele>
        <time>2012-05-13T06:46:53Z</time>
      </trkpt>
      <trkpt lat="44.79344" lon="0.73773">
        <ele>114</ele>
        <time>2012-05-13T06:46:58Z</time>
      </trkpt>
      <trkpt lat="44.79368" lon="0.73778">
        <ele>111</ele>
        <time>2012-05-13T06:47:03Z</time>
      </trkpt>
      <trkpt lat="44.79355" lon="0.73796">
        <ele>110</ele>
        <time>2012-05-13T06:47:08Z</time>
      </trkpt>
      <trkpt lat="44.79328" lon="0.73826">
        <ele>109</ele>
        <time>2012-05-13T06:47:13Z</time>
      </trkpt>
      <trkpt lat="44.79314" lon="0.73872">
        <ele>109</ele>
        <time>2012-05-13T06:47:18Z</time>
      </trkpt>
      <trkpt lat="44.79322" lon="0.73915">
        <ele>111</ele>
        <time>2012-05-13T06:47:23Z</time>
      </trkpt>
      <trkpt lat="44.79326" lon="0.73952">
        <ele>112</ele>
        <time>2012-05-13T06:47:28Z</time>
      </trkpt>
      <trkpt lat="44.79331" lon="0.73982">
        <ele>112</ele>
        <time>2012-05-13T06:47:33Z</time>
      </trkpt>
      <trkpt lat="44.79334" lon="0.74009">
        <ele>112</ele>
        <time>2012-05-13T06:47:38Z</time>
      </trkpt>
      <trkpt lat="44.7934" lon="0.74034">
        <ele>115</ele>
        <time>2012-05-13T06:47:43Z</time>
      </trkpt>
      <trkpt lat="44.79348" lon="0.74063">
        <ele>115</ele>
        <time>2012-05-13T06:47:48Z</time>
      </trkpt>
      <trkpt lat="44.79358" lon="0.74101">
        <ele>115</ele>
        <time>2012-05-13T06:47:53Z</time>
      </trkpt>
      <trkpt lat="44.79364" lon="0.74156">
        <ele>111</ele>
        <time>2012-05-13T06:47:58Z</time>
      </trkpt>
      <trkpt lat="44.79374" lon="0.74212">
        <ele>108</ele>
        <time>2012-05-13T06:48:03Z</time>
      </trkpt>
      <trkpt lat="44.79383" lon="0.74262">
        <ele>106</ele>
        <time>2012-05-13T06:48:08Z</time>
      </trkpt>
      <trkpt lat="44.7939" lon="0.74315">
        <ele>105</ele>
        <time>2012-05-13T06:48:13Z</time>
      </trkpt>
      <trkpt lat="44.79396" lon="0.7437">
        <ele>103</ele>
        <time>2012-05-13T06:48:18Z</time>
      </trkpt>
      <trkpt lat="44.79397" lon="0.74395">
        <ele>100</ele>
        <time>2012-05-13T06:48:23Z</time>
      </trkpt>
      <trkpt lat="44.7941" lon="0.74378">
        <ele>97</ele>
        <time>2012-05-13T06:48:28Z</time>
      </trkpt>
      <trkpt lat="44.79427" lon="0.74352">
        <ele>92</ele>
        <time>2012-05-13T06:48:33Z</time>
      </trkpt>
      <trkpt lat="44.79448" lon="0.74324">
        <ele>87</ele>
        <time>2012-05-13T06:48:38Z</time>
      </trkpt>
      <trkpt lat="44.79466" lon="0.74291">
        <ele>82</ele>
        <time>2012-05-13T06:48:43Z</time>
      </trkpt>
      <trkpt lat="44.79483" lon="0.74241">
        <ele>77</ele>
        <time>2012-05-13T06:48:48Z</time>
      </trkpt>
      <trkpt lat="44.79485" lon="0.74184">
        <ele>73</ele>
        <time>2012-05-13T06:48:53Z</time>
      </trkpt>
      <trkpt lat="44.7949" lon="0.74126">
        <ele>69</ele>
        <time>2012-05-13T06:48:58Z</time>
      </trkpt>
      <trkpt lat="44.79499" lon="0.74067">
        <ele>65</ele>
        <time>2012-05-13T06:49:03Z</time>
      </trkpt>
      <trkpt lat="44.79509" lon="0.74008">
        <ele>61</ele>
        <time>2012-05-13T06:49:08Z</time>
      </trkpt>
      <trkpt lat="44.79518" lon="0.73955">
        <ele>57</ele>
        <time>2012-05-13T06:49:13Z</time>
      </trkpt>
      <trkpt lat="44.79532" lon="0.739">
        <ele>52</ele>
        <time>2012-05-13T06:49:18Z</time>
      </trkpt>
      <trkpt lat="44.79545" lon="0.73851">
        <ele>48</ele>
        <time>2012-05-13T06:49:23Z</time>
      </trkpt>
      <trkpt lat="44.79567" lon="0.73808">
        <ele>47</ele>
        <time>2012-05-13T06:49:28Z</time>
      </trkpt>
      <trkpt lat="44.79597" lon="0.73777">
        <ele>46</ele>
        <time>2012-05-13T06:49:33Z</time>
      </trkpt>
      <trkpt lat="44.79629" lon="0.73748">
        <ele>46</ele>
        <time>2012-05-13T06:49:38Z</time>
      </trkpt>
      <trkpt lat="44.79664" lon="0.73717">
        <ele>45</ele>
        <time>2012-05-13T06:49:43Z</time>
      </trkpt>
      <trkpt lat="44.79693" lon="0.7369">
        <ele>43</ele>
        <time>2012-05-13T06:49:48Z</time>
      </trkpt>
      <trkpt lat="44.79718" lon="0.73661">
        <ele>41</ele>
        <time>2012-05-13T06:49:53Z</time>
      </trkpt>
      <trkpt lat="44.79741" lon="0.73633">
        <ele>39</ele>
        <time>2012-05-13T06:49:58Z</time>
      </trkpt>
      <trkpt lat="44.79766" lon="0.73602">
        <ele>39</ele>
        <time>2012-05-13T06:50:03Z</time>
      </trkpt>
      <trkpt lat="44.79788" lon="0.73568">
        <ele>38</ele>
        <time>2012-05-13T06:50:08Z</time>
      </trkpt>
      <trkpt lat="44.79812" lon="0.73537">
        <ele>37</ele>
        <time>2012-05-13T06:50:13Z</time>
      </trkpt>
      <trkpt lat="44.79836" lon="0.73516">
        <ele>36</ele>
        <time>2012-05-13T06:50:18Z</time>
      </trkpt>
      <trkpt lat="44.79839" lon="0.73497">
        <ele>36</ele>
        <time>2012-05-13T06:50:23Z</time>
      </trkpt>
      <trkpt lat="44.79829" lon="0.73484">
        <ele>36</ele>
        <time>2012-05-13T06:50:28Z</time>
      </trkpt>
      <trkpt lat="44.79817" lon="0.73466">
        <ele>36</ele>
        <time>2012-05-13T06:50:33Z</time>
      </trkpt>
      <trkpt lat="44.79805" lon="0.73448">
        <ele>36</ele>
        <time>2012-05-13T06:50:38Z</time>
      </trkpt>
      <trkpt lat="44.79792" lon="0.73431">
        <ele>36</ele>
        <time>2012-05-13T06:50:43Z</time>
      </trkpt>
      <trkpt lat="44.79781" lon="0.73413">
        <ele>36</ele>
        <time>2012-05-13T06:50:48Z</time>
      </trkpt>
      <trkpt lat="44.79769" lon="0.73391">
        <ele>36</ele>
        <time>2012-05-13T06:50:53Z</time>
      </trkpt>
      <trkpt lat="44.79756" lon="0.73371">
        <ele>36</ele>
        <time>2012-05-13T06:50:58Z</time>
      </trkpt>
      <trkpt lat="44.79744" lon="0.73348">
        <ele>36</ele>
        <time>2012-05-13T06:51:03Z</time>
      </trkpt>
      <trkpt lat="44.79731" lon="0.73326">
        <ele>39</ele>
        <time>2012-05-13T06:51:08Z</time>
      </trkpt>
      <trkpt lat="44.79719" lon="0.73305">
        <ele>41</ele>
        <time>2012-05-13T06:51:13Z</time>
      </trkpt>
      <trkpt lat="44.7971" lon="0.73292">
        <ele>44</ele>
        <time>2012-05-13T06:51:18Z</time>
      </trkpt>
      <trkpt lat="44.79707" lon="0.73287">
        <ele>48</ele>
        <time>2012-05-13T06:51:24Z</time>
      </trkpt>
      <trkpt lat="44.79705" lon="0.73283">
        <ele>49</ele>
        <time>2012-05-13T06:51:30Z</time>
      </trkpt>
      <trkpt lat="44.79696" lon="0.73273">
        <ele>49</ele>
        <time>2012-05-13T06:51:35Z</time>
      </trkpt>
      <trkpt lat="44.79683" lon="0.7326">
        <ele>49</ele>
        <time>2012-05-13T06:51:40Z</time>
      </trkpt>
      <trkpt lat="44.79668" lon="0.73243">
        <ele>50</ele>
        <time>2012-05-13T06:51:45Z</time>
      </trkpt>
      <trkpt lat="44.79654" lon="0.73228">
        <ele>50</ele>
        <time>2012-05-13T06:51:50Z</time>
      </trkpt>
      <trkpt lat="44.7964" lon="0.73211">
        <ele>50</ele>
        <time>2012-05-13T06:51:55Z</time>
      </trkpt>
      <trkpt lat="44.79625" lon="0.73193">
        <ele>50</ele>
        <time>2012-05-13T06:52:00Z</time>
      </trkpt>
      <trkpt lat="44.79613" lon="0.73173">
        <ele>50</ele>
        <time>2012-05-13T06:52:05Z</time>
      </trkpt>
      <trkpt lat="44.79604" lon="0.73151">
        <ele>50</ele>
        <time>2012-05-13T06:52:10Z</time>
      </trkpt>
      <trkpt lat="44.79597" lon="0.73131">
        <ele>50</ele>
        <time>2012-05-13T06:52:15Z</time>
      </trkpt>
      <trkpt lat="44.79593" lon="0.73111">
        <ele>50</ele>
        <time>2012-05-13T06:52:20Z</time>
      </trkpt>
      <trkpt lat="44.79592" lon="0.73092">
        <ele>50</ele>
        <time>2012-05-13T06:52:25Z</time>
      </trkpt>
      <trkpt lat="44.79591" lon="0.73071">
        <ele>48</ele>
        <time>2012-05-13T06:52:30Z</time>
      </trkpt>
      <trkpt lat="44.79588" lon="0.73049">
        <ele>48</ele>
        <time>2012-05-13T06:52:35Z</time>
      </trkpt>
      <trkpt lat="44.79586" lon="0.73024">
        <ele>48</ele>
        <time>2012-05-13T06:52:40Z</time>
      </trkpt>
      <trkpt lat="44.79584" lon="0.73">
        <ele>48</ele>
        <time>2012-05-13T06:52:45Z</time>
      </trkpt>
      <trkpt lat="44.79583" lon="0.72978">
        <ele>48</ele>
        <time>2012-05-13T06:52:50Z</time>
      </trkpt>
      <trkpt lat="44.7958" lon="0.72959">
        <ele>48</ele>
        <time>2012-05-13T06:52:55Z</time>
      </trkpt>
      <trkpt lat="44.79573" lon="0.72935">
        <ele>48</ele>
        <time>2012-05-13T06:53:00Z</time>
      </trkpt>
      <trkpt lat="44.79565" lon="0.72908">
        <ele>48</ele>
        <time>2012-05-13T06:53:05Z</time>
      </trkpt>
      <trkpt lat="44.79556" lon="0.72883">
        <ele>50</ele>
        <time>2012-05-13T06:53:10Z</time>
      </trkpt>
      <trkpt lat="44.79549" lon="0.7286">
        <ele>52</ele>
        <time>2012-05-13T06:53:15Z</time>
      </trkpt>
      <trkpt lat="44.79543" lon="0.72836">
        <ele>52</ele>
        <time>2012-05-13T06:53:20Z</time>
      </trkpt>
      <trkpt lat="44.79534" lon="0.72814">
        <ele>53</ele>
        <time>2012-05-13T06:53:25Z</time>
      </trkpt>
      <trkpt lat="44.79527" lon="0.7279">
        <ele>56</ele>
        <time>2012-05-13T06:53:30Z</time>
      </trkpt>
      <trkpt lat="44.79523" lon="0.72766">
        <ele>59</ele>
        <time>2012-05-13T06:53:35Z</time>
      </trkpt>
      <trkpt lat="44.7952" lon="0.72746">
        <ele>61</ele>
        <time>2012-05-13T06:53:40Z</time>
      </trkpt>
      <trkpt lat="44.79519" lon="0.72725">
        <ele>62</ele>
        <time>2012-05-13T06:53:45Z</time>
      </trkpt>
      <trkpt lat="44.79519" lon="0.7271">
        <ele>62</ele>
        <time>2012-05-13T06:53:50Z</time>
      </trkpt>
      <trkpt lat="44.79517" lon="0.7269">
        <ele>61</ele>
        <time>2012-05-13T06:53:55Z</time>
      </trkpt>
      <trkpt lat="44.79516" lon="0.72668">
        <ele>61</ele>
        <time>2012-05-13T06:54:00Z</time>
      </trkpt>
      <trkpt lat="44.79515" lon="0.72653">
        <ele>61</ele>
        <time>2012-05-13T06:54:05Z</time>
      </trkpt>
      <trkpt lat="44.79511" lon="0.72631">
        <ele>62</ele>
        <time>2012-05-13T06:54:10Z</time>
      </trkpt>
      <trkpt lat="44.79512" lon="0.72611">
        <ele>66</ele>
        <time>2012-05-13T06:54:15Z</time>
      </trkpt>
      <trkpt lat="44.79515" lon="0.72586">
        <ele>66</ele>
        <time>2012-05-13T06:54:20Z</time>
      </trkpt>
      <trkpt lat="44.79521" lon="0.7256">
        <ele>66</ele>
        <time>2012-05-13T06:54:25Z</time>
      </trkpt>
      <trkpt lat="44.79532" lon="0.72532">
        <ele>65</ele>
        <time>2012-05-13T06:54:30Z</time>
      </trkpt>
      <trkpt lat="44.79539" lon="0.72505">
        <ele>62</ele>
        <time>2012-05-13T06:54:35Z</time>
      </trkpt>
      <trkpt lat="44.79535" lon="0.72474">
        <ele>58</ele>
        <time>2012-05-13T06:54:40Z</time>
      </trkpt>
      <trkpt lat="44.79529" lon="0.72448">
        <ele>56</ele>
        <time>2012-05-13T06:54:45Z</time>
      </trkpt>
      <trkpt lat="44.79523" lon="0.72423">
        <ele>56</ele>
        <time>2012-05-13T06:54:50Z</time>
      </trkpt>
      <trkpt lat="44.79517" lon="0.72401">
        <ele>61</ele>
        <time>2012-05-13T06:54:55Z</time>
      </trkpt>
      <trkpt lat="44.7951" lon="0.72376">
        <ele>64</ele>
        <time>2012-05-13T06:55:00Z</time>
      </trkpt>
      <trkpt lat="44.795" lon="0.72353">
        <ele>66</ele>
        <time>2012-05-13T06:55:05Z</time>
      </trkpt>
      <trkpt lat="44.79491" lon="0.72332">
        <ele>68</ele>
        <time>2012-05-13T06:55:10Z</time>
      </trkpt>
      <trkpt lat="44.79482" lon="0.72313">
        <ele>71</ele>
        <time>2012-05-13T06:55:15Z</time>
      </trkpt>
      <trkpt lat="44.79471" lon="0.72289">
        <ele>72</ele>
        <time>2012-05-13T06:55:20Z</time>
      </trkpt>
      <trkpt lat="44.79462" lon="0.72263">
        <ele>73</ele>
        <time>2012-05-13T06:55:25Z</time>
      </trkpt>
      <trkpt lat="44.79454" lon="0.7224">
        <ele>73</ele>
        <time>2012-05-13T06:55:30Z</time>
      </trkpt>
      <trkpt lat="44.79446" lon="0.72218">
        <ele>73</ele>
        <time>2012-05-13T06:55:35Z</time>
      </trkpt>
      <trkpt lat="44.79441" lon="0.722">
        <ele>75</ele>
        <time>2012-05-13T06:55:40Z</time>
      </trkpt>
      <trkpt lat="44.79435" lon="0.72195">
        <ele>80</ele>
        <time>2012-05-13T06:55:45Z</time>
      </trkpt>
      <trkpt lat="44.79431" lon="0.72205">
        <ele>85</ele>
        <time>2012-05-13T06:55:50Z</time>
      </trkpt>
      <trkpt lat="44.79425" lon="0.72215">
        <ele>90</ele>
        <time>2012-05-13T06:55:55Z</time>
      </trkpt>
      <trkpt lat="44.79419" lon="0.7223">
        <ele>90</ele>
        <time>2012-05-13T06:56:00Z</time>
      </trkpt>
      <trkpt lat="44.79413" lon="0.72236">
        <ele>90</ele>
        <time>2012-05-13T06:56:05Z</time>
      </trkpt>
      <trkpt lat="44.79405" lon="0.72229">
        <ele>91</ele>
        <time>2012-05-13T06:56:10Z</time>
      </trkpt>
      <trkpt lat="44.79393" lon="0.72227">
        <ele>93</ele>
        <time>2012-05-13T06:56:15Z</time>
      </trkpt>
      <trkpt lat="44.79381" lon="0.7223">
        <ele>97</ele>
        <time>2012-05-13T06:56:20Z</time>
      </trkpt>
      <trkpt lat="44.79368" lon="0.72228">
        <ele>97</ele>
        <time>2012-05-13T06:56:25Z</time>
      </trkpt>
      <trkpt lat="44.7936" lon="0.72222">
        <ele>97</ele>
        <time>2012-05-13T06:56:30Z</time>
      </trkpt>
      <trkpt lat="44.79353" lon="0.72215">
        <ele>97</ele>
        <time>2012-05-13T06:56:35Z</time>
      </trkpt>
      <trkpt lat="44.79344" lon="0.72207">
        <ele>97</ele>
        <time>2012-05-13T06:56:40Z</time>
      </trkpt>
      <trkpt lat="44.79336" lon="0.722">
        <ele>97</ele>
        <time>2012-05-13T06:56:45Z</time>
      </trkpt>
      <trkpt lat="44.79327" lon="0.72194">
        <ele>97</ele>
        <time>2012-05-13T06:56:50Z</time>
      </trkpt>
      <trkpt lat="44.7932" lon="0.72185">
        <ele>97</ele>
        <time>2012-05-13T06:56:55Z</time>
      </trkpt>
      <trkpt lat="44.79315" lon="0.72175">
        <ele>97</ele>
        <time>2012-05-13T06:57:00Z</time>
      </trkpt>
      <trkpt lat="44.79309" lon="0.72164">
        <ele>97</ele>
        <time>2012-05-13T06:57:05Z</time>
      </trkpt>
      <trkpt lat="44.79303" lon="0.72153">
        <ele>97</ele>
        <time>2012-05-13T06:57:10Z</time>
      </trkpt>
      <trkpt lat="44.79296" lon="0.72142">
        <ele>97</ele>
        <time>2012-05-13T06:57:15Z</time>
      </trkpt>
      <trkpt lat="44.79291" lon="0.72131">
        <ele>97</ele>
        <time>2012-05-13T06:57:20Z</time>
      </trkpt>
      <trkpt lat="44.79287" lon="0.72119">
        <ele>97</ele>
        <time>2012-05-13T06:57:25Z</time>
      </trkpt>
      <trkpt lat="44.79282" lon="0.72107">
        <ele>97</ele>
        <time>2012-05-13T06:57:30Z</time>
      </trkpt>
      <trkpt lat="44.79277" lon="0.72097">
        <ele>97</ele>
        <time>2012-05-13T06:57:35Z</time>
      </trkpt>
      <trkpt lat="44.79273" lon="0.72087">
        <ele>97</ele>
        <time>2012-05-13T06:57:40Z</time>
      </trkpt>
      <trkpt lat="44.79269" lon="0.72078">
        <ele>97</ele>
        <time>2012-05-13T06:57:45Z</time>
      </trkpt>
      <trkpt lat="44.79266" lon="0.72071">
        <ele>97</ele>
        <time>2012-05-13T06:57:50Z</time>
      </trkpt>
      <trkpt lat="44.79263" lon="0.72064">
        <ele>97</ele>
        <time>2012-05-13T06:57:55Z</time>
      </trkpt>
      <trkpt lat="44.79257" lon="0.72052">
        <ele>97</ele>
        <time>2012-05-13T06:58:00Z</time>
      </trkpt>
      <trkpt lat="44.79252" lon="0.72042">
        <ele>97</ele>
        <time>2012-05-13T06:58:05Z</time>
      </trkpt>
      <trkpt lat="44.79245" lon="0.72031">
        <ele>97</ele>
        <time>2012-05-13T06:58:10Z</time>
      </trkpt>
      <trkpt lat="44.7924" lon="0.72022">
        <ele>99</ele>
        <time>2012-05-13T06:58:15Z</time>
      </trkpt>
      <trkpt lat="44.79235" lon="0.72013">
        <ele>102</ele>
        <time>2012-05-13T06:58:20Z</time>
      </trkpt>
      <trkpt lat="44.7923" lon="0.72003">
        <ele>105</ele>
        <time>2012-05-13T06:58:25Z</time>
      </trkpt>
      <trkpt lat="44.79226" lon="0.71994">
        <ele>106</ele>
        <time>2012-05-13T06:58:30Z</time>
      </trkpt>
      <trkpt lat="44.79223" lon="0.71984">
        <ele>107</ele>
        <time>2012-05-13T06:58:35Z</time>
      </trkpt>
      <trkpt lat="44.79221" lon="0.71974">
        <ele>108</ele>
        <time>2012-05-13T06:58:40Z</time>
      </trkpt>
      <trkpt lat="44.79218" lon="0.71964">
        <ele>109</ele>
        <time>2012-05-13T06:58:45Z</time>
      </trkpt>
      <trkpt lat="44.79213" lon="0.71967">
        <ele>111</ele>
        <time>2012-05-13T06:58:50Z</time>
      </trkpt>
      <trkpt lat="44.79202" lon="0.71996">
        <ele>113</ele>
        <time>2012-05-13T06:58:55Z</time>
      </trkpt>
      <trkpt lat="44.79183" lon="0.7203">
        <ele>114</ele>
        <time>2012-05-13T06:59:00Z</time>
      </trkpt>
      <trkpt lat="44.79173" lon="0.72059">
        <ele>114</ele>
        <time>2012-05-13T06:59:05Z</time>
      </trkpt>
      <trkpt lat="44.79156" lon="0.72062">
        <ele>114</ele>
        <time>2012-05-13T06:59:10Z</time>
      </trkpt>
      <trkpt lat="44.79139" lon="0.72056">
        <ele>112</ele>
        <time>2012-05-13T06:59:15Z</time>
      </trkpt>
      <trkpt lat="44.79122" lon="0.72049">
        <ele>111</ele>
        <time>2012-05-13T06:59:20Z</time>
      </trkpt>
      <trkpt lat="44.79105" lon="0.72044">
        <ele>111</ele>
        <time>2012-05-13T06:59:25Z</time>
      </trkpt>
      <trkpt lat="44.79086" lon="0.7204">
        <ele>111</ele>
        <time>2012-05-13T06:59:30Z</time>
      </trkpt>
      <trkpt lat="44.79075" lon="0.7204">
        <ele>110</ele>
        <time>2012-05-13T06:59:35Z</time>
      </trkpt>
      <trkpt lat="44.79069" lon="0.72041">
        <ele>109</ele>
        <time>2012-05-13T06:59:40Z</time>
      </trkpt>
      <trkpt lat="44.79063" lon="0.72049">
        <ele>109</ele>
        <time>2012-05-13T06:59:45Z</time>
      </trkpt>
      <trkpt lat="44.79053" lon="0.72062">
        <ele>109</ele>
        <time>2012-05-13T06:59:50Z</time>
      </trkpt>
      <trkpt lat="44.79039" lon="0.72087">
        <ele>109</ele>
        <time>2012-05-13T06:59:55Z</time>
      </trkpt>
      <trkpt lat="44.79015" lon="0.7211">
        <ele>109</ele>
        <time>2012-05-13T07:00:00Z</time>
      </trkpt>
      <trkpt lat="44.78999" lon="0.72107">
        <ele>109</ele>
        <time>2012-05-13T07:00:05Z</time>
      </trkpt>
      <trkpt lat="44.78987" lon="0.72098">
        <ele>107</ele>
        <time>2012-05-13T07:00:10Z</time>
      </trkpt>
      <trkpt lat="44.78975" lon="0.72093">
        <ele>104</ele>
        <time>2012-05-13T07:00:15Z</time>
      </trkpt>
      <trkpt lat="44.78963" lon="0.72087">
        <ele>100</ele>
        <time>2012-05-13T07:00:20Z</time>
      </trkpt>
      <trkpt lat="44.78952" lon="0.72083">
        <ele>97</ele>
        <time>2012-05-13T07:00:25Z</time>
      </trkpt>
      <trkpt lat="44.78939" lon="0.72082">
        <ele>95</ele>
        <time>2012-05-13T07:00:30Z</time>
      </trkpt>
      <trkpt lat="44.78926" lon="0.72082">
        <ele>94</ele>
        <time>2012-05-13T07:00:35Z</time>
      </trkpt>
      <trkpt lat="44.7891" lon="0.72082">
        <ele>94</ele>
        <time>2012-05-13T07:00:40Z</time>
      </trkpt>
      <trkpt lat="44.78893" lon="0.72079">
        <ele>93</ele>
        <time>2012-05-13T07:00:45Z</time>
      </trkpt>
      <trkpt lat="44.78878" lon="0.72076">
        <ele>93</ele>
        <time>2012-05-13T07:00:50Z</time>
      </trkpt>
      <trkpt lat="44.78863" lon="0.7207">
        <ele>94</ele>
        <time>2012-05-13T07:00:55Z</time>
      </trkpt>
      <trkpt lat="44.78848" lon="0.72059">
        <ele>95</ele>
        <time>2012-05-13T07:01:01Z</time>
      </trkpt>
      <trkpt lat="44.78835" lon="0.72045">
        <ele>97</ele>
        <time>2012-05-13T07:01:06Z</time>
      </trkpt>
      <trkpt lat="44.78821" lon="0.72035">
        <ele>102</ele>
        <time>2012-05-13T07:01:11Z</time>
      </trkpt>
      <trkpt lat="44.78804" lon="0.72027">
        <ele>103</ele>
        <time>2012-05-13T07:01:16Z</time>
      </trkpt>
      <trkpt lat="44.78789" lon="0.72019">
        <ele>103</ele>
        <time>2012-05-13T07:01:21Z</time>
      </trkpt>
      <trkpt lat="44.78773" lon="0.72007">
        <ele>103</ele>
        <time>2012-05-13T07:01:26Z</time>
      </trkpt>
      <trkpt lat="44.78755" lon="0.71997">
        <ele>104</ele>
        <time>2012-05-13T07:01:31Z</time>
      </trkpt>
      <trkpt lat="44.78735" lon="0.71991">
        <ele>104</ele>
        <time>2012-05-13T07:01:36Z</time>
      </trkpt>
      <trkpt lat="44.78719" lon="0.71984">
        <ele>104</ele>
        <time>2012-05-13T07:01:41Z</time>
      </trkpt>
      <trkpt lat="44.78701" lon="0.71979">
        <ele>104</ele>
        <time>2012-05-13T07:01:46Z</time>
      </trkpt>
      <trkpt lat="44.78686" lon="0.71972">
        <ele>108</ele>
        <time>2012-05-13T07:01:51Z</time>
      </trkpt>
      <trkpt lat="44.78671" lon="0.71961">
        <ele>112</ele>
        <time>2012-05-13T07:01:56Z</time>
      </trkpt>
      <trkpt lat="44.78653" lon="0.7195">
        <ele>112</ele>
        <time>2012-05-13T07:02:01Z</time>
      </trkpt>
      <trkpt lat="44.7864" lon="0.71939">
        <ele>112</ele>
        <time>2012-05-13T07:02:06Z</time>
      </trkpt>
      <trkpt lat="44.78633" lon="0.71928">
        <ele>112</ele>
        <time>2012-05-13T07:02:11Z</time>
      </trkpt>
      <trkpt lat="44.78634" lon="0.71914">
        <ele>107</ele>
        <time>2012-05-13T07:02:16Z</time>
      </trkpt>
      <trkpt lat="44.78639" lon="0.71896">
        <ele>105</ele>
        <time>2012-05-13T07:02:21Z</time>
      </trkpt>
      <trkpt lat="44.78645" lon="0.71884">
        <ele>105</ele>
        <time>2012-05-13T07:02:26Z</time>
      </trkpt>
      <trkpt lat="44.7865" lon="0.7187">
        <ele>105</ele>
        <time>2012-05-13T07:02:32Z</time>
      </trkpt>
      <trkpt lat="44.78656" lon="0.71857">
        <ele>105</ele>
        <time>2012-05-13T07:02:37Z</time>
      </trkpt>
      <trkpt lat="44.78661" lon="0.71847">
        <ele>105</ele>
        <time>2012-05-13T07:02:42Z</time>
      </trkpt>
      <trkpt lat="44.78667" lon="0.71838">
        <ele>106</ele>
        <time>2012-05-13T07:02:47Z</time>
      </trkpt>
      <trkpt lat="44.78674" lon="0.71829">
        <ele>107</ele>
        <time>2012-05-13T07:02:52Z</time>
      </trkpt>
      <trkpt lat="44.78679" lon="0.71819">
        <ele>108</ele>
        <time>2012-05-13T07:02:57Z</time>
      </trkpt>
      <trkpt lat="44.78686" lon="0.71809">
        <ele>109</ele>
        <time>2012-05-13T07:03:02Z</time>
      </trkpt>
      <trkpt lat="44.78695" lon="0.71807">
        <ele>111</ele>
        <time>2012-05-13T07:03:07Z</time>
      </trkpt>
      <trkpt lat="44.78702" lon="0.71809">
        <ele>114</ele>
        <time>2012-05-13T07:03:12Z</time>
      </trkpt>
      <trkpt lat="44.7871" lon="0.71814">
        <ele>116</ele>
        <time>2012-05-13T07:03:17Z</time>
      </trkpt>
      <trkpt lat="44.78717" lon="0.71819">
        <ele>120</ele>
        <time>2012-05-13T07:03:22Z</time>
      </trkpt>
      <trkpt lat="44.78725" lon="0.71826">
        <ele>123</ele>
        <time>2012-05-13T07:03:27Z</time>
      </trkpt>
      <trkpt lat="44.78732" lon="0.71832">
        <ele>126</ele>
        <time>2012-05-13T07:03:32Z</time>
      </trkpt>
      <trkpt lat="44.78738" lon="0.71836">
        <ele>128</ele>
        <time>2012-05-13T07:03:37Z</time>
      </trkpt>
      <trkpt lat="44.78746" lon="0.7184">
        <ele>129</ele>
        <time>2012-05-13T07:03:42Z</time>
      </trkpt>
      <trkpt lat="44.78753" lon="0.71843">
        <ele>129</ele>
        <time>2012-05-13T07:03:47Z</time>
      </trkpt>
      <trkpt lat="44.78759" lon="0.71847">
        <ele>132</ele>
        <time>2012-05-13T07:03:52Z</time>
      </trkpt>
      <trkpt lat="44.78768" lon="0.71852">
        <ele>134</ele>
        <time>2012-05-13T07:03:57Z</time>
      </trkpt>
      <trkpt lat="44.78777" lon="0.71857">
        <ele>134</ele>
        <time>2012-05-13T07:04:02Z</time>
      </trkpt>
      <trkpt lat="44.78786" lon="0.71861">
        <ele>134</ele>
        <time>2012-05-13T07:04:07Z</time>
      </trkpt>
      <trkpt lat="44.78798" lon="0.71866">
        <ele>134</ele>
        <time>2012-05-13T07:04:12Z</time>
      </trkpt>
      <trkpt lat="44.78809" lon="0.7187">
        <ele>134</ele>
        <time>2012-05-13T07:04:17Z</time>
      </trkpt>
      <trkpt lat="44.78818" lon="0.71872">
        <ele>135</ele>
        <time>2012-05-13T07:04:22Z</time>
      </trkpt>
      <trkpt lat="44.78829" lon="0.71872">
        <ele>137</ele>
        <time>2012-05-13T07:04:27Z</time>
      </trkpt>
      <trkpt lat="44.78839" lon="0.71867">
        <ele>137</ele>
        <time>2012-05-13T07:04:32Z</time>
      </trkpt>
      <trkpt lat="44.78851" lon="0.71859">
        <ele>137</ele>
        <time>2012-05-13T07:04:37Z</time>
      </trkpt>
      <trkpt lat="44.7886" lon="0.7185">
        <ele>137</ele>
        <time>2012-05-13T07:04:42Z</time>
      </trkpt>
      <trkpt lat="44.7887" lon="0.71842">
        <ele>137</ele>
        <time>2012-05-13T07:04:47Z</time>
      </trkpt>
      <trkpt lat="44.7888" lon="0.71835">
        <ele>137</ele>
        <time>2012-05-13T07:04:52Z</time>
      </trkpt>
      <trkpt lat="44.7889" lon="0.71828">
        <ele>137</ele>
        <time>2012-05-13T07:04:57Z</time>
      </trkpt>
      <trkpt lat="44.78899" lon="0.7182">
        <ele>137</ele>
        <time>2012-05-13T07:05:02Z</time>
      </trkpt>
      <trkpt lat="44.7891" lon="0.71811">
        <ele>138</ele>
        <time>2012-05-13T07:05:08Z</time>
      </trkpt>
      <trkpt lat="44.7892" lon="0.71802">
        <ele>140</ele>
        <time>2012-05-13T07:05:13Z</time>
      </trkpt>
      <trkpt lat="44.78936" lon="0.71791">
        <ele>141</ele>
        <time>2012-05-13T07:05:18Z</time>
      </trkpt>
      <trkpt lat="44.78949" lon="0.71772">
        <ele>141</ele>
        <time>2012-05-13T07:05:23Z</time>
      </trkpt>
      <trkpt lat="44.78959" lon="0.71755">
        <ele>141</ele>
        <time>2012-05-13T07:05:28Z</time>
      </trkpt>
      <trkpt lat="44.78968" lon="0.71736">
        <ele>141</ele>
        <time>2012-05-13T07:05:34Z</time>
      </trkpt>
      <trkpt lat="44.78971" lon="0.71736">
        <ele>141</ele>
        <time>2012-05-13T07:05:44Z</time>
      </trkpt>
      <trkpt lat="44.78971" lon="0.71734">
        <ele>141</ele>
        <time>2012-05-13T07:06:09Z</time>
      </trkpt>
      <trkpt lat="44.78973" lon="0.71733">
        <ele>142</ele>
        <time>2012-05-13T07:07:15Z</time>
      </trkpt>
      <trkpt lat="44.78974" lon="0.71732">
        <ele>142</ele>
        <time>2012-05-13T07:08:16Z</time>
      </trkpt>
      <trkpt lat="44.78977" lon="0.71729">
        <ele>144</ele>
        <time>2012-05-13T07:08:22Z</time>
      </trkpt>
      <trkpt lat="44.78991" lon="0.71731">
        <ele>144</ele>
        <time>2012-05-13T07:08:27Z</time>
      </trkpt>
      <trkpt lat="44.7901" lon="0.71747">
        <ele>144</ele>
        <time>2012-05-13T07:08:32Z</time>
      </trkpt>
      <trkpt lat="44.79038" lon="0.7176">
        <ele>143</ele>
        <time>2012-05-13T07:08:37Z</time>
      </trkpt>
      <trkpt lat="44.79074" lon="0.71762">
        <ele>138</ele>
        <time>2012-05-13T07:08:43Z</time>
      </trkpt>
      <trkpt lat="44.79079" lon="0.71738">
        <ele>134</ele>
        <time>2012-05-13T07:08:48Z</time>
      </trkpt>
      <trkpt lat="44.79075" lon="0.71704">
        <ele>133</ele>
        <time>2012-05-13T07:08:53Z</time>
      </trkpt>
      <trkpt lat="44.79069" lon="0.71663">
        <ele>132</ele>
        <time>2012-05-13T07:08:58Z</time>
      </trkpt>
      <trkpt lat="44.79046" lon="0.71625">
        <ele>130</ele>
        <time>2012-05-13T07:09:03Z</time>
      </trkpt>
      <trkpt lat="44.79019" lon="0.71583">
        <ele>128</ele>
        <time>2012-05-13T07:09:08Z</time>
      </trkpt>
      <trkpt lat="44.78998" lon="0.71539">
        <ele>127</ele>
        <time>2012-05-13T07:09:13Z</time>
      </trkpt>
      <trkpt lat="44.78977" lon="0.71487">
        <ele>123</ele>
        <time>2012-05-13T07:09:19Z</time>
      </trkpt>
      <trkpt lat="44.78961" lon="0.71443">
        <ele>123</ele>
        <time>2012-05-13T07:09:24Z</time>
      </trkpt>
      <trkpt lat="44.78951" lon="0.714">
        <ele>124</ele>
        <time>2012-05-13T07:09:30Z</time>
      </trkpt>
      <trkpt lat="44.78955" lon="0.71385">
        <ele>127</ele>
        <time>2012-05-13T07:09:35Z</time>
      </trkpt>
      <trkpt lat="44.78981" lon="0.71398">
        <ele>128</ele>
        <time>2012-05-13T07:09:40Z</time>
      </trkpt>
      <trkpt lat="44.7901" lon="0.71416">
        <ele>128</ele>
        <time>2012-05-13T07:09:45Z</time>
      </trkpt>
      <trkpt lat="44.79044" lon="0.71434">
        <ele>123</ele>
        <time>2012-05-13T07:09:50Z</time>
      </trkpt>
      <trkpt lat="44.79078" lon="0.71446">
        <ele>118</ele>
        <time>2012-05-13T07:09:55Z</time>
      </trkpt>
      <trkpt lat="44.79115" lon="0.71459">
        <ele>113</ele>
        <time>2012-05-13T07:10:00Z</time>
      </trkpt>
      <trkpt lat="44.79153" lon="0.71468">
        <ele>108</ele>
        <time>2012-05-13T07:10:05Z</time>
      </trkpt>
      <trkpt lat="44.79194" lon="0.71468">
        <ele>106</ele>
        <time>2012-05-13T07:10:10Z</time>
      </trkpt>
      <trkpt lat="44.79241" lon="0.7147">
        <ele>103</ele>
        <time>2012-05-13T07:10:15Z</time>
      </trkpt>
      <trkpt lat="44.79279" lon="0.7148">
        <ele>99</ele>
        <time>2012-05-13T07:10:20Z</time>
      </trkpt>
      <trkpt lat="44.7929" lon="0.71518">
        <ele>99</ele>
        <time>2012-05-13T07:10:25Z</time>
      </trkpt>
      <trkpt lat="44.79313" lon="0.71557">
        <ele>101</ele>
        <time>2012-05-13T07:10:30Z</time>
      </trkpt>
      <trkpt lat="44.7934" lon="0.71589">
        <ele>104</ele>
        <time>2012-05-13T07:10:35Z</time>
      </trkpt>
      <trkpt lat="44.79365" lon="0.71626">
        <ele>104</ele>
        <time>2012-05-13T07:10:40Z</time>
      </trkpt>
      <trkpt lat="44.79393" lon="0.71662">
        <ele>104</ele>
        <time>2012-05-13T07:10:45Z</time>
      </trkpt>
      <trkpt lat="44.79412" lon="0.71696">
        <ele>104</ele>
        <time>2012-05-13T07:10:50Z</time>
      </trkpt>
      <trkpt lat="44.7943" lon="0.71714">
        <ele>104</ele>
        <time>2012-05-13T07:10:55Z</time>
      </trkpt>
      <trkpt lat="44.79447" lon="0.71726">
        <ele>104</ele>
        <time>2012-05-13T07:11:00Z</time>
      </trkpt>
      <trkpt lat="44.79454" lon="0.71738">
        <ele>104</ele>
        <time>2012-05-13T07:11:05Z</time>
      </trkpt>
      <trkpt lat="44.79459" lon="0.71751">
        <ele>105</ele>
        <time>2012-05-13T07:11:10Z</time>
      </trkpt>
      <trkpt lat="44.79465" lon="0.71759">
        <ele>109</ele>
        <time>2012-05-13T07:11:15Z</time>
      </trkpt>
      <trkpt lat="44.79471" lon="0.71766">
        <ele>111</ele>
        <time>2012-05-13T07:11:20Z</time>
      </trkpt>
      <trkpt lat="44.79477" lon="0.71774">
        <ele>114</ele>
        <time>2012-05-13T07:11:25Z</time>
      </trkpt>
      <trkpt lat="44.79483" lon="0.71782">
        <ele>116</ele>
        <time>2012-05-13T07:11:30Z</time>
      </trkpt>
      <trkpt lat="44.79487" lon="0.71792">
        <ele>117</ele>
        <time>2012-05-13T07:11:35Z</time>
      </trkpt>
      <trkpt lat="44.79492" lon="0.71805">
        <ele>118</ele>
        <time>2012-05-13T07:11:40Z</time>
      </trkpt>
      <trkpt lat="44.79498" lon="0.7182">
        <ele>121</ele>
        <time>2012-05-13T07:11:45Z</time>
      </trkpt>
      <trkpt lat="44.79504" lon="0.71842">
        <ele>122</ele>
        <time>2012-05-13T07:11:50Z</time>
      </trkpt>
      <trkpt lat="44.79512" lon="0.71864">
        <ele>122</ele>
        <time>2012-05-13T07:11:55Z</time>
      </trkpt>
      <trkpt lat="44.7952" lon="0.71883">
        <ele>122</ele>
        <time>2012-05-13T07:12:00Z</time>
      </trkpt>
      <trkpt lat="44.7953" lon="0.71903">
        <ele>122</ele>
        <time>2012-05-13T07:12:05Z</time>
      </trkpt>
      <trkpt lat="44.79535" lon="0.71923">
        <ele>122</ele>
        <time>2012-05-13T07:12:10Z</time>
      </trkpt>
      <trkpt lat="44.79538" lon="0.71949">
        <ele>122</ele>
        <time>2012-05-13T07:12:15Z</time>
      </trkpt>
      <trkpt lat="44.79541" lon="0.71977">
        <ele>123</ele>
        <time>2012-05-13T07:12:20Z</time>
      </trkpt>
      <trkpt lat="44.79544" lon="0.72003">
        <ele>126</ele>
        <time>2012-05-13T07:12:25Z</time>
      </trkpt>
      <trkpt lat="44.79549" lon="0.72022">
        <ele>128</ele>
        <time>2012-05-13T07:12:30Z</time>
      </trkpt>
      <trkpt lat="44.79557" lon="0.72041">
        <ele>128</ele>
        <time>2012-05-13T07:12:35Z</time>
      </trkpt>
      <trkpt lat="44.79565" lon="0.72057">
        <ele>129</ele>
        <time>2012-05-13T07:12:40Z</time>
      </trkpt>
      <trkpt lat="44.79569" lon="0.7207">
        <ele>132</ele>
        <time>2012-05-13T07:12:45Z</time>
      </trkpt>
      <trkpt lat="44.79573" lon="0.72086">
        <ele>135</ele>
        <time>2012-05-13T07:12:50Z</time>
      </trkpt>
      <trkpt lat="44.79584" lon="0.72103">
        <ele>136</ele>
        <time>2012-05-13T07:12:55Z</time>
      </trkpt>
      <trkpt lat="44.79599" lon="0.72116">
        <ele>136</ele>
        <time>2012-05-13T07:13:00Z</time>
      </trkpt>
      <trkpt lat="44.79617" lon="0.72131">
        <ele>136</ele>
        <time>2012-05-13T07:13:05Z</time>
      </trkpt>
      <trkpt lat="44.79634" lon="0.72144">
        <ele>135</ele>
        <time>2012-05-13T07:13:10Z</time>
      </trkpt>
      <trkpt lat="44.79647" lon="0.72158">
        <ele>134</ele>
        <time>2012-05-13T07:13:15Z</time>
      </trkpt>
      <trkpt lat="44.79661" lon="0.7217">
        <ele>134</ele>
        <time>2012-05-13T07:13:20Z</time>
      </trkpt>
      <trkpt lat="44.79673" lon="0.72179">
        <ele>134</ele>
        <time>2012-05-13T07:13:25Z</time>
      </trkpt>
      <trkpt lat="44.79684" lon="0.72187">
        <ele>134</ele>
        <time>2012-05-13T07:13:30Z</time>
      </trkpt>
      <trkpt lat="44.79697" lon="0.72196">
        <ele>134</ele>
        <time>2012-05-13T07:13:35Z</time>
      </trkpt>
      <trkpt lat="44.79704" lon="0.72203">
        <ele>136</ele>
        <time>2012-05-13T07:13:41Z</time>
      </trkpt>
      <trkpt lat="44.797" lon="0.72212">
        <ele>139</ele>
        <time>2012-05-13T07:13:46Z</time>
      </trkpt>
      <trkpt lat="44.79677" lon="0.72221">
        <ele>141</ele>
        <time>2012-05-13T07:13:51Z</time>
      </trkpt>
      <trkpt lat="44.79657" lon="0.72252">
        <ele>140</ele>
        <time>2012-05-13T07:13:56Z</time>
      </trkpt>
      <trkpt lat="44.7965" lon="0.7228">
        <ele>135</ele>
        <time>2012-05-13T07:14:01Z</time>
      </trkpt>
      <trkpt lat="44.79659" lon="0.72303">
        <ele>132</ele>
        <time>2012-05-13T07:14:06Z</time>
      </trkpt>
      <trkpt lat="44.79665" lon="0.7232">
        <ele>132</ele>
        <time>2012-05-13T07:14:11Z</time>
      </trkpt>
      <trkpt lat="44.79672" lon="0.72332">
        <ele>132</ele>
        <time>2012-05-13T07:14:16Z</time>
      </trkpt>
      <trkpt lat="44.79675" lon="0.72346">
        <ele>132</ele>
        <time>2012-05-13T07:14:21Z</time>
      </trkpt>
      <trkpt lat="44.79676" lon="0.72358">
        <ele>135</ele>
        <time>2012-05-13T07:14:26Z</time>
      </trkpt>
      <trkpt lat="44.79678" lon="0.72373">
        <ele>139</ele>
        <time>2012-05-13T07:14:31Z</time>
      </trkpt>
      <trkpt lat="44.79685" lon="0.72386">
        <ele>143</ele>
        <time>2012-05-13T07:14:36Z</time>
      </trkpt>
      <trkpt lat="44.79686" lon="0.724">
        <ele>145</ele>
        <time>2012-05-13T07:14:41Z</time>
      </trkpt>
      <trkpt lat="44.79687" lon="0.72415">
        <ele>145</ele>
        <time>2012-05-13T07:14:47Z</time>
      </trkpt>
      <trkpt lat="44.79689" lon="0.72423">
        <ele>145</ele>
        <time>2012-05-13T07:14:53Z</time>
      </trkpt>
      <trkpt lat="44.79698" lon="0.7243">
        <ele>145</ele>
        <time>2012-05-13T07:14:58Z</time>
      </trkpt>
      <trkpt lat="44.79705" lon="0.72439">
        <ele>144</ele>
        <time>2012-05-13T07:15:03Z</time>
      </trkpt>
      <trkpt lat="44.79712" lon="0.72457">
        <ele>141</ele>
        <time>2012-05-13T07:15:08Z</time>
      </trkpt>
      <trkpt lat="44.7972" lon="0.7248">
        <ele>140</ele>
        <time>2012-05-13T07:15:13Z</time>
      </trkpt>
      <trkpt lat="44.79729" lon="0.72505">
        <ele>140</ele>
        <time>2012-05-13T07:15:18Z</time>
      </trkpt>
      <trkpt lat="44.79734" lon="0.72522">
        <ele>140</ele>
        <time>2012-05-13T07:15:23Z</time>
      </trkpt>
      <trkpt lat="44.7974" lon="0.72534">
        <ele>137</ele>
        <time>2012-05-13T07:15:28Z</time>
      </trkpt>
      <trkpt lat="44.79744" lon="0.72549">
        <ele>137</ele>
        <time>2012-05-13T07:15:33Z</time>
      </trkpt>
      <trkpt lat="44.79749" lon="0.72564">
        <ele>137</ele>
        <time>2012-05-13T07:15:38Z</time>
      </trkpt>
      <trkpt lat="44.79753" lon="0.72577">
        <ele>137</ele>
        <time>2012-05-13T07:15:43Z</time>
      </trkpt>
      <trkpt lat="44.79757" lon="0.7259">
        <ele>137</ele>
        <time>2012-05-13T07:15:48Z</time>
      </trkpt>
      <trkpt lat="44.79763" lon="0.72603">
        <ele>142</ele>
        <time>2012-05-13T07:15:53Z</time>
      </trkpt>
      <trkpt lat="44.79768" lon="0.72618">
        <ele>147</ele>
        <time>2012-05-13T07:15:58Z</time>
      </trkpt>
      <trkpt lat="44.79773" lon="0.72635">
        <ele>149</ele>
        <time>2012-05-13T07:16:03Z</time>
      </trkpt>
      <trkpt lat="44.79778" lon="0.72654">
        <ele>152</ele>
        <time>2012-05-13T07:16:08Z</time>
      </trkpt>
      <trkpt lat="44.79785" lon="0.72675">
        <ele>153</ele>
        <time>2012-05-13T07:16:13Z</time>
      </trkpt>
      <trkpt lat="44.79793" lon="0.72698">
        <ele>153</ele>
        <time>2012-05-13T07:16:18Z</time>
      </trkpt>
      <trkpt lat="44.79801" lon="0.72723">
        <ele>153</ele>
        <time>2012-05-13T07:16:23Z</time>
      </trkpt>
      <trkpt lat="44.79811" lon="0.72751">
        <ele>153</ele>
        <time>2012-05-13T07:16:28Z</time>
      </trkpt>
      <trkpt lat="44.7982" lon="0.72768">
        <ele>151</ele>
        <time>2012-05-13T07:16:33Z</time>
      </trkpt>
      <trkpt lat="44.79829" lon="0.72787">
        <ele>146</ele>
        <time>2012-05-13T07:16:38Z</time>
      </trkpt>
      <trkpt lat="44.7984" lon="0.72803">
        <ele>141</ele>
        <time>2012-05-13T07:16:43Z</time>
      </trkpt>
      <trkpt lat="44.79855" lon="0.72804">
        <ele>136</ele>
        <time>2012-05-13T07:16:48Z</time>
      </trkpt>
      <trkpt lat="44.79869" lon="0.72802">
        <ele>134</ele>
        <time>2012-05-13T07:16:53Z</time>
      </trkpt>
      <trkpt lat="44.79883" lon="0.72797">
        <ele>134</ele>
        <time>2012-05-13T07:16:58Z</time>
      </trkpt>
      <trkpt lat="44.799" lon="0.7279">
        <ele>134</ele>
        <time>2012-05-13T07:17:03Z</time>
      </trkpt>
      <trkpt lat="44.79916" lon="0.72782">
        <ele>134</ele>
        <time>2012-05-13T07:17:08Z</time>
      </trkpt>
      <trkpt lat="44.79937" lon="0.72769">
        <ele>133</ele>
        <time>2012-05-13T07:17:13Z</time>
      </trkpt>
      <trkpt lat="44.7996" lon="0.72759">
        <ele>131</ele>
        <time>2012-05-13T07:17:18Z</time>
      </trkpt>
      <trkpt lat="44.7997" lon="0.72772">
        <ele>129</ele>
        <time>2012-05-13T07:17:23Z</time>
      </trkpt>
      <trkpt lat="44.79974" lon="0.72785">
        <ele>129</ele>
        <time>2012-05-13T07:17:28Z</time>
      </trkpt>
      <trkpt lat="44.79985" lon="0.72798">
        <ele>129</ele>
        <time>2012-05-13T07:17:33Z</time>
      </trkpt>
      <trkpt lat="44.79985" lon="0.72823">
        <ele>131</ele>
        <time>2012-05-13T07:17:38Z</time>
      </trkpt>
      <trkpt lat="44.79982" lon="0.7286">
        <ele>136</ele>
        <time>2012-05-13T07:17:43Z</time>
      </trkpt>
      <trkpt lat="44.79975" lon="0.72901">
        <ele>141</ele>
        <time>2012-05-13T07:17:48Z</time>
      </trkpt>
      <trkpt lat="44.79979" lon="0.72934">
        <ele>146</ele>
        <time>2012-05-13T07:17:53Z</time>
      </trkpt>
      <trkpt lat="44.7999" lon="0.7294">
        <ele>147</ele>
        <time>2012-05-13T07:17:58Z</time>
      </trkpt>
      <trkpt lat="44.80005" lon="0.72923">
        <ele>142</ele>
        <time>2012-05-13T07:18:03Z</time>
      </trkpt>
      <trkpt lat="44.80024" lon="0.72902">
        <ele>137</ele>
        <time>2012-05-13T07:18:08Z</time>
      </trkpt>
      <trkpt lat="44.80046" lon="0.72875">
        <ele>132</ele>
        <time>2012-05-13T07:18:13Z</time>
      </trkpt>
      <trkpt lat="44.80065" lon="0.72851">
        <ele>127</ele>
        <time>2012-05-13T07:18:18Z</time>
      </trkpt>
      <trkpt lat="44.8008" lon="0.72828">
        <ele>119</ele>
        <time>2012-05-13T07:18:23Z</time>
      </trkpt>
      <trkpt lat="44.80099" lon="0.72846">
        <ele>111</ele>
        <time>2012-05-13T07:18:28Z</time>
      </trkpt>
      <trkpt lat="44.80112" lon="0.72885">
        <ele>103</ele>
        <time>2012-05-13T07:18:33Z</time>
      </trkpt>
      <trkpt lat="44.80134" lon="0.72927">
        <ele>95</ele>
        <time>2012-05-13T07:18:38Z</time>
      </trkpt>
      <trkpt lat="44.8016" lon="0.72967">
        <ele>90</ele>
        <time>2012-05-13T07:18:43Z</time>
      </trkpt>
      <trkpt lat="44.80171" lon="0.72963">
        <ele>81</ele>
        <time>2012-05-13T07:18:48Z</time>
      </trkpt>
      <trkpt lat="44.80168" lon="0.72923">
        <ele>71</ele>
        <time>2012-05-13T07:18:53Z</time>
      </trkpt>
      <trkpt lat="44.80166" lon="0.72883">
        <ele>65</ele>
        <time>2012-05-13T07:18:58Z</time>
      </trkpt>
      <trkpt lat="44.80172" lon="0.72842">
        <ele>64</ele>
        <time>2012-05-13T07:19:03Z</time>
      </trkpt>
      <trkpt lat="44.80169" lon="0.72806">
        <ele>61</ele>
        <time>2012-05-13T07:19:08Z</time>
      </trkpt>
      <trkpt lat="44.80162" lon="0.7277">
        <ele>59</ele>
        <time>2012-05-13T07:19:13Z</time>
      </trkpt>
      <trkpt lat="44.80151" lon="0.72737">
        <ele>56</ele>
        <time>2012-05-13T07:19:18Z</time>
      </trkpt>
      <trkpt lat="44.80149" lon="0.72701">
        <ele>54</ele>
        <time>2012-05-13T07:19:23Z</time>
      </trkpt>
      <trkpt lat="44.8016" lon="0.72662">
        <ele>58</ele>
        <time>2012-05-13T07:19:28Z</time>
      </trkpt>
      <trkpt lat="44.80164" lon="0.72627">
        <ele>63</ele>
        <time>2012-05-13T07:19:33Z</time>
      </trkpt>
      <trkpt lat="44.80168" lon="0.72596">
        <ele>68</ele>
        <time>2012-05-13T07:19:38Z</time>
      </trkpt>
      <trkpt lat="44.80175" lon="0.72566">
        <ele>73</ele>
        <time>2012-05-13T07:19:43Z</time>
      </trkpt>
      <trkpt lat="44.8019" lon="0.72541">
        <ele>76</ele>
        <time>2012-05-13T07:19:48Z</time>
      </trkpt>
      <trkpt lat="44.8021" lon="0.72526">
        <ele>76</ele>
        <time>2012-05-13T07:19:53Z</time>
      </trkpt>
      <trkpt lat="44.80244" lon="0.72527">
        <ele>75</ele>
        <time>2012-05-13T07:19:58Z</time>
      </trkpt>
      <trkpt lat="44.80278" lon="0.72515">
        <ele>73</ele>
        <time>2012-05-13T07:20:03Z</time>
      </trkpt>
      <trkpt lat="44.80303" lon="0.72484">
        <ele>71</ele>
        <time>2012-05-13T07:20:08Z</time>
      </trkpt>
      <trkpt lat="44.80329" lon="0.72458">
        <ele>69</ele>
        <time>2012-05-13T07:20:13Z</time>
      </trkpt>
      <trkpt lat="44.80361" lon="0.7243">
        <ele>66</ele>
        <time>2012-05-13T07:20:18Z</time>
      </trkpt>
      <trkpt lat="44.80386" lon="0.72405">
        <ele>63</ele>
        <time>2012-05-13T07:20:23Z</time>
      </trkpt>
      <trkpt lat="44.80396" lon="0.72373">
        <ele>60</ele>
        <time>2012-05-13T07:20:28Z</time>
      </trkpt>
      <trkpt lat="44.80402" lon="0.72329">
        <ele>58</ele>
        <time>2012-05-13T07:20:33Z</time>
      </trkpt>
      <trkpt lat="44.8041" lon="0.72271">
        <ele>55</ele>
        <time>2012-05-13T07:20:38Z</time>
      </trkpt>
      <trkpt lat="44.8042" lon="0.72206">
        <ele>51</ele>
        <time>2012-05-13T07:20:43Z</time>
      </trkpt>
      <trkpt lat="44.80429" lon="0.72145">
        <ele>48</ele>
        <time>2012-05-13T07:20:48Z</time>
      </trkpt>
      <trkpt lat="44.80421" lon="0.72097">
        <ele>46</ele>
        <time>2012-05-13T07:20:53Z</time>
      </trkpt>
      <trkpt lat="44.80406" lon="0.72056">
        <ele>43</ele>
        <time>2012-05-13T07:20:58Z</time>
      </trkpt>
      <trkpt lat="44.80398" lon="0.72018">
        <ele>42</ele>
        <time>2012-05-13T07:21:03Z</time>
      </trkpt>
      <trkpt lat="44.80388" lon="0.71992">
        <ele>41</ele>
        <time>2012-05-13T07:21:08Z</time>
      </trkpt>
      <trkpt lat="44.80373" lon="0.7197">
        <ele>40</ele>
        <time>2012-05-13T07:21:13Z</time>
      </trkpt>
      <trkpt lat="44.80359" lon="0.71946">
        <ele>39</ele>
        <time>2012-05-13T07:21:18Z</time>
      </trkpt>
      <trkpt lat="44.80352" lon="0.7192">
        <ele>39</ele>
        <time>2012-05-13T07:21:23Z</time>
      </trkpt>
      <trkpt lat="44.80365" lon="0.71906">
        <ele>42</ele>
        <time>2012-05-13T07:21:28Z</time>
      </trkpt>
      <trkpt lat="44.80387" lon="0.71897">
        <ele>47</ele>
        <time>2012-05-13T07:21:33Z</time>
      </trkpt>
      <trkpt lat="44.80405" lon="0.71873">
        <ele>51</ele>
        <time>2012-05-13T07:21:38Z</time>
      </trkpt>
      <trkpt lat="44.80429" lon="0.71849">
        <ele>51</ele>
        <time>2012-05-13T07:21:43Z</time>
      </trkpt>
      <trkpt lat="44.80458" lon="0.71825">
        <ele>51</ele>
        <time>2012-05-13T07:21:48Z</time>
      </trkpt>
      <trkpt lat="44.80486" lon="0.71812">
        <ele>52</ele>
        <time>2012-05-13T07:21:53Z</time>
      </trkpt>
      <trkpt lat="44.80516" lon="0.7181">
        <ele>54</ele>
        <time>2012-05-13T07:21:58Z</time>
      </trkpt>
      <trkpt lat="44.80555" lon="0.71817">
        <ele>57</ele>
        <time>2012-05-13T07:22:03Z</time>
      </trkpt>
      <trkpt lat="44.80594" lon="0.71818">
        <ele>57</ele>
        <time>2012-05-13T07:22:08Z</time>
      </trkpt>
      <trkpt lat="44.8063" lon="0.7181">
        <ele>57</ele>
        <time>2012-05-13T07:22:13Z</time>
      </trkpt>
      <trkpt lat="44.80656" lon="0.71769">
        <ele>54</ele>
        <time>2012-05-13T07:22:18Z</time>
      </trkpt>
      <trkpt lat="44.80684" lon="0.71742">
        <ele>49</ele>
        <time>2012-05-13T07:22:23Z</time>
      </trkpt>
      <trkpt lat="44.80711" lon="0.71727">
        <ele>47</ele>
        <time>2012-05-13T07:22:28Z</time>
      </trkpt>
      <trkpt lat="44.80739" lon="0.71711">
        <ele>47</ele>
        <time>2012-05-13T07:22:33Z</time>
      </trkpt>
      <trkpt lat="44.80762" lon="0.71698">
        <ele>47</ele>
        <time>2012-05-13T07:22:38Z</time>
      </trkpt>
      <trkpt lat="44.80783" lon="0.71686">
        <ele>47</ele>
        <time>2012-05-13T07:22:43Z</time>
      </trkpt>
      <trkpt lat="44.80803" lon="0.7167">
        <ele>47</ele>
        <time>2012-05-13T07:22:48Z</time>
      </trkpt>
      <trkpt lat="44.80824" lon="0.71652">
        <ele>47</ele>
        <time>2012-05-13T07:22:53Z</time>
      </trkpt>
      <trkpt lat="44.80846" lon="0.71634">
        <ele>47</ele>
        <time>2012-05-13T07:22:58Z</time>
      </trkpt>
      <trkpt lat="44.80868" lon="0.71622">
        <ele>47</ele>
        <time>2012-05-13T07:23:03Z</time>
      </trkpt>
      <trkpt lat="44.80891" lon="0.71605">
        <ele>47</ele>
        <time>2012-05-13T07:23:08Z</time>
      </trkpt>
      <trkpt lat="44.80913" lon="0.71583">
        <ele>47</ele>
        <time>2012-05-13T07:23:13Z</time>
      </trkpt>
      <trkpt lat="44.80936" lon="0.71562">
        <ele>47</ele>
        <time>2012-05-13T07:23:18Z</time>
      </trkpt>
      <trkpt lat="44.80965" lon="0.71547">
        <ele>47</ele>
        <time>2012-05-13T07:23:23Z</time>
      </trkpt>
      <trkpt lat="44.80998" lon="0.71533">
        <ele>47</ele>
        <time>2012-05-13T07:23:28Z</time>
      </trkpt>
      <trkpt lat="44.81019" lon="0.71505">
        <ele>47</ele>
        <time>2012-05-13T07:23:33Z</time>
      </trkpt>
      <trkpt lat="44.81034" lon="0.71459">
        <ele>44</ele>
        <time>2012-05-13T07:23:38Z</time>
      </trkpt>
      <trkpt lat="44.81065" lon="0.71429">
        <ele>40</ele>
        <time>2012-05-13T07:23:43Z</time>
      </trkpt>
      <trkpt lat="44.81097" lon="0.71386">
        <ele>39</ele>
        <time>2012-05-13T07:23:48Z</time>
      </trkpt>
      <trkpt lat="44.81128" lon="0.71352">
        <ele>36</ele>
        <time>2012-05-13T07:23:53Z</time>
      </trkpt>
      <trkpt lat="44.8116" lon="0.71358">
        <ele>34</ele>
        <time>2012-05-13T07:23:58Z</time>
      </trkpt>
      <trkpt lat="44.81174" lon="0.71355">
        <ele>33</ele>
        <time>2012-05-13T07:24:03Z</time>
      </trkpt>
      <trkpt lat="44.81175" lon="0.71323">
        <ele>32</ele>
        <time>2012-05-13T07:24:08Z</time>
      </trkpt>
      <trkpt lat="44.81186" lon="0.71291">
        <ele>32</ele>
        <time>2012-05-13T07:24:13Z</time>
      </trkpt>
      <trkpt lat="44.812" lon="0.71264">
        <ele>32</ele>
        <time>2012-05-13T07:24:18Z</time>
      </trkpt>
      <trkpt lat="44.8121" lon="0.71239">
        <ele>32</ele>
        <time>2012-05-13T07:24:23Z</time>
      </trkpt>
      <trkpt lat="44.81223" lon="0.71213">
        <ele>32</ele>
        <time>2012-05-13T07:24:28Z</time>
      </trkpt>
      <trkpt lat="44.81235" lon="0.71187">
        <ele>32</ele>
        <time>2012-05-13T07:24:33Z</time>
      </trkpt>
      <trkpt lat="44.81246" lon="0.71162">
        <ele>32</ele>
        <time>2012-05-13T07:24:38Z</time>
      </trkpt>
      <trkpt lat="44.81254" lon="0.71143">
        <ele>35</ele>
        <time>2012-05-13T07:24:43Z</time>
      </trkpt>
      <trkpt lat="44.81243" lon="0.71143">
        <ele>37</ele>
        <time>2012-05-13T07:24:48Z</time>
      </trkpt>
      <trkpt lat="44.81228" lon="0.71153">
        <ele>39</ele>
        <time>2012-05-13T07:24:53Z</time>
      </trkpt>
      <trkpt lat="44.81215" lon="0.71163">
        <ele>41</ele>
        <time>2012-05-13T07:24:58Z</time>
      </trkpt>
      <trkpt lat="44.81202" lon="0.71172">
        <ele>42</ele>
        <time>2012-05-13T07:25:03Z</time>
      </trkpt>
      <trkpt lat="44.81188" lon="0.71178">
        <ele>44</ele>
        <time>2012-05-13T07:25:08Z</time>
      </trkpt>
      <trkpt lat="44.81177" lon="0.71182">
        <ele>46</ele>
        <time>2012-05-13T07:25:13Z</time>
      </trkpt>
      <trkpt lat="44.81165" lon="0.71185">
        <ele>49</ele>
        <time>2012-05-13T07:25:18Z</time>
      </trkpt>
      <trkpt lat="44.8115" lon="0.71189">
        <ele>52</ele>
        <time>2012-05-13T07:25:23Z</time>
      </trkpt>
      <trkpt lat="44.81136" lon="0.71194">
        <ele>55</ele>
        <time>2012-05-13T07:25:28Z</time>
      </trkpt>
      <trkpt lat="44.81122" lon="0.712">
        <ele>56</ele>
        <time>2012-05-13T07:25:33Z</time>
      </trkpt>
      <trkpt lat="44.81105" lon="0.71207">
        <ele>56</ele>
        <time>2012-05-13T07:25:38Z</time>
      </trkpt>
      <trkpt lat="44.81085" lon="0.71213">
        <ele>57</ele>
        <time>2012-05-13T07:25:43Z</time>
      </trkpt>
      <trkpt lat="44.81072" lon="0.71197">
        <ele>57</ele>
        <time>2012-05-13T07:25:48Z</time>
      </trkpt>
      <trkpt lat="44.8106" lon="0.71173">
        <ele>57</ele>
        <time>2012-05-13T07:25:53Z</time>
      </trkpt>
      <trkpt lat="44.81036" lon="0.71152">
        <ele>56</ele>
        <time>2012-05-13T07:25:58Z</time>
      </trkpt>
      <trkpt lat="44.8101" lon="0.71143">
        <ele>54</ele>
        <time>2012-05-13T07:26:03Z</time>
      </trkpt>
      <trkpt lat="44.80988" lon="0.7113">
        <ele>50</ele>
        <time>2012-05-13T07:26:08Z</time>
      </trkpt>
      <trkpt lat="44.80962" lon="0.71116">
        <ele>47</ele>
        <time>2012-05-13T07:26:13Z</time>
      </trkpt>
      <trkpt lat="44.80936" lon="0.711">
        <ele>46</ele>
        <time>2012-05-13T07:26:18Z</time>
      </trkpt>
      <trkpt lat="44.80912" lon="0.71084">
        <ele>46</ele>
        <time>2012-05-13T07:26:23Z</time>
      </trkpt>
      <trkpt lat="44.80893" lon="0.71071">
        <ele>50</ele>
        <time>2012-05-13T07:26:28Z</time>
      </trkpt>
      <trkpt lat="44.80871" lon="0.71068">
        <ele>54</ele>
        <time>2012-05-13T07:26:33Z</time>
      </trkpt>
      <trkpt lat="44.8085" lon="0.7107">
        <ele>55</ele>
        <time>2012-05-13T07:26:38Z</time>
      </trkpt>
      <trkpt lat="44.80828" lon="0.71071">
        <ele>59</ele>
        <time>2012-05-13T07:26:43Z</time>
      </trkpt>
      <trkpt lat="44.8081" lon="0.71074">
        <ele>60</ele>
        <time>2012-05-13T07:26:48Z</time>
      </trkpt>
      <trkpt lat="44.80792" lon="0.71078">
        <ele>60</ele>
        <time>2012-05-13T07:26:53Z</time>
      </trkpt>
      <trkpt lat="44.80773" lon="0.71081">
        <ele>60</ele>
        <time>2012-05-13T07:26:58Z</time>
      </trkpt>
      <trkpt lat="44.80754" lon="0.71089">
        <ele>60</ele>
        <time>2012-05-13T07:27:03Z</time>
      </trkpt>
      <trkpt lat="44.80736" lon="0.71095">
        <ele>60</ele>
        <time>2012-05-13T07:27:08Z</time>
      </trkpt>
      <trkpt lat="44.80717" lon="0.71101">
        <ele>57</ele>
        <time>2012-05-13T07:27:13Z</time>
      </trkpt>
      <trkpt lat="44.80699" lon="0.71102">
        <ele>56</ele>
        <time>2012-05-13T07:27:18Z</time>
      </trkpt>
      <trkpt lat="44.8068" lon="0.711">
        <ele>55</ele>
        <time>2012-05-13T07:27:23Z</time>
      </trkpt>
      <trkpt lat="44.80661" lon="0.71097">
        <ele>54</ele>
        <time>2012-05-13T07:27:28Z</time>
      </trkpt>
      <trkpt lat="44.80638" lon="0.71092">
        <ele>54</ele>
        <time>2012-05-13T07:27:33Z</time>
      </trkpt>
      <trkpt lat="44.80616" lon="0.7109">
        <ele>55</ele>
        <time>2012-05-13T07:27:38Z</time>
      </trkpt>
      <trkpt lat="44.80597" lon="0.71088">
        <ele>56</ele>
        <time>2012-05-13T07:27:43Z</time>
      </trkpt>
      <trkpt lat="44.80581" lon="0.71084">
        <ele>58</ele>
        <time>2012-05-13T07:27:48Z</time>
      </trkpt>
      <trkpt lat="44.8056" lon="0.71081">
        <ele>58</ele>
        <time>2012-05-13T07:27:53Z</time>
      </trkpt>
      <trkpt lat="44.8054" lon="0.71081">
        <ele>61</ele>
        <time>2012-05-13T07:27:58Z</time>
      </trkpt>
      <trkpt lat="44.80523" lon="0.71069">
        <ele>62</ele>
        <time>2012-05-13T07:28:03Z</time>
      </trkpt>
      <trkpt lat="44.80506" lon="0.71055">
        <ele>63</ele>
        <time>2012-05-13T07:28:08Z</time>
      </trkpt>
      <trkpt lat="44.80491" lon="0.71038">
        <ele>66</ele>
        <time>2012-05-13T07:28:13Z</time>
      </trkpt>
      <trkpt lat="44.80476" lon="0.71021">
        <ele>71</ele>
        <time>2012-05-13T07:28:18Z</time>
      </trkpt>
      <trkpt lat="44.80462" lon="0.71008">
        <ele>74</ele>
        <time>2012-05-13T07:28:23Z</time>
      </trkpt>
      <trkpt lat="44.80455" lon="0.70989">
        <ele>77</ele>
        <time>2012-05-13T07:28:28Z</time>
      </trkpt>
      <trkpt lat="44.80453" lon="0.70966">
        <ele>77</ele>
        <time>2012-05-13T07:28:33Z</time>
      </trkpt>
      <trkpt lat="44.80453" lon="0.70946">
        <ele>77</ele>
        <time>2012-05-13T07:28:38Z</time>
      </trkpt>
      <trkpt lat="44.80452" lon="0.70927">
        <ele>77</ele>
        <time>2012-05-13T07:28:43Z</time>
      </trkpt>
      <trkpt lat="44.80458" lon="0.70908">
        <ele>77</ele>
        <time>2012-05-13T07:28:48Z</time>
      </trkpt>
      <trkpt lat="44.80465" lon="0.70892">
        <ele>75</ele>
        <time>2012-05-13T07:28:53Z</time>
      </trkpt>
      <trkpt lat="44.80474" lon="0.70876">
        <ele>73</ele>
        <time>2012-05-13T07:28:58Z</time>
      </trkpt>
      <trkpt lat="44.80484" lon="0.7086">
        <ele>71</ele>
        <time>2012-05-13T07:29:03Z</time>
      </trkpt>
      <trkpt lat="44.80493" lon="0.70842">
        <ele>70</ele>
        <time>2012-05-13T07:29:08Z</time>
      </trkpt>
      <trkpt lat="44.80501" lon="0.70829">
        <ele>70</ele>
        <time>2012-05-13T07:29:13Z</time>
      </trkpt>
      <trkpt lat="44.80511" lon="0.70813">
        <ele>70</ele>
        <time>2012-05-13T07:29:18Z</time>
      </trkpt>
      <trkpt lat="44.80518" lon="0.70795">
        <ele>70</ele>
        <time>2012-05-13T07:29:23Z</time>
      </trkpt>
      <trkpt lat="44.80525" lon="0.70783">
        <ele>71</ele>
        <time>2012-05-13T07:29:28Z</time>
      </trkpt>
      <trkpt lat="44.80531" lon="0.70773">
        <ele>77</ele>
        <time>2012-05-13T07:29:33Z</time>
      </trkpt>
      <trkpt lat="44.80538" lon="0.70764">
        <ele>83</ele>
        <time>2012-05-13T07:29:38Z</time>
      </trkpt>
      <trkpt lat="44.80545" lon="0.70756">
        <ele>88</ele>
        <time>2012-05-13T07:29:43Z</time>
      </trkpt>
      <trkpt lat="44.8055" lon="0.7075">
        <ele>94</ele>
        <time>2012-05-13T07:29:49Z</time>
      </trkpt>
      <trkpt lat="44.80556" lon="0.70744">
        <ele>99</ele>
        <time>2012-05-13T07:29:54Z</time>
      </trkpt>
      <trkpt lat="44.80563" lon="0.70737">
        <ele>102</ele>
        <time>2012-05-13T07:30:00Z</time>
      </trkpt>
      <trkpt lat="44.80567" lon="0.70729">
        <ele>102</ele>
        <time>2012-05-13T07:30:05Z</time>
      </trkpt>
      <trkpt lat="44.8057" lon="0.70717">
        <ele>102</ele>
        <time>2012-05-13T07:30:10Z</time>
      </trkpt>
      <trkpt lat="44.80571" lon="0.70708">
        <ele>102</ele>
        <time>2012-05-13T07:30:15Z</time>
      </trkpt>
      <trkpt lat="44.80568" lon="0.707">
        <ele>97</ele>
        <time>2012-05-13T07:30:20Z</time>
      </trkpt>
      <trkpt lat="44.80566" lon="0.70694">
        <ele>92</ele>
        <time>2012-05-13T07:30:25Z</time>
      </trkpt>
      <trkpt lat="44.80563" lon="0.70688">
        <ele>91</ele>
        <time>2012-05-13T07:30:30Z</time>
      </trkpt>
      <trkpt lat="44.8056" lon="0.70679">
        <ele>91</ele>
        <time>2012-05-13T07:30:35Z</time>
      </trkpt>
      <trkpt lat="44.80554" lon="0.70668">
        <ele>87</ele>
        <time>2012-05-13T07:30:40Z</time>
      </trkpt>
      <trkpt lat="44.80548" lon="0.70661">
        <ele>85</ele>
        <time>2012-05-13T07:30:45Z</time>
      </trkpt>
      <trkpt lat="44.8054" lon="0.70655">
        <ele>83</ele>
        <time>2012-05-13T07:30:50Z</time>
      </trkpt>
      <trkpt lat="44.80543" lon="0.70646">
        <ele>85</ele>
        <time>2012-05-13T07:30:56Z</time>
      </trkpt>
      <trkpt lat="44.80544" lon="0.70635">
        <ele>88</ele>
        <time>2012-05-13T07:31:01Z</time>
      </trkpt>
      <trkpt lat="44.80543" lon="0.70624">
        <ele>88</ele>
        <time>2012-05-13T07:31:06Z</time>
      </trkpt>
      <trkpt lat="44.80544" lon="0.70616">
        <ele>92</ele>
        <time>2012-05-13T07:31:11Z</time>
      </trkpt>
      <trkpt lat="44.80547" lon="0.70606">
        <ele>97</ele>
        <time>2012-05-13T07:31:16Z</time>
      </trkpt>
      <trkpt lat="44.8055" lon="0.70596">
        <ele>101</ele>
        <time>2012-05-13T07:31:21Z</time>
      </trkpt>
      <trkpt lat="44.8055" lon="0.70586">
        <ele>103</ele>
        <time>2012-05-13T07:31:27Z</time>
      </trkpt>
      <trkpt lat="44.80548" lon="0.70576">
        <ele>108</ele>
        <time>2012-05-13T07:31:32Z</time>
      </trkpt>
      <trkpt lat="44.80545" lon="0.70565">
        <ele>109</ele>
        <time>2012-05-13T07:31:38Z</time>
      </trkpt>
      <trkpt lat="44.80543" lon="0.70557">
        <ele>109</ele>
        <time>2012-05-13T07:31:43Z</time>
      </trkpt>
      <trkpt lat="44.80537" lon="0.70549">
        <ele>109</ele>
        <time>2012-05-13T07:31:48Z</time>
      </trkpt>
      <trkpt lat="44.80534" lon="0.70542">
        <ele>109</ele>
        <time>2012-05-13T07:31:54Z</time>
      </trkpt>
      <trkpt lat="44.80533" lon="0.70534">
        <ele>109</ele>
        <time>2012-05-13T07:31:59Z</time>
      </trkpt>
      <trkpt lat="44.80534" lon="0.70523">
        <ele>109</ele>
        <time>2012-05-13T07:32:04Z</time>
      </trkpt>
      <trkpt lat="44.80536" lon="0.70511">
        <ele>110</ele>
        <time>2012-05-13T07:32:09Z</time>
      </trkpt>
      <trkpt lat="44.80536" lon="0.70501">
        <ele>115</ele>
        <time>2012-05-13T07:32:14Z</time>
      </trkpt>
      <trkpt lat="44.80537" lon="0.7049">
        <ele>120</ele>
        <time>2012-05-13T07:32:19Z</time>
      </trkpt>
      <trkpt lat="44.80533" lon="0.70479">
        <ele>123</ele>
        <time>2012-05-13T07:32:24Z</time>
      </trkpt>
      <trkpt lat="44.80527" lon="0.7047">
        <ele>123</ele>
        <time>2012-05-13T07:32:29Z</time>
      </trkpt>
      <trkpt lat="44.8053" lon="0.70461">
        <ele>123</ele>
        <time>2012-05-13T07:32:35Z</time>
      </trkpt>
      <trkpt lat="44.80532" lon="0.70454">
        <ele>123</ele>
        <time>2012-05-13T07:32:40Z</time>
      </trkpt>
      <trkpt lat="44.80533" lon="0.70442">
        <ele>123</ele>
        <time>2012-05-13T07:32:45Z</time>
      </trkpt>
      <trkpt lat="44.80532" lon="0.70429">
        <ele>120</ele>
        <time>2012-05-13T07:32:50Z</time>
      </trkpt>
      <trkpt lat="44.80531" lon="0.70416">
        <ele>117</ele>
        <time>2012-05-13T07:32:55Z</time>
      </trkpt>
      <trkpt lat="44.80533" lon="0.70404">
        <ele>117</ele>
        <time>2012-05-13T07:33:00Z</time>
      </trkpt>
      <trkpt lat="44.80537" lon="0.70389">
        <ele>121</ele>
        <time>2012-05-13T07:33:05Z</time>
      </trkpt>
      <trkpt lat="44.8054" lon="0.70375">
        <ele>123</ele>
        <time>2012-05-13T07:33:10Z</time>
      </trkpt>
      <trkpt lat="44.80543" lon="0.70369">
        <ele>124</ele>
        <time>2012-05-13T07:33:15Z</time>
      </trkpt>
      <trkpt lat="44.80545" lon="0.70366">
        <ele>127</ele>
        <time>2012-05-13T07:33:20Z</time>
      </trkpt>
      <trkpt lat="44.80545" lon="0.70363">
        <ele>127</ele>
        <time>2012-05-13T07:33:27Z</time>
      </trkpt>
      <trkpt lat="44.80545" lon="0.70359">
        <ele>127</ele>
        <time>2012-05-13T07:33:34Z</time>
      </trkpt>
      <trkpt lat="44.80546" lon="0.70358">
        <ele>127</ele>
        <time>2012-05-13T07:33:41Z</time>
      </trkpt>
      <trkpt lat="44.80546" lon="0.70359">
        <ele>129</ele>
        <time>2012-05-13T07:33:54Z</time>
      </trkpt>
      <trkpt lat="44.80543" lon="0.70359">
        <ele>132</ele>
        <time>2012-05-13T07:34:00Z</time>
      </trkpt>
      <trkpt lat="44.80535" lon="0.7036">
        <ele>133</ele>
        <time>2012-05-13T07:34:05Z</time>
      </trkpt>
      <trkpt lat="44.80524" lon="0.70359">
        <ele>133</ele>
        <time>2012-05-13T07:34:10Z</time>
      </trkpt>
      <trkpt lat="44.80514" lon="0.70357">
        <ele>133</ele>
        <time>2012-05-13T07:34:15Z</time>
      </trkpt>
      <trkpt lat="44.80504" lon="0.70355">
        <ele>133</ele>
        <time>2012-05-13T07:34:20Z</time>
      </trkpt>
      <trkpt lat="44.80493" lon="0.70351">
        <ele>132</ele>
        <time>2012-05-13T07:34:25Z</time>
      </trkpt>
      <trkpt lat="44.80486" lon="0.70344">
        <ele>131</ele>
        <time>2012-05-13T07:34:30Z</time>
      </trkpt>
      <trkpt lat="44.80477" lon="0.70337">
        <ele>131</ele>
        <time>2012-05-13T07:34:35Z</time>
      </trkpt>
      <trkpt lat="44.80468" lon="0.70329">
        <ele>131</ele>
        <time>2012-05-13T07:34:40Z</time>
      </trkpt>
      <trkpt lat="44.80459" lon="0.70319">
        <ele>131</ele>
        <time>2012-05-13T07:34:45Z</time>
      </trkpt>
      <trkpt lat="44.80452" lon="0.7031">
        <ele>131</ele>
        <time>2012-05-13T07:34:50Z</time>
      </trkpt>
      <trkpt lat="44.80445" lon="0.70298">
        <ele>132</ele>
        <time>2012-05-13T07:34:55Z</time>
      </trkpt>
      <trkpt lat="44.80436" lon="0.70283">
        <ele>132</ele>
        <time>2012-05-13T07:35:00Z</time>
      </trkpt>
      <trkpt lat="44.80432" lon="0.70265">
        <ele>130</ele>
        <time>2012-05-13T07:35:05Z</time>
      </trkpt>
      <trkpt lat="44.80427" lon="0.70244">
        <ele>128</ele>
        <time>2012-05-13T07:35:10Z</time>
      </trkpt>
      <trkpt lat="44.80415" lon="0.70224">
        <ele>124</ele>
        <time>2012-05-13T07:35:15Z</time>
      </trkpt>
      <trkpt lat="44.80394" lon="0.702">
        <ele>122</ele>
        <time>2012-05-13T07:35:20Z</time>
      </trkpt>
      <trkpt lat="44.80372" lon="0.70204">
        <ele>118</ele>
        <time>2012-05-13T07:35:25Z</time>
      </trkpt>
      <trkpt lat="44.8035" lon="0.70224">
        <ele>117</ele>
        <time>2012-05-13T07:35:30Z</time>
      </trkpt>
      <trkpt lat="44.80326" lon="0.70244">
        <ele>117</ele>
        <time>2012-05-13T07:35:35Z</time>
      </trkpt>
      <trkpt lat="44.803" lon="0.70261">
        <ele>117</ele>
        <time>2012-05-13T07:35:40Z</time>
      </trkpt>
      <trkpt lat="44.80278" lon="0.70272">
        <ele>120</ele>
        <time>2012-05-13T07:35:45Z</time>
      </trkpt>
      <trkpt lat="44.80257" lon="0.70279">
        <ele>122</ele>
        <time>2012-05-13T07:35:50Z</time>
      </trkpt>
      <trkpt lat="44.80238" lon="0.70284">
        <ele>123</ele>
        <time>2012-05-13T07:35:55Z</time>
      </trkpt>
      <trkpt lat="44.8022" lon="0.70289">
        <ele>124</ele>
        <time>2012-05-13T07:36:00Z</time>
      </trkpt>
      <trkpt lat="44.80204" lon="0.70296">
        <ele>126</ele>
        <time>2012-05-13T07:36:05Z</time>
      </trkpt>
      <trkpt lat="44.80188" lon="0.70302">
        <ele>127</ele>
        <time>2012-05-13T07:36:10Z</time>
      </trkpt>
      <trkpt lat="44.80173" lon="0.70308">
        <ele>128</ele>
        <time>2012-05-13T07:36:15Z</time>
      </trkpt>
      <trkpt lat="44.80159" lon="0.70312">
        <ele>131</ele>
        <time>2012-05-13T07:36:20Z</time>
      </trkpt>
      <trkpt lat="44.8015" lon="0.70309">
        <ele>131</ele>
        <time>2012-05-13T07:36:25Z</time>
      </trkpt>
      <trkpt lat="44.80138" lon="0.70297">
        <ele>132</ele>
        <time>2012-05-13T07:36:30Z</time>
      </trkpt>
      <trkpt lat="44.80126" lon="0.70288">
        <ele>133</ele>
        <time>2012-05-13T07:36:35Z</time>
      </trkpt>
      <trkpt lat="44.80115" lon="0.70281">
        <ele>136</ele>
        <time>2012-05-13T07:36:40Z</time>
      </trkpt>
      <trkpt lat="44.80103" lon="0.70277">
        <ele>140</ele>
        <time>2012-05-13T07:36:45Z</time>
      </trkpt>
      <trkpt lat="44.80087" lon="0.70276">
        <ele>140</ele>
        <time>2012-05-13T07:36:50Z</time>
      </trkpt>
      <trkpt lat="44.80072" lon="0.70273">
        <ele>140</ele>
        <time>2012-05-13T07:36:55Z</time>
      </trkpt>
      <trkpt lat="44.80058" lon="0.70271">
        <ele>140</ele>
        <time>2012-05-13T07:37:00Z</time>
      </trkpt>
      <trkpt lat="44.80044" lon="0.70271">
        <ele>139</ele>
        <time>2012-05-13T07:37:05Z</time>
      </trkpt>
      <trkpt lat="44.80037" lon="0.70256">
        <ele>138</ele>
        <time>2012-05-13T07:37:10Z</time>
      </trkpt>
      <trkpt lat="44.80039" lon="0.7023">
        <ele>138</ele>
        <time>2012-05-13T07:37:15Z</time>
      </trkpt>
      <trkpt lat="44.80042" lon="0.70195">
        <ele>137</ele>
        <time>2012-05-13T07:37:20Z</time>
      </trkpt>
      <trkpt lat="44.80048" lon="0.70158">
        <ele>135</ele>
        <time>2012-05-13T07:37:25Z</time>
      </trkpt>
      <trkpt lat="44.80048" lon="0.70118">
        <ele>132</ele>
        <time>2012-05-13T07:37:30Z</time>
      </trkpt>
      <trkpt lat="44.8004" lon="0.70079">
        <ele>129</ele>
        <time>2012-05-13T07:37:35Z</time>
      </trkpt>
      <trkpt lat="44.80028" lon="0.70037">
        <ele>129</ele>
        <time>2012-05-13T07:37:40Z</time>
      </trkpt>
      <trkpt lat="44.80008" lon="0.70007">
        <ele>129</ele>
        <time>2012-05-13T07:37:45Z</time>
      </trkpt>
      <trkpt lat="44.79973" lon="0.7">
        <ele>130</ele>
        <time>2012-05-13T07:37:50Z</time>
      </trkpt>
      <trkpt lat="44.79945" lon="0.69963">
        <ele>130</ele>
        <time>2012-05-13T07:37:55Z</time>
      </trkpt>
      <trkpt lat="44.79927" lon="0.69932">
        <ele>130</ele>
        <time>2012-05-13T07:38:00Z</time>
      </trkpt>
      <trkpt lat="44.79892" lon="0.69937">
        <ele>130</ele>
        <time>2012-05-13T07:38:05Z</time>
      </trkpt>
      <trkpt lat="44.79832" lon="0.69911">
        <ele>128</ele>
        <time>2012-05-13T07:38:11Z</time>
      </trkpt>
      <trkpt lat="44.79787" lon="0.69886">
        <ele>123</ele>
        <time>2012-05-13T07:38:16Z</time>
      </trkpt>
      <trkpt lat="44.7976" lon="0.69875">
        <ele>119</ele>
        <time>2012-05-13T07:38:21Z</time>
      </trkpt>
      <trkpt lat="44.79749" lon="0.69838">
        <ele>114</ele>
        <time>2012-05-13T07:38:26Z</time>
      </trkpt>
      <trkpt lat="44.79728" lon="0.6979">
        <ele>112</ele>
        <time>2012-05-13T07:38:31Z</time>
      </trkpt>
      <trkpt lat="44.79698" lon="0.6975">
        <ele>110</ele>
        <time>2012-05-13T07:38:36Z</time>
      </trkpt>
      <trkpt lat="44.79683" lon="0.69705">
        <ele>108</ele>
        <time>2012-05-13T07:38:41Z</time>
      </trkpt>
      <trkpt lat="44.79662" lon="0.69657">
        <ele>107</ele>
        <time>2012-05-13T07:38:46Z</time>
      </trkpt>
      <trkpt lat="44.79662" lon="0.69607">
        <ele>107</ele>
        <time>2012-05-13T07:38:51Z</time>
      </trkpt>
      <trkpt lat="44.79654" lon="0.69553">
        <ele>107</ele>
        <time>2012-05-13T07:38:56Z</time>
      </trkpt>
      <trkpt lat="44.79641" lon="0.69497">
        <ele>107</ele>
        <time>2012-05-13T07:39:01Z</time>
      </trkpt>
      <trkpt lat="44.79615" lon="0.69454">
        <ele>107</ele>
        <time>2012-05-13T07:39:06Z</time>
      </trkpt>
      <trkpt lat="44.79597" lon="0.69415">
        <ele>107</ele>
        <time>2012-05-13T07:39:11Z</time>
      </trkpt>
      <trkpt lat="44.79578" lon="0.694">
        <ele>107</ele>
        <time>2012-05-13T07:39:16Z</time>
      </trkpt>
      <trkpt lat="44.79573" lon="0.69371">
        <ele>102</ele>
        <time>2012-05-13T07:39:21Z</time>
      </trkpt>
      <trkpt lat="44.79573" lon="0.69324">
        <ele>100</ele>
        <time>2012-05-13T07:39:26Z</time>
      </trkpt>
      <trkpt lat="44.79572" lon="0.69288">
        <ele>100</ele>
        <time>2012-05-13T07:39:31Z</time>
      </trkpt>
      <trkpt lat="44.79561" lon="0.69255">
        <ele>99</ele>
        <time>2012-05-13T07:39:36Z</time>
      </trkpt>
      <trkpt lat="44.7956" lon="0.69222">
        <ele>99</ele>
        <time>2012-05-13T07:39:41Z</time>
      </trkpt>
      <trkpt lat="44.79558" lon="0.69184">
        <ele>99</ele>
        <time>2012-05-13T07:39:46Z</time>
      </trkpt>
      <trkpt lat="44.79558" lon="0.69141">
        <ele>99</ele>
        <time>2012-05-13T07:39:51Z</time>
      </trkpt>
      <trkpt lat="44.79562" lon="0.69093">
        <ele>99</ele>
        <time>2012-05-13T07:39:56Z</time>
      </trkpt>
      <trkpt lat="44.79554" lon="0.69046">
        <ele>97</ele>
        <time>2012-05-13T07:40:01Z</time>
      </trkpt>
      <trkpt lat="44.7954" lon="0.68992">
        <ele>92</ele>
        <time>2012-05-13T07:40:06Z</time>
      </trkpt>
      <trkpt lat="44.79529" lon="0.68937">
        <ele>91</ele>
        <time>2012-05-13T07:40:11Z</time>
      </trkpt>
      <trkpt lat="44.79525" lon="0.68887">
        <ele>91</ele>
        <time>2012-05-13T07:40:16Z</time>
      </trkpt>
      <trkpt lat="44.79525" lon="0.68851">
        <ele>90</ele>
        <time>2012-05-13T07:40:21Z</time>
      </trkpt>
      <trkpt lat="44.79504" lon="0.68831">
        <ele>89</ele>
        <time>2012-05-13T07:40:26Z</time>
      </trkpt>
      <trkpt lat="44.79485" lon="0.68827">
        <ele>87</ele>
        <time>2012-05-13T07:40:31Z</time>
      </trkpt>
      <trkpt lat="44.79464" lon="0.68841">
        <ele>84</ele>
        <time>2012-05-13T07:40:36Z</time>
      </trkpt>
      <trkpt lat="44.79448" lon="0.68843">
        <ele>83</ele>
        <time>2012-05-13T07:40:41Z</time>
      </trkpt>
      <trkpt lat="44.79431" lon="0.6884">
        <ele>82</ele>
        <time>2012-05-13T07:40:46Z</time>
      </trkpt>
      <trkpt lat="44.79415" lon="0.6884">
        <ele>82</ele>
        <time>2012-05-13T07:40:51Z</time>
      </trkpt>
      <trkpt lat="44.79398" lon="0.68843">
        <ele>82</ele>
        <time>2012-05-13T07:40:56Z</time>
      </trkpt>
      <trkpt lat="44.79381" lon="0.68843">
        <ele>82</ele>
        <time>2012-05-13T07:41:01Z</time>
      </trkpt>
      <trkpt lat="44.79361" lon="0.68842">
        <ele>82</ele>
        <time>2012-05-13T07:41:06Z</time>
      </trkpt>
      <trkpt lat="44.79347" lon="0.68832">
        <ele>82</ele>
        <time>2012-05-13T07:41:11Z</time>
      </trkpt>
      <trkpt lat="44.79342" lon="0.68821">
        <ele>84</ele>
        <time>2012-05-13T07:41:16Z</time>
      </trkpt>
      <trkpt lat="44.79338" lon="0.68806">
        <ele>86</ele>
        <time>2012-05-13T07:41:21Z</time>
      </trkpt>
      <trkpt lat="44.7933" lon="0.68794">
        <ele>86</ele>
        <time>2012-05-13T07:41:26Z</time>
      </trkpt>
      <trkpt lat="44.79318" lon="0.68789">
        <ele>89</ele>
        <time>2012-05-13T07:41:31Z</time>
      </trkpt>
      <trkpt lat="44.79306" lon="0.68782">
        <ele>91</ele>
        <time>2012-05-13T07:41:36Z</time>
      </trkpt>
      <trkpt lat="44.79293" lon="0.68769">
        <ele>91</ele>
        <time>2012-05-13T07:41:41Z</time>
      </trkpt>
      <trkpt lat="44.79279" lon="0.68755">
        <ele>91</ele>
        <time>2012-05-13T07:41:46Z</time>
      </trkpt>
      <trkpt lat="44.79258" lon="0.68749">
        <ele>89</ele>
        <time>2012-05-13T07:41:51Z</time>
      </trkpt>
      <trkpt lat="44.79243" lon="0.68747">
        <ele>89</ele>
        <time>2012-05-13T07:41:56Z</time>
      </trkpt>
      <trkpt lat="44.79227" lon="0.68745">
        <ele>89</ele>
        <time>2012-05-13T07:42:01Z</time>
      </trkpt>
      <trkpt lat="44.79211" lon="0.68754">
        <ele>89</ele>
        <time>2012-05-13T07:42:06Z</time>
      </trkpt>
      <trkpt lat="44.79203" lon="0.68758">
        <ele>89</ele>
        <time>2012-05-13T07:42:11Z</time>
      </trkpt>
      <trkpt lat="44.79193" lon="0.68761">
        <ele>89</ele>
        <time>2012-05-13T07:42:16Z</time>
      </trkpt>
      <trkpt lat="44.79181" lon="0.68769">
        <ele>89</ele>
        <time>2012-05-13T07:42:21Z</time>
      </trkpt>
      <trkpt lat="44.79171" lon="0.68785">
        <ele>90</ele>
        <time>2012-05-13T07:42:26Z</time>
      </trkpt>
      <trkpt lat="44.79161" lon="0.688">
        <ele>93</ele>
        <time>2012-05-13T07:42:31Z</time>
      </trkpt>
      <trkpt lat="44.79151" lon="0.68813">
        <ele>96</ele>
        <time>2012-05-13T07:42:36Z</time>
      </trkpt>
      <trkpt lat="44.79139" lon="0.68824">
        <ele>98</ele>
        <time>2012-05-13T07:42:41Z</time>
      </trkpt>
      <trkpt lat="44.79129" lon="0.68845">
        <ele>101</ele>
        <time>2012-05-13T07:42:47Z</time>
      </trkpt>
      <trkpt lat="44.79121" lon="0.68867">
        <ele>105</ele>
        <time>2012-05-13T07:42:52Z</time>
      </trkpt>
      <trkpt lat="44.7911" lon="0.68884">
        <ele>107</ele>
        <time>2012-05-13T07:42:58Z</time>
      </trkpt>
      <trkpt lat="44.79103" lon="0.68888">
        <ele>107</ele>
        <time>2012-05-13T07:43:04Z</time>
      </trkpt>
      <trkpt lat="44.79099" lon="0.68881">
        <ele>108</ele>
        <time>2012-05-13T07:43:09Z</time>
      </trkpt>
      <trkpt lat="44.79096" lon="0.6887">
        <ele>108</ele>
        <time>2012-05-13T07:43:15Z</time>
      </trkpt>
      <trkpt lat="44.79094" lon="0.68862">
        <ele>108</ele>
        <time>2012-05-13T07:43:20Z</time>
      </trkpt>
      <trkpt lat="44.79093" lon="0.68852">
        <ele>107</ele>
        <time>2012-05-13T07:43:25Z</time>
      </trkpt>
      <trkpt lat="44.79093" lon="0.68843">
        <ele>106</ele>
        <time>2012-05-13T07:43:30Z</time>
      </trkpt>
      <trkpt lat="44.79094" lon="0.68834">
        <ele>106</ele>
        <time>2012-05-13T07:43:35Z</time>
      </trkpt>
      <trkpt lat="44.79092" lon="0.68825">
        <ele>106</ele>
        <time>2012-05-13T07:43:40Z</time>
      </trkpt>
      <trkpt lat="44.79086" lon="0.68818">
        <ele>109</ele>
        <time>2012-05-13T07:43:46Z</time>
      </trkpt>
      <trkpt lat="44.79079" lon="0.68815">
        <ele>110</ele>
        <time>2012-05-13T07:43:51Z</time>
      </trkpt>
      <trkpt lat="44.79071" lon="0.68814">
        <ele>110</ele>
        <time>2012-05-13T07:43:56Z</time>
      </trkpt>
      <trkpt lat="44.79063" lon="0.68814">
        <ele>111</ele>
        <time>2012-05-13T07:44:01Z</time>
      </trkpt>
      <trkpt lat="44.79054" lon="0.68815">
        <ele>111</ele>
        <time>2012-05-13T07:44:07Z</time>
      </trkpt>
      <trkpt lat="44.79045" lon="0.68816">
        <ele>112</ele>
        <time>2012-05-13T07:44:13Z</time>
      </trkpt>
      <trkpt lat="44.79038" lon="0.68816">
        <ele>114</ele>
        <time>2012-05-13T07:44:18Z</time>
      </trkpt>
      <trkpt lat="44.7903" lon="0.68815">
        <ele>115</ele>
        <time>2012-05-13T07:44:23Z</time>
      </trkpt>
      <trkpt lat="44.79022" lon="0.68814">
        <ele>116</ele>
        <time>2012-05-13T07:44:28Z</time>
      </trkpt>
      <trkpt lat="44.79014" lon="0.68812">
        <ele>117</ele>
        <time>2012-05-13T07:44:33Z</time>
      </trkpt>
      <trkpt lat="44.79004" lon="0.6881">
        <ele>117</ele>
        <time>2012-05-13T07:44:38Z</time>
      </trkpt>
      <trkpt lat="44.78996" lon="0.68805">
        <ele>118</ele>
        <time>2012-05-13T07:44:43Z</time>
      </trkpt>
      <trkpt lat="44.78986" lon="0.68804">
        <ele>118</ele>
        <time>2012-05-13T07:44:48Z</time>
      </trkpt>
      <trkpt lat="44.78974" lon="0.68802">
        <ele>119</ele>
        <time>2012-05-13T07:44:53Z</time>
      </trkpt>
      <trkpt lat="44.78962" lon="0.68799">
        <ele>120</ele>
        <time>2012-05-13T07:44:58Z</time>
      </trkpt>
      <trkpt lat="44.78952" lon="0.68797">
        <ele>122</ele>
        <time>2012-05-13T07:45:03Z</time>
      </trkpt>
      <trkpt lat="44.78939" lon="0.68796">
        <ele>123</ele>
        <time>2012-05-13T07:45:09Z</time>
      </trkpt>
      <trkpt lat="44.78925" lon="0.68793">
        <ele>124</ele>
        <time>2012-05-13T07:45:15Z</time>
      </trkpt>
      <trkpt lat="44.78918" lon="0.68786">
        <ele>125</ele>
        <time>2012-05-13T07:45:21Z</time>
      </trkpt>
      <trkpt lat="44.78914" lon="0.68778">
        <ele>125</ele>
        <time>2012-05-13T07:45:26Z</time>
      </trkpt>
      <trkpt lat="44.78914" lon="0.68767">
        <ele>125</ele>
        <time>2012-05-13T07:45:31Z</time>
      </trkpt>
      <trkpt lat="44.78914" lon="0.68756">
        <ele>125</ele>
        <time>2012-05-13T07:45:36Z</time>
      </trkpt>
      <trkpt lat="44.78912" lon="0.68748">
        <ele>125</ele>
        <time>2012-05-13T07:45:41Z</time>
      </trkpt>
      <trkpt lat="44.78907" lon="0.6874">
        <ele>125</ele>
        <time>2012-05-13T07:45:47Z</time>
      </trkpt>
      <trkpt lat="44.78903" lon="0.68726">
        <ele>127</ele>
        <time>2012-05-13T07:45:54Z</time>
      </trkpt>
      <trkpt lat="44.78902" lon="0.68716">
        <ele>127</ele>
        <time>2012-05-13T07:45:59Z</time>
      </trkpt>
      <trkpt lat="44.78902" lon="0.68703">
        <ele>128</ele>
        <time>2012-05-13T07:46:04Z</time>
      </trkpt>
      <trkpt lat="44.78899" lon="0.6869">
        <ele>130</ele>
        <time>2012-05-13T07:46:09Z</time>
      </trkpt>
      <trkpt lat="44.78892" lon="0.68681">
        <ele>133</ele>
        <time>2012-05-13T07:46:14Z</time>
      </trkpt>
      <trkpt lat="44.7888" lon="0.68679">
        <ele>135</ele>
        <time>2012-05-13T07:46:19Z</time>
      </trkpt>
      <trkpt lat="44.78868" lon="0.68678">
        <ele>136</ele>
        <time>2012-05-13T07:46:24Z</time>
      </trkpt>
      <trkpt lat="44.78857" lon="0.68674">
        <ele>138</ele>
        <time>2012-05-13T07:46:29Z</time>
      </trkpt>
      <trkpt lat="44.78843" lon="0.68662">
        <ele>139</ele>
        <time>2012-05-13T07:46:35Z</time>
      </trkpt>
      <trkpt lat="44.78835" lon="0.68651">
        <ele>140</ele>
        <time>2012-05-13T07:46:40Z</time>
      </trkpt>
      <trkpt lat="44.78826" lon="0.68639">
        <ele>141</ele>
        <time>2012-05-13T07:46:45Z</time>
      </trkpt>
      <trkpt lat="44.78814" lon="0.68629">
        <ele>141</ele>
        <time>2012-05-13T07:46:51Z</time>
      </trkpt>
      <trkpt lat="44.78802" lon="0.6862">
        <ele>141</ele>
        <time>2012-05-13T07:46:57Z</time>
      </trkpt>
      <trkpt lat="44.78791" lon="0.68608">
        <ele>141</ele>
        <time>2012-05-13T07:47:03Z</time>
      </trkpt>
      <trkpt lat="44.78778" lon="0.686">
        <ele>141</ele>
        <time>2012-05-13T07:47:08Z</time>
      </trkpt>
      <trkpt lat="44.78769" lon="0.6859">
        <ele>141</ele>
        <time>2012-05-13T07:47:13Z</time>
      </trkpt>
      <trkpt lat="44.78756" lon="0.6858">
        <ele>141</ele>
        <time>2012-05-13T07:47:18Z</time>
      </trkpt>
      <trkpt lat="44.78743" lon="0.6857">
        <ele>141</ele>
        <time>2012-05-13T07:47:23Z</time>
      </trkpt>
      <trkpt lat="44.78734" lon="0.68559">
        <ele>141</ele>
        <time>2012-05-13T07:47:28Z</time>
      </trkpt>
      <trkpt lat="44.78726" lon="0.68552">
        <ele>141</ele>
        <time>2012-05-13T07:47:34Z</time>
      </trkpt>
      <trkpt lat="44.78725" lon="0.6855">
        <ele>141</ele>
        <time>2012-05-13T07:47:42Z</time>
      </trkpt>
      <trkpt lat="44.78725" lon="0.68546">
        <ele>144</ele>
        <time>2012-05-13T07:48:02Z</time>
      </trkpt>
      <trkpt lat="44.78719" lon="0.6855">
        <ele>145</ele>
        <time>2012-05-13T07:48:07Z</time>
      </trkpt>
      <trkpt lat="44.78709" lon="0.68561">
        <ele>145</ele>
        <time>2012-05-13T07:48:12Z</time>
      </trkpt>
      <trkpt lat="44.78696" lon="0.68576">
        <ele>145</ele>
        <time>2012-05-13T07:48:17Z</time>
      </trkpt>
      <trkpt lat="44.78682" lon="0.68592">
        <ele>145</ele>
        <time>2012-05-13T07:48:22Z</time>
      </trkpt>
      <trkpt lat="44.78667" lon="0.68612">
        <ele>145</ele>
        <time>2012-05-13T07:48:27Z</time>
      </trkpt>
      <trkpt lat="44.78652" lon="0.68632">
        <ele>145</ele>
        <time>2012-05-13T07:48:32Z</time>
      </trkpt>
      <trkpt lat="44.78638" lon="0.68655">
        <ele>146</ele>
        <time>2012-05-13T07:48:37Z</time>
      </trkpt>
      <trkpt lat="44.78627" lon="0.68682">
        <ele>146</ele>
        <time>2012-05-13T07:48:42Z</time>
      </trkpt>
      <trkpt lat="44.78619" lon="0.68712">
        <ele>147</ele>
        <time>2012-05-13T07:48:47Z</time>
      </trkpt>
      <trkpt lat="44.78612" lon="0.68745">
        <ele>148</ele>
        <time>2012-05-13T07:48:52Z</time>
      </trkpt>
      <trkpt lat="44.78604" lon="0.68781">
        <ele>149</ele>
        <time>2012-05-13T07:48:57Z</time>
      </trkpt>
      <trkpt lat="44.78596" lon="0.68818">
        <ele>152</ele>
        <time>2012-05-13T07:49:02Z</time>
      </trkpt>
      <trkpt lat="44.78588" lon="0.68841">
        <ele>153</ele>
        <time>2012-05-13T07:49:07Z</time>
      </trkpt>
      <trkpt lat="44.78571" lon="0.68835">
        <ele>153</ele>
        <time>2012-05-13T07:49:12Z</time>
      </trkpt>
      <trkpt lat="44.7854" lon="0.68822">
        <ele>152</ele>
        <time>2012-05-13T07:49:17Z</time>
      </trkpt>
      <trkpt lat="44.78502" lon="0.68822">
        <ele>148</ele>
        <time>2012-05-13T07:49:22Z</time>
      </trkpt>
      <trkpt lat="44.78461" lon="0.68815">
        <ele>143</ele>
        <time>2012-05-13T07:49:27Z</time>
      </trkpt>
      <trkpt lat="44.78419" lon="0.68836">
        <ele>137</ele>
        <time>2012-05-13T07:49:33Z</time>
      </trkpt>
      <trkpt lat="44.78381" lon="0.6883">
        <ele>132</ele>
        <time>2012-05-13T07:49:38Z</time>
      </trkpt>
      <trkpt lat="44.78342" lon="0.68827">
        <ele>127</ele>
        <time>2012-05-13T07:49:43Z</time>
      </trkpt>
      <trkpt lat="44.78309" lon="0.68857">
        <ele>122</ele>
        <time>2012-05-13T07:49:48Z</time>
      </trkpt>
      <trkpt lat="44.7828" lon="0.68883">
        <ele>117</ele>
        <time>2012-05-13T07:49:53Z</time>
      </trkpt>
      <trkpt lat="44.78257" lon="0.68883">
        <ele>114</ele>
        <time>2012-05-13T07:49:58Z</time>
      </trkpt>
      <trkpt lat="44.7824" lon="0.68869">
        <ele>111</ele>
        <time>2012-05-13T07:50:03Z</time>
      </trkpt>
      <trkpt lat="44.78223" lon="0.68848">
        <ele>110</ele>
        <time>2012-05-13T07:50:08Z</time>
      </trkpt>
      <trkpt lat="44.78217" lon="0.68872">
        <ele>109</ele>
        <time>2012-05-13T07:50:13Z</time>
      </trkpt>
      <trkpt lat="44.7822" lon="0.68911">
        <ele>106</ele>
        <time>2012-05-13T07:50:18Z</time>
      </trkpt>
      <trkpt lat="44.78189" lon="0.68928">
        <ele>103</ele>
        <time>2012-05-13T07:50:23Z</time>
      </trkpt>
      <trkpt lat="44.78161" lon="0.68939">
        <ele>103</ele>
        <time>2012-05-13T07:50:28Z</time>
      </trkpt>
      <trkpt lat="44.78133" lon="0.68947">
        <ele>103</ele>
        <time>2012-05-13T07:50:33Z</time>
      </trkpt>
      <trkpt lat="44.78107" lon="0.68956">
        <ele>103</ele>
        <time>2012-05-13T07:50:38Z</time>
      </trkpt>
      <trkpt lat="44.78081" lon="0.68959">
        <ele>103</ele>
        <time>2012-05-13T07:50:43Z</time>
      </trkpt>
      <trkpt lat="44.78051" lon="0.68987">
        <ele>103</ele>
        <time>2012-05-13T07:50:48Z</time>
      </trkpt>
      <trkpt lat="44.78014" lon="0.69032">
        <ele>103</ele>
        <time>2012-05-13T07:50:53Z</time>
      </trkpt>
      <trkpt lat="44.77992" lon="0.69055">
        <ele>99</ele>
        <time>2012-05-13T07:50:58Z</time>
      </trkpt>
      <trkpt lat="44.77992" lon="0.69053">
        <ele>98</ele>
        <time>2012-05-13T07:51:16Z</time>
      </trkpt>
      <trkpt lat="44.7799" lon="0.69055">
        <ele>97</ele>
        <time>2012-05-13T07:51:21Z</time>
      </trkpt>
      <trkpt lat="44.77979" lon="0.69069">
        <ele>97</ele>
        <time>2012-05-13T07:51:26Z</time>
      </trkpt>
      <trkpt lat="44.77953" lon="0.69099">
        <ele>97</ele>
        <time>2012-05-13T07:51:32Z</time>
      </trkpt>
      <trkpt lat="44.77945" lon="0.69109">
        <ele>97</ele>
        <time>2012-05-13T07:51:37Z</time>
      </trkpt>
      <trkpt lat="44.77934" lon="0.69126">
        <ele>94</ele>
        <time>2012-05-13T07:51:42Z</time>
      </trkpt>
      <trkpt lat="44.77917" lon="0.69149">
        <ele>90</ele>
        <time>2012-05-13T07:51:47Z</time>
      </trkpt>
      <trkpt lat="44.7789" lon="0.69176">
        <ele>85</ele>
        <time>2012-05-13T07:51:52Z</time>
      </trkpt>
      <trkpt lat="44.77869" lon="0.69203">
        <ele>82</ele>
        <time>2012-05-13T07:51:57Z</time>
      </trkpt>
      <trkpt lat="44.77849" lon="0.69219">
        <ele>79</ele>
        <time>2012-05-13T07:52:02Z</time>
      </trkpt>
      <trkpt lat="44.77832" lon="0.6924">
        <ele>79</ele>
        <time>2012-05-13T07:52:07Z</time>
      </trkpt>
      <trkpt lat="44.77828" lon="0.69274">
        <ele>79</ele>
        <time>2012-05-13T07:52:12Z</time>
      </trkpt>
      <trkpt lat="44.77829" lon="0.69311">
        <ele>81</ele>
        <time>2012-05-13T07:52:17Z</time>
      </trkpt>
      <trkpt lat="44.77833" lon="0.69345">
        <ele>84</ele>
        <time>2012-05-13T07:52:22Z</time>
      </trkpt>
      <trkpt lat="44.77839" lon="0.6938">
        <ele>85</ele>
        <time>2012-05-13T07:52:27Z</time>
      </trkpt>
      <trkpt lat="44.77842" lon="0.69409">
        <ele>87</ele>
        <time>2012-05-13T07:52:32Z</time>
      </trkpt>
      <trkpt lat="44.77844" lon="0.69434">
        <ele>88</ele>
        <time>2012-05-13T07:52:37Z</time>
      </trkpt>
      <trkpt lat="44.77847" lon="0.69458">
        <ele>90</ele>
        <time>2012-05-13T07:52:42Z</time>
      </trkpt>
      <trkpt lat="44.7785" lon="0.69484">
        <ele>93</ele>
        <time>2012-05-13T07:52:47Z</time>
      </trkpt>
      <trkpt lat="44.77859" lon="0.69505">
        <ele>94</ele>
        <time>2012-05-13T07:52:52Z</time>
      </trkpt>
      <trkpt lat="44.77866" lon="0.69528">
        <ele>96</ele>
        <time>2012-05-13T07:52:57Z</time>
      </trkpt>
      <trkpt lat="44.77866" lon="0.69553">
        <ele>100</ele>
        <time>2012-05-13T07:53:02Z</time>
      </trkpt>
      <trkpt lat="44.77859" lon="0.69577">
        <ele>102</ele>
        <time>2012-05-13T07:53:07Z</time>
      </trkpt>
      <trkpt lat="44.77857" lon="0.69599">
        <ele>105</ele>
        <time>2012-05-13T07:53:12Z</time>
      </trkpt>
      <trkpt lat="44.7786" lon="0.69622">
        <ele>108</ele>
        <time>2012-05-13T07:53:17Z</time>
      </trkpt>
      <trkpt lat="44.77864" lon="0.69643">
        <ele>108</ele>
        <time>2012-05-13T07:53:22Z</time>
      </trkpt>
      <trkpt lat="44.77868" lon="0.69656">
        <ele>108</ele>
        <time>2012-05-13T07:53:27Z</time>
      </trkpt>
      <trkpt lat="44.77858" lon="0.69661">
        <ele>107</ele>
        <time>2012-05-13T07:53:32Z</time>
      </trkpt>
      <trkpt lat="44.77829" lon="0.69658">
        <ele>103</ele>
        <time>2012-05-13T07:53:37Z</time>
      </trkpt>
      <trkpt lat="44.77795" lon="0.69652">
        <ele>98</ele>
        <time>2012-05-13T07:53:42Z</time>
      </trkpt>
      <trkpt lat="44.77758" lon="0.69636">
        <ele>93</ele>
        <time>2012-05-13T07:53:47Z</time>
      </trkpt>
      <trkpt lat="44.77725" lon="0.69617">
        <ele>90</ele>
        <time>2012-05-13T07:53:52Z</time>
      </trkpt>
      <trkpt lat="44.77694" lon="0.69597">
        <ele>88</ele>
        <time>2012-05-13T07:53:57Z</time>
      </trkpt>
      <trkpt lat="44.77668" lon="0.69577">
        <ele>86</ele>
        <time>2012-05-13T07:54:02Z</time>
      </trkpt>
      <trkpt lat="44.77646" lon="0.69557">
        <ele>85</ele>
        <time>2012-05-13T07:54:07Z</time>
      </trkpt>
      <trkpt lat="44.77626" lon="0.69536">
        <ele>84</ele>
        <time>2012-05-13T07:54:12Z</time>
      </trkpt>
      <trkpt lat="44.77609" lon="0.69514">
        <ele>83</ele>
        <time>2012-05-13T07:54:17Z</time>
      </trkpt>
      <trkpt lat="44.77595" lon="0.69501">
        <ele>82</ele>
        <time>2012-05-13T07:54:22Z</time>
      </trkpt>
      <trkpt lat="44.77587" lon="0.69514">
        <ele>82</ele>
        <time>2012-05-13T07:54:27Z</time>
      </trkpt>
      <trkpt lat="44.77579" lon="0.6953">
        <ele>82</ele>
        <time>2012-05-13T07:54:32Z</time>
      </trkpt>
      <trkpt lat="44.77571" lon="0.69543">
        <ele>84</ele>
        <time>2012-05-13T07:54:37Z</time>
      </trkpt>
      <trkpt lat="44.77563" lon="0.69556">
        <ele>85</ele>
        <time>2012-05-13T07:54:42Z</time>
      </trkpt>
      <trkpt lat="44.77557" lon="0.69567">
        <ele>87</ele>
        <time>2012-05-13T07:54:47Z</time>
      </trkpt>
      <trkpt lat="44.77551" lon="0.69574">
        <ele>90</ele>
        <time>2012-05-13T07:54:52Z</time>
      </trkpt>
      <trkpt lat="44.77543" lon="0.69577">
        <ele>91</ele>
        <time>2012-05-13T07:54:57Z</time>
      </trkpt>
      <trkpt lat="44.77537" lon="0.69569">
        <ele>92</ele>
        <time>2012-05-13T07:55:02Z</time>
      </trkpt>
      <trkpt lat="44.77533" lon="0.69556">
        <ele>92</ele>
        <time>2012-05-13T07:55:07Z</time>
      </trkpt>
      <trkpt lat="44.77529" lon="0.69536">
        <ele>92</ele>
        <time>2012-05-13T07:55:12Z</time>
      </trkpt>
      <trkpt lat="44.77525" lon="0.69512">
        <ele>93</ele>
        <time>2012-05-13T07:55:17Z</time>
      </trkpt>
      <trkpt lat="44.7752" lon="0.69492">
        <ele>95</ele>
        <time>2012-05-13T07:55:22Z</time>
      </trkpt>
      <trkpt lat="44.77514" lon="0.69475">
        <ele>96</ele>
        <time>2012-05-13T07:55:27Z</time>
      </trkpt>
      <trkpt lat="44.77505" lon="0.69472">
        <ele>98</ele>
        <time>2012-05-13T07:55:32Z</time>
      </trkpt>
      <trkpt lat="44.77497" lon="0.69477">
        <ele>100</ele>
        <time>2012-05-13T07:55:37Z</time>
      </trkpt>
      <trkpt lat="44.7749" lon="0.69481">
        <ele>102</ele>
        <time>2012-05-13T07:55:42Z</time>
      </trkpt>
      <trkpt lat="44.77483" lon="0.69487">
        <ele>102</ele>
        <time>2012-05-13T07:55:48Z</time>
      </trkpt>
      <trkpt lat="44.77475" lon="0.69492">
        <ele>102</ele>
        <time>2012-05-13T07:55:53Z</time>
      </trkpt>
      <trkpt lat="44.77469" lon="0.69497">
        <ele>103</ele>
        <time>2012-05-13T07:55:58Z</time>
      </trkpt>
      <trkpt lat="44.7746" lon="0.69501">
        <ele>103</ele>
        <time>2012-05-13T07:56:03Z</time>
      </trkpt>
      <trkpt lat="44.77453" lon="0.69505">
        <ele>105</ele>
        <time>2012-05-13T07:56:08Z</time>
      </trkpt>
      <trkpt lat="44.77445" lon="0.69509">
        <ele>105</ele>
        <time>2012-05-13T07:56:13Z</time>
      </trkpt>
      <trkpt lat="44.77435" lon="0.69515">
        <ele>107</ele>
        <time>2012-05-13T07:56:18Z</time>
      </trkpt>
      <trkpt lat="44.77427" lon="0.69518">
        <ele>107</ele>
        <time>2012-05-13T07:56:23Z</time>
      </trkpt>
      <trkpt lat="44.77417" lon="0.69524">
        <ele>108</ele>
        <time>2012-05-13T07:56:28Z</time>
      </trkpt>
      <trkpt lat="44.77408" lon="0.69529">
        <ele>110</ele>
        <time>2012-05-13T07:56:33Z</time>
      </trkpt>
      <trkpt lat="44.774" lon="0.69534">
        <ele>111</ele>
        <time>2012-05-13T07:56:38Z</time>
      </trkpt>
      <trkpt lat="44.77394" lon="0.69542">
        <ele>112</ele>
        <time>2012-05-13T07:56:43Z</time>
      </trkpt>
      <trkpt lat="44.77396" lon="0.69554">
        <ele>115</ele>
        <time>2012-05-13T07:56:48Z</time>
      </trkpt>
      <trkpt lat="44.77397" lon="0.69566">
        <ele>116</ele>
        <time>2012-05-13T07:56:53Z</time>
      </trkpt>
      <trkpt lat="44.77393" lon="0.69576">
        <ele>117</ele>
        <time>2012-05-13T07:56:58Z</time>
      </trkpt>
      <trkpt lat="44.77387" lon="0.69585">
        <ele>120</ele>
        <time>2012-05-13T07:57:03Z</time>
      </trkpt>
      <trkpt lat="44.77386" lon="0.69596">
        <ele>122</ele>
        <time>2012-05-13T07:57:08Z</time>
      </trkpt>
      <trkpt lat="44.77388" lon="0.69613">
        <ele>123</ele>
        <time>2012-05-13T07:57:13Z</time>
      </trkpt>
      <trkpt lat="44.77391" lon="0.69632">
        <ele>123</ele>
        <time>2012-05-13T07:57:18Z</time>
      </trkpt>
      <trkpt lat="44.77394" lon="0.69653">
        <ele>123</ele>
        <time>2012-05-13T07:57:23Z</time>
      </trkpt>
      <trkpt lat="44.77399" lon="0.69678">
        <ele>124</ele>
        <time>2012-05-13T07:57:28Z</time>
      </trkpt>
      <trkpt lat="44.77399" lon="0.69706">
        <ele>124</ele>
        <time>2012-05-13T07:57:33Z</time>
      </trkpt>
      <trkpt lat="44.77395" lon="0.69734">
        <ele>124</ele>
        <time>2012-05-13T07:57:38Z</time>
      </trkpt>
      <trkpt lat="44.77385" lon="0.69757">
        <ele>124</ele>
        <time>2012-05-13T07:57:43Z</time>
      </trkpt>
      <trkpt lat="44.77373" lon="0.69778">
        <ele>124</ele>
        <time>2012-05-13T07:57:48Z</time>
      </trkpt>
      <trkpt lat="44.77361" lon="0.69799">
        <ele>124</ele>
        <time>2012-05-13T07:57:53Z</time>
      </trkpt>
      <trkpt lat="44.77349" lon="0.69821">
        <ele>124</ele>
        <time>2012-05-13T07:57:58Z</time>
      </trkpt>
      <trkpt lat="44.77338" lon="0.69842">
        <ele>124</ele>
        <time>2012-05-13T07:58:03Z</time>
      </trkpt>
      <trkpt lat="44.77327" lon="0.69863">
        <ele>124</ele>
        <time>2012-05-13T07:58:08Z</time>
      </trkpt>
      <trkpt lat="44.77317" lon="0.69886">
        <ele>125</ele>
        <time>2012-05-13T07:58:13Z</time>
      </trkpt>
      <trkpt lat="44.77318" lon="0.69907">
        <ele>126</ele>
        <time>2012-05-13T07:58:18Z</time>
      </trkpt>
      <trkpt lat="44.77308" lon="0.6993">
        <ele>126</ele>
        <time>2012-05-13T07:58:23Z</time>
      </trkpt>
      <trkpt lat="44.77299" lon="0.69957">
        <ele>126</ele>
        <time>2012-05-13T07:58:28Z</time>
      </trkpt>
      <trkpt lat="44.7729" lon="0.69986">
        <ele>127</ele>
        <time>2012-05-13T07:58:33Z</time>
      </trkpt>
      <trkpt lat="44.77282" lon="0.70014">
        <ele>127</ele>
        <time>2012-05-13T07:58:38Z</time>
      </trkpt>
      <trkpt lat="44.77274" lon="0.70041">
        <ele>128</ele>
        <time>2012-05-13T07:58:43Z</time>
      </trkpt>
      <trkpt lat="44.77266" lon="0.70065">
        <ele>129</ele>
        <time>2012-05-13T07:58:48Z</time>
      </trkpt>
      <trkpt lat="44.77258" lon="0.7009">
        <ele>129</ele>
        <time>2012-05-13T07:58:53Z</time>
      </trkpt>
      <trkpt lat="44.7725" lon="0.70115">
        <ele>129</ele>
        <time>2012-05-13T07:58:58Z</time>
      </trkpt>
      <trkpt lat="44.77243" lon="0.70138">
        <ele>129</ele>
        <time>2012-05-13T07:59:03Z</time>
      </trkpt>
      <trkpt lat="44.77237" lon="0.70162">
        <ele>129</ele>
        <time>2012-05-13T07:59:08Z</time>
      </trkpt>
      <trkpt lat="44.77229" lon="0.70187">
        <ele>129</ele>
        <time>2012-05-13T07:59:13Z</time>
      </trkpt>
      <trkpt lat="44.77222" lon="0.7021">
        <ele>129</ele>
        <time>2012-05-13T07:59:18Z</time>
      </trkpt>
      <trkpt lat="44.77207" lon="0.70231">
        <ele>129</ele>
        <time>2012-05-13T07:59:23Z</time>
      </trkpt>
      <trkpt lat="44.77189" lon="0.70258">
        <ele>131</ele>
        <time>2012-05-13T07:59:28Z</time>
      </trkpt>
      <trkpt lat="44.77173" lon="0.70285">
        <ele>131</ele>
        <time>2012-05-13T07:59:33Z</time>
      </trkpt>
      <trkpt lat="44.77156" lon="0.70315">
        <ele>131</ele>
        <time>2012-05-13T07:59:38Z</time>
      </trkpt>
      <trkpt lat="44.77141" lon="0.70347">
        <ele>133</ele>
        <time>2012-05-13T07:59:43Z</time>
      </trkpt>
      <trkpt lat="44.77128" lon="0.70378">
        <ele>135</ele>
        <time>2012-05-13T07:59:48Z</time>
      </trkpt>
      <trkpt lat="44.77119" lon="0.70413">
        <ele>135</ele>
        <time>2012-05-13T07:59:53Z</time>
      </trkpt>
      <trkpt lat="44.77116" lon="0.70449">
        <ele>135</ele>
        <time>2012-05-13T07:59:58Z</time>
      </trkpt>
      <trkpt lat="44.77116" lon="0.70488">
        <ele>135</ele>
        <time>2012-05-13T08:00:03Z</time>
      </trkpt>
      <trkpt lat="44.77119" lon="0.70527">
        <ele>135</ele>
        <time>2012-05-13T08:00:08Z</time>
      </trkpt>
      <trkpt lat="44.77114" lon="0.70566">
        <ele>135</ele>
        <time>2012-05-13T08:00:13Z</time>
      </trkpt>
      <trkpt lat="44.77105" lon="0.70612">
        <ele>135</ele>
        <time>2012-05-13T08:00:18Z</time>
      </trkpt>
      <trkpt lat="44.77103" lon="0.70658">
        <ele>135</ele>
        <time>2012-05-13T08:00:23Z</time>
      </trkpt>
      <trkpt lat="44.77102" lon="0.70702">
        <ele>135</ele>
        <time>2012-05-13T08:00:28Z</time>
      </trkpt>
      <trkpt lat="44.77104" lon="0.7074">
        <ele>135</ele>
        <time>2012-05-13T08:00:33Z</time>
      </trkpt>
      <trkpt lat="44.77107" lon="0.70775">
        <ele>139</ele>
        <time>2012-05-13T08:00:38Z</time>
      </trkpt>
      <trkpt lat="44.77108" lon="0.70806">
        <ele>142</ele>
        <time>2012-05-13T08:00:43Z</time>
      </trkpt>
      <trkpt lat="44.77102" lon="0.70837">
        <ele>142</ele>
        <time>2012-05-13T08:00:48Z</time>
      </trkpt>
      <trkpt lat="44.77091" lon="0.70866">
        <ele>142</ele>
        <time>2012-05-13T08:00:53Z</time>
      </trkpt>
      <trkpt lat="44.77079" lon="0.70895">
        <ele>143</ele>
        <time>2012-05-13T08:00:58Z</time>
      </trkpt>
      <trkpt lat="44.77067" lon="0.7092">
        <ele>143</ele>
        <time>2012-05-13T08:01:03Z</time>
      </trkpt>
      <trkpt lat="44.77056" lon="0.70947">
        <ele>143</ele>
        <time>2012-05-13T08:01:08Z</time>
      </trkpt>
      <trkpt lat="44.77044" lon="0.70966">
        <ele>143</ele>
        <time>2012-05-13T08:01:13Z</time>
      </trkpt>
      <trkpt lat="44.77028" lon="0.70954">
        <ele>143</ele>
        <time>2012-05-13T08:01:18Z</time>
      </trkpt>
      <trkpt lat="44.77009" lon="0.70936">
        <ele>143</ele>
        <time>2012-05-13T08:01:23Z</time>
      </trkpt>
      <trkpt lat="44.77009" lon="0.70932">
        <ele>143</ele>
        <time>2012-05-13T08:01:29Z</time>
      </trkpt>
      <trkpt lat="44.77011" lon="0.70932">
        <ele>143</ele>
        <time>2012-05-13T08:01:38Z</time>
      </trkpt>
      <trkpt lat="44.77012" lon="0.7093">
        <ele>144</ele>
        <time>2012-05-13T08:02:08Z</time>
      </trkpt>
      <trkpt lat="44.7701" lon="0.70929">
        <ele>144</ele>
        <time>2012-05-13T08:02:24Z</time>
      </trkpt>
      <trkpt lat="44.76999" lon="0.70916">
        <ele>144</ele>
        <time>2012-05-13T08:02:29Z</time>
      </trkpt>
      <trkpt lat="44.76981" lon="0.70891">
        <ele>144</ele>
        <time>2012-05-13T08:02:34Z</time>
      </trkpt>
      <trkpt lat="44.76963" lon="0.70861">
        <ele>144</ele>
        <time>2012-05-13T08:02:39Z</time>
      </trkpt>
      <trkpt lat="44.76948" lon="0.70829">
        <ele>144</ele>
        <time>2012-05-13T08:02:44Z</time>
      </trkpt>
      <trkpt lat="44.76934" lon="0.70799">
        <ele>144</ele>
        <time>2012-05-13T08:02:49Z</time>
      </trkpt>
      <trkpt lat="44.76925" lon="0.70762">
        <ele>144</ele>
        <time>2012-05-13T08:02:54Z</time>
      </trkpt>
      <trkpt lat="44.76912" lon="0.70721">
        <ele>144</ele>
        <time>2012-05-13T08:02:59Z</time>
      </trkpt>
      <trkpt lat="44.76894" lon="0.7068">
        <ele>141</ele>
        <time>2012-05-13T08:03:04Z</time>
      </trkpt>
      <trkpt lat="44.76877" lon="0.70639">
        <ele>137</ele>
        <time>2012-05-13T08:03:09Z</time>
      </trkpt>
      <trkpt lat="44.76859" lon="0.70593">
        <ele>136</ele>
        <time>2012-05-13T08:03:14Z</time>
      </trkpt>
      <trkpt lat="44.76842" lon="0.70548">
        <ele>135</ele>
        <time>2012-05-13T08:03:19Z</time>
      </trkpt>
      <trkpt lat="44.76844" lon="0.70498">
        <ele>134</ele>
        <time>2012-05-13T08:03:24Z</time>
      </trkpt>
      <trkpt lat="44.76848" lon="0.70442">
        <ele>132</ele>
        <time>2012-05-13T08:03:29Z</time>
      </trkpt>
      <trkpt lat="44.76855" lon="0.70391">
        <ele>130</ele>
        <time>2012-05-13T08:03:34Z</time>
      </trkpt>
      <trkpt lat="44.76846" lon="0.70345">
        <ele>126</ele>
        <time>2012-05-13T08:03:39Z</time>
      </trkpt>
      <trkpt lat="44.76823" lon="0.70296">
        <ele>121</ele>
        <time>2012-05-13T08:03:44Z</time>
      </trkpt>
      <trkpt lat="44.76789" lon="0.70247">
        <ele>116</ele>
        <time>2012-05-13T08:03:49Z</time>
      </trkpt>
      <trkpt lat="44.76772" lon="0.70188">
        <ele>111</ele>
        <time>2012-05-13T08:03:54Z</time>
      </trkpt>
      <trkpt lat="44.76772" lon="0.70142">
        <ele>108</ele>
        <time>2012-05-13T08:03:59Z</time>
      </trkpt>
      <trkpt lat="44.76757" lon="0.70104">
        <ele>107</ele>
        <time>2012-05-13T08:04:04Z</time>
      </trkpt>
      <trkpt lat="44.7674" lon="0.70061">
        <ele>106</ele>
        <time>2012-05-13T08:04:09Z</time>
      </trkpt>
      <trkpt lat="44.76727" lon="0.70007">
        <ele>101</ele>
        <time>2012-05-13T08:04:14Z</time>
      </trkpt>
      <trkpt lat="44.76709" lon="0.69941">
        <ele>91</ele>
        <time>2012-05-13T08:04:19Z</time>
      </trkpt>
      <trkpt lat="44.76693" lon="0.69878">
        <ele>81</ele>
        <time>2012-05-13T08:04:24Z</time>
      </trkpt>
      <trkpt lat="44.76678" lon="0.69838">
        <ele>76</ele>
        <time>2012-05-13T08:04:29Z</time>
      </trkpt>
      <trkpt lat="44.76678" lon="0.69832">
        <ele>76</ele>
        <time>2012-05-13T08:04:34Z</time>
      </trkpt>
      <trkpt lat="44.76678" lon="0.69823">
        <ele>76</ele>
        <time>2012-05-13T08:04:39Z</time>
      </trkpt>
      <trkpt lat="44.76677" lon="0.69808">
        <ele>76</ele>
        <time>2012-05-13T08:04:44Z</time>
      </trkpt>
      <trkpt lat="44.76677" lon="0.69798">
        <ele>81</ele>
        <time>2012-05-13T08:04:49Z</time>
      </trkpt>
      <trkpt lat="44.76678" lon="0.6979">
        <ele>84</ele>
        <time>2012-05-13T08:04:54Z</time>
      </trkpt>
      <trkpt lat="44.76679" lon="0.69784">
        <ele>84</ele>
        <time>2012-05-13T08:04:59Z</time>
      </trkpt>
      <trkpt lat="44.76679" lon="0.69784">
        <ele>84</ele>
        <time>2012-05-13T08:05:04Z</time>
      </trkpt>
      <trkpt lat="44.76677" lon="0.69782">
        <ele>84</ele>
        <time>2012-05-13T08:05:09Z</time>
      </trkpt>
      <trkpt lat="44.76675" lon="0.69771">
        <ele>84</ele>
        <time>2012-05-13T08:05:14Z</time>
      </trkpt>
      <trkpt lat="44.76676" lon="0.69763">
        <ele>84</ele>
        <time>2012-05-13T08:05:20Z</time>
      </trkpt>
      <trkpt lat="44.76679" lon="0.69757">
        <ele>84</ele>
        <time>2012-05-13T08:05:25Z</time>
      </trkpt>
      <trkpt lat="44.76683" lon="0.69741">
        <ele>84</ele>
        <time>2012-05-13T08:05:30Z</time>
      </trkpt>
      <trkpt lat="44.76688" lon="0.69715">
        <ele>84</ele>
        <time>2012-05-13T08:05:35Z</time>
      </trkpt>
      <trkpt lat="44.76694" lon="0.69691">
        <ele>84</ele>
        <time>2012-05-13T08:05:40Z</time>
      </trkpt>
      <trkpt lat="44.76698" lon="0.69671">
        <ele>86</ele>
        <time>2012-05-13T08:05:45Z</time>
      </trkpt>
      <trkpt lat="44.76704" lon="0.69652">
        <ele>88</ele>
        <time>2012-05-13T08:05:50Z</time>
      </trkpt>
      <trkpt lat="44.76714" lon="0.69631">
        <ele>89</ele>
        <time>2012-05-13T08:05:55Z</time>
      </trkpt>
      <trkpt lat="44.76725" lon="0.69605">
        <ele>90</ele>
        <time>2012-05-13T08:06:00Z</time>
      </trkpt>
      <trkpt lat="44.76733" lon="0.6958">
        <ele>90</ele>
        <time>2012-05-13T08:06:05Z</time>
      </trkpt>
      <trkpt lat="44.76736" lon="0.69563">
        <ele>90</ele>
        <time>2012-05-13T08:06:10Z</time>
      </trkpt>
      <trkpt lat="44.76728" lon="0.69565">
        <ele>90</ele>
        <time>2012-05-13T08:06:15Z</time>
      </trkpt>
      <trkpt lat="44.7672" lon="0.69567">
        <ele>90</ele>
        <time>2012-05-13T08:06:20Z</time>
      </trkpt>
      <trkpt lat="44.76715" lon="0.69568">
        <ele>90</ele>
        <time>2012-05-13T08:06:25Z</time>
      </trkpt>
      <trkpt lat="44.76708" lon="0.69565">
        <ele>90</ele>
        <time>2012-05-13T08:06:30Z</time>
      </trkpt>
      <trkpt lat="44.76707" lon="0.69557">
        <ele>90</ele>
        <time>2012-05-13T08:06:35Z</time>
      </trkpt>
      <trkpt lat="44.76703" lon="0.69554">
        <ele>90</ele>
        <time>2012-05-13T08:06:40Z</time>
      </trkpt>
      <trkpt lat="44.76696" lon="0.69553">
        <ele>91</ele>
        <time>2012-05-13T08:06:45Z</time>
      </trkpt>
      <trkpt lat="44.76689" lon="0.69553">
        <ele>91</ele>
        <time>2012-05-13T08:06:50Z</time>
      </trkpt>
      <trkpt lat="44.76684" lon="0.69556">
        <ele>91</ele>
        <time>2012-05-13T08:06:55Z</time>
      </trkpt>
      <trkpt lat="44.76679" lon="0.6956">
        <ele>94</ele>
        <time>2012-05-13T08:07:00Z</time>
      </trkpt>
      <trkpt lat="44.76673" lon="0.69565">
        <ele>96</ele>
        <time>2012-05-13T08:07:05Z</time>
      </trkpt>
      <trkpt lat="44.76669" lon="0.6957">
        <ele>96</ele>
        <time>2012-05-13T08:07:10Z</time>
      </trkpt>
      <trkpt lat="44.76664" lon="0.69577">
        <ele>99</ele>
        <time>2012-05-13T08:07:16Z</time>
      </trkpt>
      <trkpt lat="44.7666" lon="0.69582">
        <ele>100</ele>
        <time>2012-05-13T08:07:21Z</time>
      </trkpt>
      <trkpt lat="44.76656" lon="0.69589">
        <ele>102</ele>
        <time>2012-05-13T08:07:26Z</time>
      </trkpt>
      <trkpt lat="44.76653" lon="0.69596">
        <ele>102</ele>
        <time>2012-05-13T08:07:32Z</time>
      </trkpt>
      <trkpt lat="44.76648" lon="0.69604">
        <ele>102</ele>
        <time>2012-05-13T08:07:38Z</time>
      </trkpt>
      <trkpt lat="44.76643" lon="0.6961">
        <ele>104</ele>
        <time>2012-05-13T08:07:44Z</time>
      </trkpt>
      <trkpt lat="44.76639" lon="0.69617">
        <ele>106</ele>
        <time>2012-05-13T08:07:49Z</time>
      </trkpt>
      <trkpt lat="44.76633" lon="0.69623">
        <ele>108</ele>
        <time>2012-05-13T08:07:54Z</time>
      </trkpt>
      <trkpt lat="44.76626" lon="0.6963">
        <ele>108</ele>
        <time>2012-05-13T08:07:59Z</time>
      </trkpt>
      <trkpt lat="44.7662" lon="0.69639">
        <ele>109</ele>
        <time>2012-05-13T08:08:04Z</time>
      </trkpt>
      <trkpt lat="44.7661" lon="0.6966">
        <ele>110</ele>
        <time>2012-05-13T08:08:09Z</time>
      </trkpt>
      <trkpt lat="44.76596" lon="0.697">
        <ele>110</ele>
        <time>2012-05-13T08:08:14Z</time>
      </trkpt>
      <trkpt lat="44.76575" lon="0.6974">
        <ele>110</ele>
        <time>2012-05-13T08:08:19Z</time>
      </trkpt>
      <trkpt lat="44.76567" lon="0.69772">
        <ele>106</ele>
        <time>2012-05-13T08:08:24Z</time>
      </trkpt>
      <trkpt lat="44.76553" lon="0.69787">
        <ele>103</ele>
        <time>2012-05-13T08:08:29Z</time>
      </trkpt>
      <trkpt lat="44.76539" lon="0.69807">
        <ele>102</ele>
        <time>2012-05-13T08:08:34Z</time>
      </trkpt>
      <trkpt lat="44.76518" lon="0.69827">
        <ele>101</ele>
        <time>2012-05-13T08:08:39Z</time>
      </trkpt>
      <trkpt lat="44.76496" lon="0.69857">
        <ele>100</ele>
        <time>2012-05-13T08:08:44Z</time>
      </trkpt>
      <trkpt lat="44.76478" lon="0.69879">
        <ele>100</ele>
        <time>2012-05-13T08:08:49Z</time>
      </trkpt>
      <trkpt lat="44.76464" lon="0.69904">
        <ele>100</ele>
        <time>2012-05-13T08:08:54Z</time>
      </trkpt>
      <trkpt lat="44.76452" lon="0.69914">
        <ele>100</ele>
        <time>2012-05-13T08:08:59Z</time>
      </trkpt>
      <trkpt lat="44.76439" lon="0.69926">
        <ele>100</ele>
        <time>2012-05-13T08:09:04Z</time>
      </trkpt>
      <trkpt lat="44.76426" lon="0.69936">
        <ele>101</ele>
        <time>2012-05-13T08:09:09Z</time>
      </trkpt>
      <trkpt lat="44.76416" lon="0.69954">
        <ele>105</ele>
        <time>2012-05-13T08:09:14Z</time>
      </trkpt>
      <trkpt lat="44.76406" lon="0.69972">
        <ele>105</ele>
        <time>2012-05-13T08:09:19Z</time>
      </trkpt>
      <trkpt lat="44.76399" lon="0.69987">
        <ele>105</ele>
        <time>2012-05-13T08:09:24Z</time>
      </trkpt>
      <trkpt lat="44.7639" lon="0.69994">
        <ele>105</ele>
        <time>2012-05-13T08:09:29Z</time>
      </trkpt>
      <trkpt lat="44.7638" lon="0.69998">
        <ele>104</ele>
        <time>2012-05-13T08:09:35Z</time>
      </trkpt>
      <trkpt lat="44.76371" lon="0.69999">
        <ele>104</ele>
        <time>2012-05-13T08:09:41Z</time>
      </trkpt>
      <trkpt lat="44.76365" lon="0.69998">
        <ele>104</ele>
        <time>2012-05-13T08:09:47Z</time>
      </trkpt>
      <trkpt lat="44.76361" lon="0.69991">
        <ele>105</ele>
        <time>2012-05-13T08:09:52Z</time>
      </trkpt>
      <trkpt lat="44.7636" lon="0.69984">
        <ele>108</ele>
        <time>2012-05-13T08:09:57Z</time>
      </trkpt>
      <trkpt lat="44.7636" lon="0.69976">
        <ele>112</ele>
        <time>2012-05-13T08:10:02Z</time>
      </trkpt>
      <trkpt lat="44.76358" lon="0.69969">
        <ele>113</ele>
        <time>2012-05-13T08:10:07Z</time>
      </trkpt>
      <trkpt lat="44.76357" lon="0.69959">
        <ele>113</ele>
        <time>2012-05-13T08:10:12Z</time>
      </trkpt>
      <trkpt lat="44.76355" lon="0.6995">
        <ele>115</ele>
        <time>2012-05-13T08:10:17Z</time>
      </trkpt>
      <trkpt lat="44.76353" lon="0.69942">
        <ele>115</ele>
        <time>2012-05-13T08:10:22Z</time>
      </trkpt>
      <trkpt lat="44.76349" lon="0.6993">
        <ele>115</ele>
        <time>2012-05-13T08:10:27Z</time>
      </trkpt>
      <trkpt lat="44.76349" lon="0.69919">
        <ele>115</ele>
        <time>2012-05-13T08:10:32Z</time>
      </trkpt>
      <trkpt lat="44.76349" lon="0.69905">
        <ele>115</ele>
        <time>2012-05-13T08:10:37Z</time>
      </trkpt>
      <trkpt lat="44.76348" lon="0.69889">
        <ele>115</ele>
        <time>2012-05-13T08:10:42Z</time>
      </trkpt>
      <trkpt lat="44.76344" lon="0.69876">
        <ele>115</ele>
        <time>2012-05-13T08:10:47Z</time>
      </trkpt>
      <trkpt lat="44.76343" lon="0.69864">
        <ele>108</ele>
        <time>2012-05-13T08:10:54Z</time>
      </trkpt>
      <trkpt lat="44.76345" lon="0.6986">
        <ele>106</ele>
        <time>2012-05-13T08:10:59Z</time>
      </trkpt>
      <trkpt lat="44.76347" lon="0.69858">
        <ele>106</ele>
        <time>2012-05-13T08:11:05Z</time>
      </trkpt>
      <trkpt lat="44.76351" lon="0.69857">
        <ele>108</ele>
        <time>2012-05-13T08:11:10Z</time>
      </trkpt>
      <trkpt lat="44.76351" lon="0.69857">
        <ele>120</ele>
        <time>2012-05-13T08:11:22Z</time>
      </trkpt>
      <trkpt lat="44.76348" lon="0.69856">
        <ele>123</ele>
        <time>2012-05-13T08:11:30Z</time>
      </trkpt>
      <trkpt lat="44.76348" lon="0.69856">
        <ele>124</ele>
        <time>2012-05-13T08:11:39Z</time>
      </trkpt>
      <trkpt lat="44.7635" lon="0.69854">
        <ele>127</ele>
        <time>2012-05-13T08:11:57Z</time>
      </trkpt>
      <trkpt lat="44.76348" lon="0.69853">
        <ele>133</ele>
        <time>2012-05-13T08:12:12Z</time>
      </trkpt>
      <trkpt lat="44.76347" lon="0.69848">
        <ele>133</ele>
        <time>2012-05-13T08:12:17Z</time>
      </trkpt>
      <trkpt lat="44.76345" lon="0.69836">
        <ele>133</ele>
        <time>2012-05-13T08:12:22Z</time>
      </trkpt>
      <trkpt lat="44.76343" lon="0.69817">
        <ele>132</ele>
        <time>2012-05-13T08:12:27Z</time>
      </trkpt>
      <trkpt lat="44.76341" lon="0.69797">
        <ele>131</ele>
        <time>2012-05-13T08:12:32Z</time>
      </trkpt>
      <trkpt lat="44.7634" lon="0.69778">
        <ele>129</ele>
        <time>2012-05-13T08:12:37Z</time>
      </trkpt>
      <trkpt lat="44.7634" lon="0.69758">
        <ele>129</ele>
        <time>2012-05-13T08:12:42Z</time>
      </trkpt>
      <trkpt lat="44.76339" lon="0.69737">
        <ele>129</ele>
        <time>2012-05-13T08:12:47Z</time>
      </trkpt>
      <trkpt lat="44.76336" lon="0.69715">
        <ele>129</ele>
        <time>2012-05-13T08:12:52Z</time>
      </trkpt>
      <trkpt lat="44.76326" lon="0.69712">
        <ele>128</ele>
        <time>2012-05-13T08:12:57Z</time>
      </trkpt>
      <trkpt lat="44.76312" lon="0.69724">
        <ele>123</ele>
        <time>2012-05-13T08:13:02Z</time>
      </trkpt>
      <trkpt lat="44.76299" lon="0.69741">
        <ele>118</ele>
        <time>2012-05-13T08:13:07Z</time>
      </trkpt>
      <trkpt lat="44.76283" lon="0.6976">
        <ele>114</ele>
        <time>2012-05-13T08:13:12Z</time>
      </trkpt>
      <trkpt lat="44.76262" lon="0.69775">
        <ele>114</ele>
        <time>2012-05-13T08:13:17Z</time>
      </trkpt>
      <trkpt lat="44.76242" lon="0.69794">
        <ele>114</ele>
        <time>2012-05-13T08:13:22Z</time>
      </trkpt>
      <trkpt lat="44.76223" lon="0.6981">
        <ele>114</ele>
        <time>2012-05-13T08:13:27Z</time>
      </trkpt>
      <trkpt lat="44.762" lon="0.6982">
        <ele>114</ele>
        <time>2012-05-13T08:13:32Z</time>
      </trkpt>
      <trkpt lat="44.76171" lon="0.69836">
        <ele>114</ele>
        <time>2012-05-13T08:13:37Z</time>
      </trkpt>
      <trkpt lat="44.76146" lon="0.69845">
        <ele>114</ele>
        <time>2012-05-13T08:13:42Z</time>
      </trkpt>
      <trkpt lat="44.76115" lon="0.69848">
        <ele>114</ele>
        <time>2012-05-13T08:13:47Z</time>
      </trkpt>
      <trkpt lat="44.76081" lon="0.69851">
        <ele>114</ele>
        <time>2012-05-13T08:13:52Z</time>
      </trkpt>
      <trkpt lat="44.76049" lon="0.69861">
        <ele>114</ele>
        <time>2012-05-13T08:13:57Z</time>
      </trkpt>
      <trkpt lat="44.7602" lon="0.69883">
        <ele>114</ele>
        <time>2012-05-13T08:14:02Z</time>
      </trkpt>
      <trkpt lat="44.76007" lon="0.69933">
        <ele>112</ele>
        <time>2012-05-13T08:14:07Z</time>
      </trkpt>
      <trkpt lat="44.75992" lon="0.69991">
        <ele>108</ele>
        <time>2012-05-13T08:14:12Z</time>
      </trkpt>
      <trkpt lat="44.75999" lon="0.70052">
        <ele>103</ele>
        <time>2012-05-13T08:14:17Z</time>
      </trkpt>
      <trkpt lat="44.76021" lon="0.70099">
        <ele>98</ele>
        <time>2012-05-13T08:14:22Z</time>
      </trkpt>
      <trkpt lat="44.7603" lon="0.70135">
        <ele>95</ele>
        <time>2012-05-13T08:14:27Z</time>
      </trkpt>
      <trkpt lat="44.76025" lon="0.70135">
        <ele>95</ele>
        <time>2012-05-13T08:14:33Z</time>
      </trkpt>
      <trkpt lat="44.7602" lon="0.70136">
        <ele>97</ele>
        <time>2012-05-13T08:14:39Z</time>
      </trkpt>
      <trkpt lat="44.76018" lon="0.70138">
        <ele>98</ele>
        <time>2012-05-13T08:14:44Z</time>
      </trkpt>
      <trkpt lat="44.76014" lon="0.70144">
        <ele>98</ele>
        <time>2012-05-13T08:14:52Z</time>
      </trkpt>
      <trkpt lat="44.76004" lon="0.70149">
        <ele>97</ele>
        <time>2012-05-13T08:14:57Z</time>
      </trkpt>
      <trkpt lat="44.75987" lon="0.70155">
        <ele>95</ele>
        <time>2012-05-13T08:15:02Z</time>
      </trkpt>
      <trkpt lat="44.75966" lon="0.70156">
        <ele>95</ele>
        <time>2012-05-13T08:15:07Z</time>
      </trkpt>
      <trkpt lat="44.75945" lon="0.70158">
        <ele>94</ele>
        <time>2012-05-13T08:15:12Z</time>
      </trkpt>
      <trkpt lat="44.75925" lon="0.70151">
        <ele>94</ele>
        <time>2012-05-13T08:15:17Z</time>
      </trkpt>
      <trkpt lat="44.75903" lon="0.70147">
        <ele>94</ele>
        <time>2012-05-13T08:15:22Z</time>
      </trkpt>
      <trkpt lat="44.7588" lon="0.70152">
        <ele>94</ele>
        <time>2012-05-13T08:15:27Z</time>
      </trkpt>
      <trkpt lat="44.75856" lon="0.70158">
        <ele>94</ele>
        <time>2012-05-13T08:15:32Z</time>
      </trkpt>
      <trkpt lat="44.75832" lon="0.70165">
        <ele>94</ele>
        <time>2012-05-13T08:15:37Z</time>
      </trkpt>
      <trkpt lat="44.7581" lon="0.70176">
        <ele>94</ele>
        <time>2012-05-13T08:15:42Z</time>
      </trkpt>
      <trkpt lat="44.7579" lon="0.70193">
        <ele>94</ele>
        <time>2012-05-13T08:15:47Z</time>
      </trkpt>
      <trkpt lat="44.75779" lon="0.70219">
        <ele>94</ele>
        <time>2012-05-13T08:15:52Z</time>
      </trkpt>
      <trkpt lat="44.75779" lon="0.70254">
        <ele>91</ele>
        <time>2012-05-13T08:15:57Z</time>
      </trkpt>
      <trkpt lat="44.75778" lon="0.70284">
        <ele>89</ele>
        <time>2012-05-13T08:16:02Z</time>
      </trkpt>
      <trkpt lat="44.75761" lon="0.70288">
        <ele>89</ele>
        <time>2012-05-13T08:16:07Z</time>
      </trkpt>
      <trkpt lat="44.7574" lon="0.70288">
        <ele>90</ele>
        <time>2012-05-13T08:16:12Z</time>
      </trkpt>
      <trkpt lat="44.75729" lon="0.70309">
        <ele>91</ele>
        <time>2012-05-13T08:16:17Z</time>
      </trkpt>
      <trkpt lat="44.7572" lon="0.70336">
        <ele>91</ele>
        <time>2012-05-13T08:16:22Z</time>
      </trkpt>
      <trkpt lat="44.75714" lon="0.70357">
        <ele>92</ele>
        <time>2012-05-13T08:16:27Z</time>
      </trkpt>
      <trkpt lat="44.75714" lon="0.70361">
        <ele>96</ele>
        <time>2012-05-13T08:16:37Z</time>
      </trkpt>
      <trkpt lat="44.75728" lon="0.7037">
        <ele>97</ele>
        <time>2012-05-13T08:16:42Z</time>
      </trkpt>
      <trkpt lat="44.75732" lon="0.704">
        <ele>98</ele>
        <time>2012-05-13T08:16:47Z</time>
      </trkpt>
      <trkpt lat="44.75717" lon="0.70426">
        <ele>98</ele>
        <time>2012-05-13T08:16:52Z</time>
      </trkpt>
      <trkpt lat="44.75695" lon="0.70409">
        <ele>98</ele>
        <time>2012-05-13T08:16:57Z</time>
      </trkpt>
      <trkpt lat="44.75676" lon="0.70383">
        <ele>98</ele>
        <time>2012-05-13T08:17:02Z</time>
      </trkpt>
      <trkpt lat="44.75656" lon="0.70358">
        <ele>101</ele>
        <time>2012-05-13T08:17:07Z</time>
      </trkpt>
      <trkpt lat="44.75638" lon="0.70332">
        <ele>106</ele>
        <time>2012-05-13T08:17:12Z</time>
      </trkpt>
      <trkpt lat="44.75618" lon="0.70313">
        <ele>107</ele>
        <time>2012-05-13T08:17:17Z</time>
      </trkpt>
      <trkpt lat="44.75599" lon="0.70317">
        <ele>107</ele>
        <time>2012-05-13T08:17:22Z</time>
      </trkpt>
      <trkpt lat="44.75581" lon="0.70323">
        <ele>107</ele>
        <time>2012-05-13T08:17:27Z</time>
      </trkpt>
      <trkpt lat="44.75578" lon="0.70333">
        <ele>106</ele>
        <time>2012-05-13T08:17:32Z</time>
      </trkpt>
      <trkpt lat="44.75585" lon="0.70349">
        <ele>106</ele>
        <time>2012-05-13T08:17:37Z</time>
      </trkpt>
      <trkpt lat="44.7559" lon="0.70358">
        <ele>106</ele>
        <time>2012-05-13T08:17:42Z</time>
      </trkpt>
      <trkpt lat="44.75593" lon="0.70369">
        <ele>106</ele>
        <time>2012-05-13T08:17:47Z</time>
      </trkpt>
      <trkpt lat="44.75596" lon="0.70384">
        <ele>106</ele>
        <time>2012-05-13T08:17:52Z</time>
      </trkpt>
      <trkpt lat="44.75599" lon="0.70398">
        <ele>107</ele>
        <time>2012-05-13T08:17:57Z</time>
      </trkpt>
      <trkpt lat="44.75602" lon="0.7041">
        <ele>110</ele>
        <time>2012-05-13T08:18:02Z</time>
      </trkpt>
      <trkpt lat="44.75608" lon="0.7042">
        <ele>113</ele>
        <time>2012-05-13T08:18:07Z</time>
      </trkpt>
      <trkpt lat="44.75625" lon="0.70425">
        <ele>113</ele>
        <time>2012-05-13T08:18:12Z</time>
      </trkpt>
      <trkpt lat="44.7564" lon="0.70441">
        <ele>113</ele>
        <time>2012-05-13T08:18:17Z</time>
      </trkpt>
      <trkpt lat="44.75648" lon="0.7045">
        <ele>113</ele>
        <time>2012-05-13T08:18:22Z</time>
      </trkpt>
      <trkpt lat="44.75663" lon="0.70466">
        <ele>113</ele>
        <time>2012-05-13T08:18:27Z</time>
      </trkpt>
      <trkpt lat="44.75674" lon="0.70481">
        <ele>113</ele>
        <time>2012-05-13T08:18:32Z</time>
      </trkpt>
      <trkpt lat="44.75688" lon="0.70488">
        <ele>116</ele>
        <time>2012-05-13T08:18:37Z</time>
      </trkpt>
      <trkpt lat="44.75698" lon="0.70499">
        <ele>119</ele>
        <time>2012-05-13T08:18:42Z</time>
      </trkpt>
      <trkpt lat="44.75706" lon="0.70507">
        <ele>119</ele>
        <time>2012-05-13T08:18:47Z</time>
      </trkpt>
      <trkpt lat="44.75713" lon="0.70513">
        <ele>119</ele>
        <time>2012-05-13T08:18:52Z</time>
      </trkpt>
      <trkpt lat="44.75723" lon="0.7052">
        <ele>120</ele>
        <time>2012-05-13T08:18:57Z</time>
      </trkpt>
      <trkpt lat="44.75737" lon="0.70524">
        <ele>120</ele>
        <time>2012-05-13T08:19:02Z</time>
      </trkpt>
      <trkpt lat="44.75753" lon="0.70525">
        <ele>120</ele>
        <time>2012-05-13T08:19:07Z</time>
      </trkpt>
      <trkpt lat="44.75772" lon="0.7053">
        <ele>120</ele>
        <time>2012-05-13T08:19:12Z</time>
      </trkpt>
      <trkpt lat="44.75791" lon="0.70536">
        <ele>120</ele>
        <time>2012-05-13T08:19:17Z</time>
      </trkpt>
      <trkpt lat="44.75811" lon="0.70533">
        <ele>120</ele>
        <time>2012-05-13T08:19:22Z</time>
      </trkpt>
      <trkpt lat="44.75826" lon="0.70533">
        <ele>120</ele>
        <time>2012-05-13T08:19:27Z</time>
      </trkpt>
      <trkpt lat="44.75834" lon="0.7054">
        <ele>120</ele>
        <time>2012-05-13T08:19:32Z</time>
      </trkpt>
      <trkpt lat="44.75847" lon="0.70546">
        <ele>120</ele>
        <time>2012-05-13T08:19:37Z</time>
      </trkpt>
      <trkpt lat="44.75866" lon="0.70546">
        <ele>120</ele>
        <time>2012-05-13T08:19:42Z</time>
      </trkpt>
      <trkpt lat="44.75873" lon="0.70547">
        <ele>118</ele>
        <time>2012-05-13T08:19:48Z</time>
      </trkpt>
      <trkpt lat="44.75885" lon="0.70566">
        <ele>117</ele>
        <time>2012-05-13T08:19:53Z</time>
      </trkpt>
      <trkpt lat="44.75902" lon="0.70549">
        <ele>115</ele>
        <time>2012-05-13T08:19:58Z</time>
      </trkpt>
      <trkpt lat="44.75914" lon="0.70509">
        <ele>113</ele>
        <time>2012-05-13T08:20:03Z</time>
      </trkpt>
      <trkpt lat="44.75928" lon="0.70473">
        <ele>113</ele>
        <time>2012-05-13T08:20:08Z</time>
      </trkpt>
      <trkpt lat="44.75946" lon="0.70442">
        <ele>113</ele>
        <time>2012-05-13T08:20:13Z</time>
      </trkpt>
      <trkpt lat="44.75967" lon="0.70417">
        <ele>113</ele>
        <time>2012-05-13T08:20:18Z</time>
      </trkpt>
      <trkpt lat="44.75991" lon="0.70406">
        <ele>111</ele>
        <time>2012-05-13T08:20:23Z</time>
      </trkpt>
      <trkpt lat="44.7601" lon="0.70387">
        <ele>107</ele>
        <time>2012-05-13T08:20:28Z</time>
      </trkpt>
      <trkpt lat="44.76027" lon="0.70364">
        <ele>106</ele>
        <time>2012-05-13T08:20:33Z</time>
      </trkpt>
      <trkpt lat="44.76048" lon="0.70333">
        <ele>105</ele>
        <time>2012-05-13T08:20:38Z</time>
      </trkpt>
      <trkpt lat="44.76058" lon="0.70305">
        <ele>105</ele>
        <time>2012-05-13T08:20:43Z</time>
      </trkpt>
      <trkpt lat="44.76046" lon="0.70274">
        <ele>105</ele>
        <time>2012-05-13T08:20:48Z</time>
      </trkpt>
      <trkpt lat="44.76037" lon="0.70239">
        <ele>105</ele>
        <time>2012-05-13T08:20:53Z</time>
      </trkpt>
      <trkpt lat="44.76045" lon="0.70209">
        <ele>105</ele>
        <time>2012-05-13T08:20:58Z</time>
      </trkpt>
      <trkpt lat="44.7606" lon="0.70195">
        <ele>105</ele>
        <time>2012-05-13T08:21:03Z</time>
      </trkpt>
      <trkpt lat="44.76071" lon="0.70188">
        <ele>103</ele>
        <time>2012-05-13T08:21:08Z</time>
      </trkpt>
      <trkpt lat="44.76083" lon="0.70178">
        <ele>102</ele>
        <time>2012-05-13T08:21:13Z</time>
      </trkpt>
      <trkpt lat="44.76096" lon="0.70167">
        <ele>102</ele>
        <time>2012-05-13T08:21:18Z</time>
      </trkpt>
      <trkpt lat="44.76108" lon="0.70161">
        <ele>102</ele>
        <time>2012-05-13T08:21:23Z</time>
      </trkpt>
      <trkpt lat="44.76125" lon="0.70162">
        <ele>102</ele>
        <time>2012-05-13T08:21:28Z</time>
      </trkpt>
      <trkpt lat="44.76139" lon="0.70173">
        <ele>102</ele>
        <time>2012-05-13T08:21:33Z</time>
      </trkpt>
      <trkpt lat="44.76156" lon="0.70179">
        <ele>102</ele>
        <time>2012-05-13T08:21:38Z</time>
      </trkpt>
      <trkpt lat="44.76173" lon="0.70187">
        <ele>102</ele>
        <time>2012-05-13T08:21:43Z</time>
      </trkpt>
      <trkpt lat="44.76189" lon="0.70196">
        <ele>102</ele>
        <time>2012-05-13T08:21:48Z</time>
      </trkpt>
      <trkpt lat="44.76205" lon="0.70202">
        <ele>102</ele>
        <time>2012-05-13T08:21:53Z</time>
      </trkpt>
      <trkpt lat="44.7622" lon="0.70205">
        <ele>103</ele>
        <time>2012-05-13T08:21:58Z</time>
      </trkpt>
      <trkpt lat="44.76233" lon="0.70205">
        <ele>103</ele>
        <time>2012-05-13T08:22:03Z</time>
      </trkpt>
      <trkpt lat="44.76246" lon="0.7021">
        <ele>103</ele>
        <time>2012-05-13T08:22:08Z</time>
      </trkpt>
      <trkpt lat="44.76257" lon="0.70222">
        <ele>103</ele>
        <time>2012-05-13T08:22:13Z</time>
      </trkpt>
      <trkpt lat="44.76269" lon="0.70241">
        <ele>103</ele>
        <time>2012-05-13T08:22:18Z</time>
      </trkpt>
      <trkpt lat="44.76281" lon="0.70255">
        <ele>103</ele>
        <time>2012-05-13T08:22:23Z</time>
      </trkpt>
      <trkpt lat="44.76282" lon="0.70271">
        <ele>103</ele>
        <time>2012-05-13T08:22:28Z</time>
      </trkpt>
      <trkpt lat="44.76282" lon="0.70289">
        <ele>103</ele>
        <time>2012-05-13T08:22:33Z</time>
      </trkpt>
      <trkpt lat="44.76279" lon="0.70304">
        <ele>104</ele>
        <time>2012-05-13T08:22:38Z</time>
      </trkpt>
      <trkpt lat="44.76277" lon="0.70318">
        <ele>105</ele>
        <time>2012-05-13T08:22:43Z</time>
      </trkpt>
      <trkpt lat="44.76276" lon="0.70331">
        <ele>105</ele>
        <time>2012-05-13T08:22:48Z</time>
      </trkpt>
      <trkpt lat="44.76276" lon="0.70345">
        <ele>105</ele>
        <time>2012-05-13T08:22:53Z</time>
      </trkpt>
      <trkpt lat="44.76276" lon="0.70357">
        <ele>105</ele>
        <time>2012-05-13T08:22:58Z</time>
      </trkpt>
      <trkpt lat="44.76277" lon="0.70371">
        <ele>105</ele>
        <time>2012-05-13T08:23:03Z</time>
      </trkpt>
      <trkpt lat="44.7628" lon="0.70386">
        <ele>105</ele>
        <time>2012-05-13T08:23:08Z</time>
      </trkpt>
      <trkpt lat="44.76282" lon="0.70401">
        <ele>105</ele>
        <time>2012-05-13T08:23:13Z</time>
      </trkpt>
      <trkpt lat="44.76284" lon="0.70417">
        <ele>105</ele>
        <time>2012-05-13T08:23:18Z</time>
      </trkpt>
      <trkpt lat="44.76286" lon="0.70434">
        <ele>105</ele>
        <time>2012-05-13T08:23:23Z</time>
      </trkpt>
      <trkpt lat="44.76286" lon="0.70456">
        <ele>105</ele>
        <time>2012-05-13T08:23:28Z</time>
      </trkpt>
      <trkpt lat="44.76284" lon="0.70478">
        <ele>106</ele>
        <time>2012-05-13T08:23:33Z</time>
      </trkpt>
      <trkpt lat="44.76285" lon="0.70498">
        <ele>108</ele>
        <time>2012-05-13T08:23:38Z</time>
      </trkpt>
      <trkpt lat="44.76282" lon="0.70513">
        <ele>109</ele>
        <time>2012-05-13T08:23:43Z</time>
      </trkpt>
      <trkpt lat="44.76276" lon="0.70526">
        <ele>110</ele>
        <time>2012-05-13T08:23:48Z</time>
      </trkpt>
      <trkpt lat="44.76273" lon="0.70539">
        <ele>112</ele>
        <time>2012-05-13T08:23:53Z</time>
      </trkpt>
      <trkpt lat="44.76267" lon="0.70551">
        <ele>113</ele>
        <time>2012-05-13T08:23:58Z</time>
      </trkpt>
      <trkpt lat="44.76258" lon="0.70565">
        <ele>114</ele>
        <time>2012-05-13T08:24:03Z</time>
      </trkpt>
      <trkpt lat="44.76251" lon="0.70581">
        <ele>114</ele>
        <time>2012-05-13T08:24:08Z</time>
      </trkpt>
      <trkpt lat="44.76245" lon="0.70598">
        <ele>114</ele>
        <time>2012-05-13T08:24:13Z</time>
      </trkpt>
      <trkpt lat="44.76242" lon="0.70617">
        <ele>115</ele>
        <time>2012-05-13T08:24:18Z</time>
      </trkpt>
      <trkpt lat="44.76237" lon="0.70636">
        <ele>115</ele>
        <time>2012-05-13T08:24:23Z</time>
      </trkpt>
      <trkpt lat="44.76237" lon="0.70655">
        <ele>117</ele>
        <time>2012-05-13T08:24:28Z</time>
      </trkpt>
      <trkpt lat="44.76236" lon="0.70674">
        <ele>119</ele>
        <time>2012-05-13T08:24:33Z</time>
      </trkpt>
      <trkpt lat="44.76233" lon="0.70696">
        <ele>119</ele>
        <time>2012-05-13T08:24:38Z</time>
      </trkpt>
      <trkpt lat="44.7623" lon="0.7072">
        <ele>119</ele>
        <time>2012-05-13T08:24:43Z</time>
      </trkpt>
      <trkpt lat="44.76223" lon="0.70745">
        <ele>117</ele>
        <time>2012-05-13T08:24:48Z</time>
      </trkpt>
      <trkpt lat="44.76216" lon="0.70771">
        <ele>116</ele>
        <time>2012-05-13T08:24:53Z</time>
      </trkpt>
      <trkpt lat="44.7621" lon="0.70797">
        <ele>114</ele>
        <time>2012-05-13T08:24:58Z</time>
      </trkpt>
      <trkpt lat="44.76203" lon="0.70824">
        <ele>113</ele>
        <time>2012-05-13T08:25:03Z</time>
      </trkpt>
      <trkpt lat="44.76196" lon="0.70852">
        <ele>112</ele>
        <time>2012-05-13T08:25:08Z</time>
      </trkpt>
      <trkpt lat="44.76189" lon="0.7088">
        <ele>112</ele>
        <time>2012-05-13T08:25:13Z</time>
      </trkpt>
      <trkpt lat="44.76175" lon="0.70908">
        <ele>112</ele>
        <time>2012-05-13T08:25:18Z</time>
      </trkpt>
      <trkpt lat="44.76151" lon="0.70929">
        <ele>112</ele>
        <time>2012-05-13T08:25:23Z</time>
      </trkpt>
      <trkpt lat="44.76121" lon="0.70942">
        <ele>112</ele>
        <time>2012-05-13T08:25:28Z</time>
      </trkpt>
      <trkpt lat="44.76086" lon="0.70965">
        <ele>112</ele>
        <time>2012-05-13T08:25:33Z</time>
      </trkpt>
      <trkpt lat="44.76051" lon="0.71">
        <ele>112</ele>
        <time>2012-05-13T08:25:38Z</time>
      </trkpt>
      <trkpt lat="44.76027" lon="0.71051">
        <ele>112</ele>
        <time>2012-05-13T08:25:43Z</time>
      </trkpt>
      <trkpt lat="44.76012" lon="0.711">
        <ele>112</ele>
        <time>2012-05-13T08:25:48Z</time>
      </trkpt>
      <trkpt lat="44.76005" lon="0.71147">
        <ele>114</ele>
        <time>2012-05-13T08:25:53Z</time>
      </trkpt>
      <trkpt lat="44.76001" lon="0.71188">
        <ele>118</ele>
        <time>2012-05-13T08:25:58Z</time>
      </trkpt>
      <trkpt lat="44.75998" lon="0.71231">
        <ele>121</ele>
        <time>2012-05-13T08:26:03Z</time>
      </trkpt>
      <trkpt lat="44.75994" lon="0.71278">
        <ele>122</ele>
        <time>2012-05-13T08:26:08Z</time>
      </trkpt>
      <trkpt lat="44.75994" lon="0.71326">
        <ele>122</ele>
        <time>2012-05-13T08:26:13Z</time>
      </trkpt>
      <trkpt lat="44.75996" lon="0.71378">
        <ele>122</ele>
        <time>2012-05-13T08:26:18Z</time>
      </trkpt>
      <trkpt lat="44.75992" lon="0.71435">
        <ele>122</ele>
        <time>2012-05-13T08:26:23Z</time>
      </trkpt>
      <trkpt lat="44.75986" lon="0.71487">
        <ele>122</ele>
        <time>2012-05-13T08:26:28Z</time>
      </trkpt>
      <trkpt lat="44.75982" lon="0.71536">
        <ele>122</ele>
        <time>2012-05-13T08:26:33Z</time>
      </trkpt>
      <trkpt lat="44.75978" lon="0.71584">
        <ele>122</ele>
        <time>2012-05-13T08:26:38Z</time>
      </trkpt>
      <trkpt lat="44.75966" lon="0.7163">
        <ele>121</ele>
        <time>2012-05-13T08:26:43Z</time>
      </trkpt>
      <trkpt lat="44.75948" lon="0.71668">
        <ele>120</ele>
        <time>2012-05-13T08:26:48Z</time>
      </trkpt>
      <trkpt lat="44.75932" lon="0.71709">
        <ele>120</ele>
        <time>2012-05-13T08:26:53Z</time>
      </trkpt>
      <trkpt lat="44.75919" lon="0.71754">
        <ele>119</ele>
        <time>2012-05-13T08:26:58Z</time>
      </trkpt>
      <trkpt lat="44.75903" lon="0.71794">
        <ele>119</ele>
        <time>2012-05-13T08:27:03Z</time>
      </trkpt>
      <trkpt lat="44.75884" lon="0.71829">
        <ele>119</ele>
        <time>2012-05-13T08:27:08Z</time>
      </trkpt>
      <trkpt lat="44.75865" lon="0.71862">
        <ele>119</ele>
        <time>2012-05-13T08:27:13Z</time>
      </trkpt>
      <trkpt lat="44.75847" lon="0.71895">
        <ele>119</ele>
        <time>2012-05-13T08:27:18Z</time>
      </trkpt>
      <trkpt lat="44.7583" lon="0.7193">
        <ele>119</ele>
        <time>2012-05-13T08:27:23Z</time>
      </trkpt>
      <trkpt lat="44.75823" lon="0.71972">
        <ele>119</ele>
        <time>2012-05-13T08:27:28Z</time>
      </trkpt>
      <trkpt lat="44.7582" lon="0.72014">
        <ele>121</ele>
        <time>2012-05-13T08:27:33Z</time>
      </trkpt>
      <trkpt lat="44.75818" lon="0.72057">
        <ele>125</ele>
        <time>2012-05-13T08:27:38Z</time>
      </trkpt>
      <trkpt lat="44.75816" lon="0.72098">
        <ele>125</ele>
        <time>2012-05-13T08:27:43Z</time>
      </trkpt>
      <trkpt lat="44.7581" lon="0.72142">
        <ele>125</ele>
        <time>2012-05-13T08:27:48Z</time>
      </trkpt>
      <trkpt lat="44.75798" lon="0.72171">
        <ele>125</ele>
        <time>2012-05-13T08:27:53Z</time>
      </trkpt>
      <trkpt lat="44.75782" lon="0.72166">
        <ele>125</ele>
        <time>2012-05-13T08:27:58Z</time>
      </trkpt>
      <trkpt lat="44.75769" lon="0.72166">
        <ele>125</ele>
        <time>2012-05-13T08:28:03Z</time>
      </trkpt>
      <trkpt lat="44.7576" lon="0.72174">
        <ele>125</ele>
        <time>2012-05-13T08:28:08Z</time>
      </trkpt>
      <trkpt lat="44.7576" lon="0.7218">
        <ele>130</ele>
        <time>2012-05-13T08:28:20Z</time>
      </trkpt>
      <trkpt lat="44.75758" lon="0.72181">
        <ele>133</ele>
        <time>2012-05-13T08:28:25Z</time>
      </trkpt>
      <trkpt lat="44.75758" lon="0.72181">
        <ele>133</ele>
        <time>2012-05-13T08:28:25Z</time>
      </trkpt>
    </trkseg>
  </trk>
</gpx>